[[{"header":{"parameterUnit":"m.s-1","parameterCategory":1,"la1":30.6,"la2":28.766,"lo1":-90.7593,"lo2":-88.6598,"dy":0.0162,"dx":0.0183,"nx":116,"ny":114,"refTime":"2024-06-12T18:00:00:Z","depth":0,"parameterNumber":2,"parameterNumberName":"U-component_of_WINDS"},"data":[0.0,0.0,0.0,0.0,0.0,0.0,0.0,0.0,0.0,0.0,0.0,0.0,0.0,0.0,0.0,0.0,0.0,0.0,0.0,0.0,0.0,0.0,0.0,0.0,0.0,0.0,0.0,0.0,0.0,0.0,0.0,0.0,0.0,0.0,0.0,0.0,0.0,0.0,0.0,0.0,0.0,0.0,0.0,0.0,0.0,0.0,0.0,0.0,0.0,0.0,0.0,0.0,0.0,0.0,0.0,0.0,0.0,0.0,0.0,0.0,0.0,0.0,0.0,0.0,0.0,0.0,0.0,0.0,0.0,0.0,0.0,0.0,0.0,0.0,0.0,0.0,0.0,0.0,0.0,0.0,0.0,0.0,0.0,0.0,0.0,0.0,0.0,0.0,0.0,0.0,0.0,0.0,0.0,0.0,0.0,0.0,0.0,0.0,0.0,0.0,0.0,0.0,0.0,0.0,0.0,0.0,0.0,0.0,0.0,0.0,0.0,0.0,0.0,0.0,0.0,0.0,0.0,0.0,0.0,0.0,0.0,0.0,0.0,0.0,0.0,0.0,0.0,0.0,0.0,0.0,0.0,0.0,0.0,0.0,0.0,0.0,0.0,0.0,0.0,0.0,0.0,0.0,0.0,0.0,0.0,0.0,0.0,0.0,0.0,0.0,0.0,0.0,0.0,0.0,0.0,0.0,0.0,0.0,0.0,0.0,0.0,0.0,0.0,0.0,0.0,0.0,0.0,0.0,0.0,0.0,0.0,0.0,0.0,0.0,0.0,0.0,0.0,0.0,0.0,0.0,0.0,0.0,0.0,0.0,0.0,0.0,0.0,0.0,0.0,0.0,0.0,0.0,0.0,0.0,0.0,0.0,0.0,0.0,0.0,0.0,0.0,0.0,0.0,0.0,0.0,0.0,0.0,0.0,0.0,0.0,0.0,0.0,0.0,0.0,0.0,0.0,0.0,0.0,0.0,0.0,0.0,0.0,0.0,0.0,0.0,0.0,0.0,0.0,0.0,0.0,0.0,0.0,0.0,0.0,0.0,0.0,0.0,0.0,0.0,0.0,0.0,0.0,0.0,0.0,0.0,0.0,0.0,0.0,0.0,0.0,0.0,0.0,0.0,0.0,0.0,0.0,0.0,0.0,0.0,0.0,0.0,0.0,0.0,0.0,0.0,0.0,0.0,0.0,0.0,0.0,0.0,0.0,0.0,0.0,0.0,0.0,0.0,0.0,0.0,0.0,0.0,0.0,0.0,0.0,0.0,0.0,0.0,0.0,0.0,0.0,0.0,0.0,0.0,0.0,0.0,0.0,0.0,0.0,0.0,0.0,0.0,0.0,0.0,0.0,0.0,0.0,0.0,0.0,0.0,0.0,0.0,0.0,0.0,0.0,0.0,0.0,0.0,0.0,0.0,0.0,0.0,0.0,0.0,0.0,0.0,0.0,0.0,0.0,0.0,0.0,0.0,0.0,0.0,0.0,0.0,0.0,0.0,0.0,0.0,0.0,0.0,0.0,0.0,0.0,0.0,0.0,0.0,0.0,0.0,0.0,0.0,0.0,0.0,0.0,0.0,0.0,0.0,0.0,0.0,0.0,0.0,0.0,0.0,0.0,0.0,0.0,0.0,0.0,0.0,0.0,0.0,0.0,0.0,0.0,0.0,0.0,0.0,0.0,0.0,0.0,0.0,0.0,0.0,0.0,0.0,0.0,0.0,0.0,0.0,0.0,0.0,0.0,0.0,0.0,0.0,0.0,0.0,0.0,0.0,0.0,0.0,0.0,0.0,0.0,0.0,0.0,0.0,0.0,0.0,0.0,0.0,0.0,0.0,0.0,0.0,0.0,0.0,0.0,0.0,0.0,0.0,0.0,0.0,0.0,0.0,0.0,0.0,0.0,0.0,0.0,0.0,0.0,0.0,0.0,0.0,0.0,0.0,0.0,0.0,0.0,0.0,0.0,0.0,0.0,0.0,0.0,0.0,0.0,0.0,0.0,0.0,0.0,0.0,0.0,0.0,0.0,0.0,0.0,0.0,0.0,0.0,0.0,0.0,0.0,0.0,0.0,0.0,0.0,0.0,0.0,0.0,0.0,0.0,0.0,0.0,0.0,0.0,0.0,0.0,0.0,0.0,0.0,0.0,0.0,0.0,0.0,0.0,0.0,0.0,0.0,0.0,0.0,0.0,0.0,0.0,0.0,0.0,0.0,0.0,0.0,0.0,0.0,0.0,0.0,0.0,0.0,0.0,0.0,0.0,0.0,0.0,0.0,0.0,0.0,0.0,0.0,0.0,0.0,0.0,0.0,0.0,0.0,0.0,0.0,0.0,0.0,0.0,0.0,0.0,0.0,0.0,0.0,0.0,0.0,0.0,0.0,0.0,0.0,0.0,0.0,0.0,0.0,0.0,0.0,0.0,0.0,0.0,0.0,0.0,0.0,0.0,0.0,0.0,0.0,0.0,0.0,0.0,0.0,0.0,0.0,0.0,0.0,0.0,0.0,0.0,0.0,0.0,0.0,0.0,0.0,0.0,0.0,0.0,0.0,0.0,0.0,0.0,0.0,0.0,0.0,0.0,0.0,0.0,0.0,0.0,0.0,0.0,0.0,0.0,0.0,0.0,0.0,0.0,0.0,0.0,0.0,0.0,0.0,0.0,0.0,0.0,0.0,0.0,0.0,0.0,0.0,0.0,0.0,0.0,0.0,0.0,0.0,0.0,0.0,0.0,0.0,0.0,0.0,0.0,0.0,0.0,0.0,0.0,0.0,0.0,0.0,0.0,0.0,0.0,0.0,0.0,0.0,0.0,0.0,0.0,0.0,0.0,0.0,0.0,0.0,0.0,0.0,0.0,0.0,0.0,0.0,0.0,0.0,0.0,0.0,0.0,0.0,0.0,0.0,0.0,0.0,0.0,0.0,0.0,0.0,0.0,0.0,0.0,0.0,0.0,0.0,0.0,0.0,0.0,0.0,0.0,0.0,0.0,0.0,0.0,0.0,0.0,0.0,0.0,0.0,0.0,0.0,0.0,0.0,0.0,0.0,0.0,0.0,0.0,0.0,0.0,0.0,0.0,0.0,0.0,0.0,0.0,0.0,0.0,0.0,0.0,0.0,0.0,0.0,0.0,0.0,0.0,0.0,0.0,0.0,0.0,0.0,0.0,0.0,0.0,0.0,0.0,0.0,0.0,0.0,0.0,0.0,0.0,0.0,0.0,0.0,0.0,0.0,0.0,0.0,0.0,0.0,0.0,0.0,0.0,0.0,0.0,0.0,0.0,0.0,0.0,0.0,0.0,0.0,0.0,0.0,0.0,0.0,0.0,0.0,0.0,0.0,0.0,0.0,0.0,0.0,0.0,0.0,0.0,0.0,0.0,0.0,0.0,0.0,0.0,0.0,0.0,0.0,0.0,0.0,0.0,0.0,0.0,0.0,0.0,0.0,0.0,0.0,0.0,0.0,0.0,0.0,0.0,0.0,0.0,0.0,0.0,0.0,0.0,0.0,0.0,0.0,0.0,0.0,0.0,0.0,0.0,0.0,0.0,0.0,0.0,0.0,0.0,0.0,0.0,0.0,0.0,0.0,0.0,0.0,0.0,0.0,0.0,0.0,0.0,0.0,0.0,0.0,0.0,0.0,0.0,0.0,0.0,0.0,0.0,0.0,0.0,0.0,0.0,0.0,0.0,0.0,0.0,0.0,0.0,0.0,0.0,0.0,0.0,0.0,0.0,0.0,0.0,0.0,0.0,0.0,0.0,0.0,0.0,0.0,0.0,0.0,0.0,0.0,0.0,0.0,0.0,0.0,0.0,0.0,0.0,0.0,0.0,0.0,0.0,0.0,0.0,0.0,0.0,0.0,0.0,0.0,0.0,0.0,0.0,0.0,0.0,0.0,0.0,0.0,0.0,0.0,0.0,0.0,0.0,0.0,0.0,0.0,0.0,0.0,0.0,0.0,0.0,0.0,0.0,0.0,0.0,0.0,0.0,0.0,0.0,0.0,0.0,0.0,0.0,0.0,0.0,0.0,0.0,0.0,0.0,0.0,0.0,0.0,0.0,0.0,0.0,0.0,0.0,0.0,0.0,0.0,0.0,0.0,0.0,0.0,0.0,0.0,0.0,0.0,0.0,0.0,0.0,0.0,0.0,0.0,0.0,0.0,0.0,0.0,0.0,0.0,0.0,0.0,0.0,0.0,0.0,0.0,0.0,0.0,0.0,0.0,0.0,0.0,0.0,0.0,0.0,0.0,0.0,0.0,0.0,0.0,0.0,0.0,0.0,0.0,0.0,0.0,0.0,0.0,0.0,0.0,0.0,0.0,0.0,0.0,0.0,0.0,0.0,0.0,0.0,0.0,0.0,0.0,0.0,0.0,0.0,0.0,0.0,0.0,0.0,0.0,0.0,0.0,0.0,0.0,0.0,0.0,0.0,0.0,0.0,0.0,0.0,0.0,0.0,0.0,0.0,0.0,0.0,0.0,0.0,0.0,0.0,0.0,0.0,0.0,0.0,0.0,0.0,0.0,0.0,0.0,0.0,0.0,0.0,0.0,0.0,0.0,0.0,0.0,0.0,0.0,0.0,0.0,0.0,0.0,0.0,0.0,0.0,0.0,0.0,0.0,0.0,0.0,0.0,0.0,0.0,0.0,0.0,0.0,0.0,0.0,0.0,0.0,0.0,0.0,0.0,0.0,0.0,0.0,0.0,0.0,0.0,0.0,0.0,0.0,0.0,0.0,0.0,0.0,0.0,0.0,0.0,0.0,0.0,0.0,0.0,0.0,0.0,0.0,0.0,0.0,0.0,0.0,0.0,0.0,0.0,0.0,0.0,0.0,0.0,0.0,0.0,0.0,0.0,0.0,0.0,0.0,0.0,0.0,0.0,0.0,0.0,0.0,0.0,0.0,0.0,0.0,0.0,0.0,0.0,0.0,0.0,0.0,0.0,0.0,0.0,0.0,0.0,0.0,0.0,0.0,0.0,0.0,0.0,0.0,0.0,0.0,0.0,0.0,0.0,0.0,0.0,0.0,0.0,0.0,0.0,0.0,0.0,0.0,0.0,0.0,0.0,0.0,0.0,0.0,0.0,0.0,0.0,0.0,0.0,0.0,0.0,0.0,0.0,0.0,0.0,0.0,0.0,0.0,0.0,0.0,0.0,0.0,0.0,0.0,0.0,0.0,0.0,0.0,0.0,0.0,0.0,0.0,0.0,0.0,0.0,0.0,0.0,0.0,0.0,0.0,0.0,0.0,0.0,0.0,0.0,0.0,0.0,0.0,0.0,0.0,0.0,0.0,0.0,0.0,0.0,0.0,0.0,0.0,0.0,0.0,0.0,0.0,0.0,0.0,0.0,0.0,0.0,0.0,0.0,0.0,0.0,0.0,0.0,0.0,0.0,0.0,0.0,0.0,0.0,0.0,0.0,0.0,0.0,0.0,0.0,0.0,0.0,0.0,0.0,0.0,0.0,0.0,0.0,0.0,0.0,0.0,0.0,0.0,0.0,0.0,0.0,0.0,0.0,0.0,0.0,0.0,0.0,0.0,0.0,0.0,0.0,0.0,0.0,0.0,0.0,0.0,0.0,0.0,0.0,0.0,0.0,0.0,0.0,0.0,0.0,0.0,0.0,0.0,0.0,0.0,0.0,0.0,0.0,0.0,0.0,0.0,0.0,0.0,0.0,0.0,0.0,0.0,0.0,0.0,0.0,0.0,0.0,0.0,0.0,0.0,0.0,0.0,0.0,0.0,0.0,0.0,0.0,0.0,0.0,0.0,0.0,0.0,0.0,0.0,0.0,0.0,0.0,0.0,0.0,0.0,0.0,0.0,0.0,0.0,0.0,0.0,0.0,0.0,0.0,0.0,0.0,0.0,0.0,0.0,0.0,0.0,0.0,0.0,0.0,0.0,0.0,0.0,0.0,0.0,0.0,0.0,0.0,0.0,0.0,0.0,0.0,0.0,0.0,0.0,0.0,0.0,0.0,0.0,0.0,0.0,0.0,0.0,0.0,0.0,0.0,0.0,0.0,0.0,0.0,0.0,0.0,0.0,0.0,0.0,0.0,0.0,0.0,0.0,0.0,0.0,0.0,0.0,0.0,0.0,0.0,0.0,0.0,0.0,-3.6343,0.0,0.0,0.0,0.0,0.0,0.0,0.0,0.0,0.0,0.0,0.0,0.0,0.0,0.0,0.0,0.0,0.0,0.0,0.0,0.0,0.0,0.0,0.0,0.0,-2.7369,-2.8563,-2.9664,-2.983,-2.9886,-2.995,0.0,0.0,0.0,0.0,0.0,-2.7902,-2.7667,-2.7929,-2.8685,-2.9162,-3.0398,-3.2297,-3.1017,-2.9317,-2.7334,0.0,0.0,0.0,0.0,0.0,0.0,0.0,0.0,0.0,0.0,0.0,0.0,0.0,0.0,0.0,0.0,0.0,0.0,0.0,0.0,0.0,0.0,0.0,0.0,0.0,0.0,0.0,0.0,0.0,0.0,0.0,0.0,0.0,0.0,0.0,0.0,0.0,0.0,0.0,0.0,0.0,0.0,0.0,0.0,0.0,0.0,0.0,0.0,0.0,0.0,0.0,0.0,0.0,0.0,0.0,0.0,0.0,0.0,0.0,0.0,0.0,0.0,0.0,0.0,0.0,0.0,0.0,0.0,0.0,0.0,0.0,-3.914,0.0,0.0,0.0,0.0,0.0,0.0,0.0,0.0,0.0,0.0,0.0,0.0,0.0,0.0,0.0,0.0,0.0,0.0,0.0,0.0,0.0,-2.6094,-2.6656,-2.8494,-3.0138,-3.129,-3.1214,-3.1182,-3.1398,-3.052,0.0,0.0,0.0,-2.9156,-2.9284,-2.948,-3.0073,-3.118,-3.2923,-3.4701,-3.6478,-3.6462,-3.4585,-3.1134,-2.9285,0.0,0.0,0.0,0.0,0.0,0.0,0.0,0.0,0.0,0.0,0.0,0.0,0.0,0.0,0.0,0.0,0.0,0.0,0.0,0.0,0.0,0.0,0.0,0.0,0.0,0.0,0.0,0.0,0.0,0.0,0.0,0.0,0.0,0.0,0.0,0.0,0.0,0.0,0.0,0.0,0.0,0.0,0.0,0.0,0.0,0.0,0.0,0.0,0.0,0.0,0.0,0.0,0.0,0.0,0.0,0.0,0.0,0.0,0.0,0.0,0.0,0.0,0.0,-4.8646,-4.8987,-4.8852,-4.8852,-4.8852,-4.8649,-4.4959,-4.3978,-4.475,-4.1474,0.0,0.0,0.0,0.0,0.0,0.0,0.0,0.0,0.0,0.0,0.0,0.0,0.0,0.0,0.0,0.0,0.0,0.0,0.0,-2.6121,-2.7791,-2.869,-3.0321,-3.3166,-3.1927,-3.1694,-3.3321,-3.1276,0.0,0.0,-3.0892,-3.0804,-3.1231,-3.2079,-3.3125,-3.431,-3.7675,-3.9565,-3.9927,-3.9875,-3.9494,-3.8663,-3.3987,-3.2242,-3.2547,0.0,0.0,0.0,0.0,0.0,0.0,0.0,0.0,0.0,0.0,0.0,0.0,0.0,0.0,0.0,0.0,0.0,0.0,0.0,0.0,0.0,0.0,0.0,0.0,0.0,0.0,0.0,0.0,0.0,0.0,0.0,0.0,0.0,0.0,0.0,0.0,0.0,0.0,0.0,0.0,0.0,-3.5428,-3.657,0.0,0.0,0.0,0.0,0.0,0.0,0.0,0.0,0.0,0.0,0.0,0.0,0.0,-4.8108,-5.0137,-5.1725,-5.2164,-5.1589,-5.301,-5.3382,-5.2773,-5.2773,-5.2773,-5.2739,-5.2131,0.0,-4.6413,-4.5297,0.0,0.0,0.0,0.0,0.0,0.0,0.0,0.0,0.0,0.0,0.0,0.0,0.0,0.0,0.0,0.0,0.0,0.0,0.0,0.0,0.0,-3.0819,-3.2774,-3.4911,-3.4782,-3.4712,-3.5009,-3.3656,-3.2652,-3.2221,-3.2022,-3.2198,-3.2829,-3.4065,-3.6174,-3.9189,-4.2435,-4.407,-4.4153,-4.4102,-4.407,-4.3866,-3.9941,-3.6843,-3.4352,-3.1162,0.0,0.0,0.0,0.0,0.0,0.0,0.0,0.0,0.0,0.0,0.0,0.0,0.0,0.0,0.0,0.0,0.0,0.0,0.0,0.0,0.0,0.0,0.0,0.0,0.0,0.0,0.0,0.0,0.0,0.0,0.0,0.0,0.0,0.0,0.0,0.0,0.0,0.0,0.0,-3.6051,-3.9514,-3.9096,-3.9999,-3.9914,0.0,0.0,0.0,0.0,0.0,0.0,0.0,0.0,0.0,-5.0947,-5.1454,-5.2536,-5.4329,-5.5412,-5.5987,-5.6089,-5.6765,-5.6697,-5.5953,-5.5953,-5.5513,-5.4735,-5.4735,-5.3382,-5.1014,-4.9018,-4.6921,-4.4823,0.0,0.0,0.0,0.0,-4.2422,-4.2861,0.0,0.0,0.0,0.0,0.0,0.0,0.0,0.0,0.0,0.0,0.0,0.0,-3.063,-3.2688,-3.479,-3.6994,-3.7199,-3.716,-3.7125,-3.5869,-3.4618,-3.3568,-3.316,-3.3348,-3.4054,-3.6439,-3.962,-4.3628,-4.6212,-4.757,-4.7736,-4.7506,-4.7441,-4.7342,-4.4803,-4.1357,-3.7218,-3.4091,-3.1749,-2.9924,0.0,0.0,0.0,0.0,0.0,0.0,0.0,0.0,0.0,0.0,0.0,0.0,0.0,0.0,0.0,0.0,0.0,0.0,0.0,0.0,0.0,0.0,0.0,0.0,0.0,0.0,0.0,0.0,0.0,0.0,0.0,0.0,0.0,0.0,0.0,0.0,0.0,-3.9918,-4.2899,-4.1697,-4.3322,-4.3639,0.0,0.0,0.0,0.0,0.0,0.0,-4.956,-5.1014,-5.2773,-5.4837,-5.5446,-5.6325,-5.7645,-5.8186,-5.8727,-5.9302,-5.9302,-5.8998,-5.8457,-5.8457,-5.7746,-5.6526,-5.6526,-5.6021,-5.4938,-5.2131,-5.0101,-4.8548,-4.6718,-4.5534,-4.4964,-4.6143,-4.6312,-4.6409,0.0,0.0,0.0,0.0,0.0,0.0,0.0,0.0,0.0,0.0,0.0,-2.8824,-3.28,-3.3294,-3.5194,-3.9787,-3.7939,-3.7577,-4.0034,-3.7006,-3.5303,-3.5819,-3.4485,-3.4087,-3.4816,-3.9686,-4.3661,-4.6676,-4.8233,-4.9359,-5.002,-4.923,-4.8878,-4.8846,-4.7349,-4.5358,-4.2874,-3.8199,-3.5462,-3.3964,-3.13,0.0,0.0,0.0,0.0,0.0,0.0,0.0,0.0,0.0,0.0,0.0,0.0,0.0,0.0,0.0,0.0,0.0,0.0,0.0,0.0,0.0,0.0,0.0,0.0,0.0,0.0,0.0,0.0,0.0,0.0,0.0,0.0,0.0,0.0,0.0,0.0,0.0,0.0,-4.4737,-4.7861,0.0,0.0,0.0,0.0,-4.868,-5.142,-5.345,-5.4228,-5.5649,-5.7171,-5.8693,-5.8761,-5.9167,-5.9945,-5.9979,-6.0013,-6.0047,-6.0047,-6.0047,-5.9979,-5.9979,-5.9573,-5.8829,-5.8829,-5.8017,-5.6528,-5.4262,-5.2435,-5.098,-5.0135,-4.9357,-4.8748,-4.8815,-4.9255,-4.983,0.0,0.0,0.0,0.0,0.0,-2.2263,-2.2912,-2.3729,-2.4679,-2.5955,-2.7995,-3.0346,-3.3032,-3.5334,-3.7499,-3.9629,-4.0197,-4.0223,-3.9734,-3.853,-3.7695,-3.7454,-3.6445,-3.7367,-4.042,-4.323,-4.5847,-4.8332,-4.979,-5.0651,-5.0883,-5.0606,-5.0467,-5.0399,-4.8936,-4.7513,-4.6008,-4.216,-3.8984,-3.6288,-3.4083,-3.1566,0.0,0.0,0.0,0.0,0.0,0.0,0.0,0.0,0.0,0.0,0.0,0.0,0.0,0.0,0.0,0.0,0.0,0.0,0.0,0.0,0.0,0.0,0.0,0.0,0.0,0.0,0.0,0.0,0.0,0.0,0.0,0.0,0.0,0.0,0.0,0.0,0.0,-4.8929,-5.0987,0.0,-5.0193,-5.1564,-5.2673,-5.3112,-5.5106,-5.6664,-5.7408,-5.8863,-6.0148,-6.1163,-6.167,-6.2279,-6.299,-6.299,-6.2753,-6.2313,-6.2313,-6.1806,-6.0858,-6.0858,-6.0182,-5.9032,-5.9032,-5.8423,-5.7408,-5.6156,-5.4735,-5.3315,-5.257,-5.1792,-5.1116,-5.1116,-5.1285,-5.1589,0.0,0.0,0.0,0.0,-2.1545,-2.1954,-2.2613,-2.3789,-2.513,-2.6618,-2.8962,-3.1498,-3.4081,-3.6625,-3.8782,-4.0408,-4.1597,-4.1724,-4.0442,-4.0136,-3.9561,-3.8595,-3.8552,-4.0382,-4.4291,-4.6046,-4.7868,-4.9823,-5.1048,-5.168,-5.168,-5.168,-5.168,-5.1612,-5.0624,-4.9693,-4.8762,-4.6276,-4.2779,-3.8733,-3.6993,-3.4759,-3.2287,0.0,0.0,0.0,0.0,0.0,0.0,0.0,0.0,0.0,0.0,0.0,0.0,0.0,0.0,0.0,0.0,0.0,0.0,0.0,0.0,0.0,0.0,0.0,0.0,0.0,0.0,0.0,0.0,0.0,0.0,0.0,0.0,0.0,0.0,0.0,-5.1115,-5.1614,-5.3871,-5.4941,-5.382,-5.5041,-5.6298,-5.7181,-5.8616,-5.9742,-6.0486,-6.1738,-6.2651,-6.3125,-6.3632,-6.4106,-6.4613,-6.4613,-6.4343,-6.3869,-6.3632,-6.299,-6.2042,-6.1772,-6.0994,-5.9776,-5.9505,-5.8964,-5.822,-5.7476,-5.6461,-5.5277,-5.4532,-5.3754,-5.3078,-5.3078,-5.2909,-5.2773,0.0,0.0,0.0,-2.0569,-2.1246,-2.1954,-2.2613,-2.3819,-2.5322,-2.7315,-2.9325,-3.2098,-3.6014,-3.7091,-3.8864,-4.2204,-4.1884,-4.1725,-4.2426,-4.1749,-4.0718,-3.9448,-4.0779,-4.2932,-4.5881,-4.8034,-4.9856,-5.1348,-5.2078,-5.2409,-5.2409,-5.2409,-5.2409,-5.2409,-5.234,-5.1907,-5.1175,-5.0322,-4.6685,-4.1414,-4.0068,-3.8367,-3.6327,0.0,0.0,0.0,0.0,0.0,0.0,0.0,0.0,0.0,0.0,0.0,0.0,0.0,0.0,0.0,0.0,0.0,0.0,0.0,0.0,0.0,0.0,0.0,0.0,0.0,0.0,0.0,0.0,0.0,0.0,0.0,0.0,0.0,-4.7139,-5.1413,-5.4063,-5.2771,-5.654,-5.8419,-5.6283,-5.8399,-6.0208,-6.0953,-6.1891,-6.2787,-6.3497,-6.4241,-6.4647,-6.4647,-6.4647,-6.4681,-6.4681,-6.4681,-6.4647,-6.4613,-6.3903,-6.3531,-6.3497,-6.2719,-6.2009,-6.1264,-6.0486,-5.9708,-5.8998,-5.822,-5.7509,-5.6799,-5.6055,-5.5277,-5.46,-5.46,-5.4126,-5.3518,0.0,0.0,-1.9899,-2.0569,-2.1246,-2.1954,-2.2613,-2.4178,-2.5704,-2.6746,-3.0253,-3.3276,-3.4876,-3.7803,-3.9803,-4.0239,-4.0591,-4.0861,-4.1012,-3.9856,-3.987,-4.1546,-4.4059,-4.651,-4.8961,-4.9591,-5.0618,-5.2111,-5.231,-5.2409,-5.2409,-5.2409,-5.2409,-5.234,-5.1208,-5.0524,-5.0141,-4.882,-4.6994,-4.4807,-4.3085,-4.1152,-3.905,0.0,0.0,0.0,0.0,0.0,0.0,0.0,0.0,0.0,0.0,0.0,0.0,0.0,0.0,0.0,0.0,0.0,0.0,0.0,0.0,0.0,0.0,0.0,0.0,0.0,0.0,0.0,0.0,0.0,0.0,0.0,0.0,-5.244,-5.244,-5.4059,-5.5951,-5.7707,-5.9006,-6.0023,-6.061,-6.1461,-6.2374,-6.3309,-6.3748,-6.4072,-6.4309,-6.4986,-6.5392,-6.5392,-6.5933,-6.6203,-6.6203,-6.6203,-6.5933,-6.5392,-6.4647,-6.4038,-6.3497,-6.2719,-6.2009,-6.1298,-6.1061,-6.052,-5.9742,-5.8998,-5.8592,-5.8287,-5.7002,-5.5716,-5.46,-5.46,-5.4126,-5.3518,0.0,-1.9241,-1.9828,-2.0198,-2.1066,-2.1814,-2.2224,-2.4178,-2.5944,-2.6871,-3.0552,-3.3425,-3.4414,-3.7298,-3.9169,-3.9031,-3.966,-4.0065,-4.0037,-4.0043,-4.1493,-4.4658,-4.6742,-4.8696,-5.0618,-5.1247,-5.1976,-5.2804,-5.3135,-5.3102,-5.2837,-5.3135,-5.297,-5.2373,-5.1743,-5.1048,-5.0242,-4.8726,-4.7793,-4.7092,-4.509,-4.337,-4.1773,-3.9439,-3.8123,-3.7345,-3.5579,-3.4442,-3.3724,-3.3304,0.0,0.0,0.0,0.0,0.0,0.0,0.0,0.0,0.0,0.0,0.0,0.0,0.0,0.0,0.0,0.0,0.0,0.0,0.0,0.0,0.0,0.0,0.0,0.0,-5.2373,-5.5383,-5.6647,-5.7177,-5.8204,-6.0225,-6.0721,-6.1434,-6.2807,-6.3158,-6.3709,-6.4689,-6.493,-6.5189,-6.5527,-6.5933,-6.617,-6.617,-6.6576,-6.6812,-6.6812,-6.6812,-6.6576,-6.6136,-6.5392,-6.4681,-6.3937,-6.3193,-6.2448,0.0,-6.1434,-6.1028,-6.052,-5.9438,-5.9032,0.0,0.0,0.0,0.0,0.0,-5.4126,-5.3518,0.0,-1.9241,-1.9738,-1.9798,-2.0857,-2.1724,-2.1784,-2.3969,-2.6093,-2.7435,-3.0402,-3.2916,-3.4264,-3.6058,-3.7496,-3.8223,-3.8842,-3.9244,-3.9524,-4.1694,-4.4489,-4.7868,-4.8862,-5.0021,-5.1514,-5.2771,-5.3467,-5.3533,-5.4158,-5.4195,-5.3566,-5.4158,-5.3831,-5.2638,-5.2887,-5.2277,-5.0978,-4.9226,-4.8431,-4.8193,-4.6267,-4.5125,-4.4317,-4.2342,-4.1235,-4.0546,-3.92,-3.7614,-3.6178,-3.6178,0.0,0.0,0.0,0.0,0.0,0.0,0.0,0.0,0.0,0.0,0.0,0.0,0.0,0.0,0.0,0.0,0.0,0.0,0.0,0.0,0.0,0.0,0.0,0.0,-5.5019,-5.7144,-5.9761,-6.0258,-6.0589,-6.1152,-6.1848,-6.2704,-6.3648,-6.3927,-6.4439,-6.5505,-6.5748,-6.6102,-6.6779,0.0,0.0,0.0,0.0,-6.6812,-6.6812,-6.6812,-6.6812,-6.6812,-6.6034,-6.5358,-6.4681,-6.3869,-6.3159,-6.2482,-6.1738,-6.1434,-6.1298,-5.9877,-5.9167,-5.893,-5.8084,-5.7374,-5.663,-5.5141,-5.4194,-5.3619,0.0,-1.9241,-1.9887,-2.0408,-2.1186,-2.1874,-2.2433,-2.4268,-2.6093,-2.7435,-2.9983,-3.2198,-3.3544,-3.4981,-3.6154,-3.686,-3.7011,-3.8004,-4.0166,-4.3905,-4.6643,-4.7934,-4.9823,-5.1512,-5.297,-5.3268,-5.3662,-5.4295,-5.4423,-5.446,-5.4258,-5.4423,-5.4361,-5.3989,-5.1635,-5.0714,-5.0755,-4.7958,-4.6773,-4.6756,-4.6886,-4.6531,-4.5681,-4.3678,-4.2841,-4.2542,-4.1265,-4.0576,-4.0247,-4.0247,-3.9379,-3.8123,-3.7315,0.0,0.0,0.0,0.0,0.0,0.0,0.0,0.0,0.0,0.0,0.0,0.0,0.0,0.0,0.0,0.0,0.0,0.0,0.0,0.0,-5.4125,-5.7541,-6.0258,-6.0821,-6.1914,-6.2477,-6.2013,-6.2652,-6.3511,-6.4628,-6.4747,-6.5295,-6.6458,-6.6567,-6.6643,-6.6812,-6.6812,-6.6812,-6.6812,-6.6812,-6.6812,-6.6812,-6.6812,-6.6812,-6.6812,0.0,0.0,-6.5425,-6.4106,-6.3429,-6.326,-6.2516,-6.2178,-6.211,-6.1231,-6.0114,-5.8896,-5.7543,-5.6934,-5.663,-5.5141,-5.4499,-5.4296,-1.9552,-1.9989,-2.0408,-2.1096,-2.1754,-2.2313,-2.2643,-2.4059,-2.5704,-2.7375,-2.9325,-3.118,-3.2826,-3.3903,-3.4622,-3.4951,-3.5903,-3.8083,-4.1853,-4.4789,-4.7342,-4.9558,-5.0665,-5.1878,-5.3364,-5.3395,-5.3922,-5.5019,-5.5421,-5.5421,-5.5052,-5.5454,-5.5222,-5.4419,-5.2812,-5.1829,-5.124,-4.8921,-4.7455,-4.683,-4.7189,-4.692,-4.616,-4.5173,-4.4366,-4.3708,-4.309,-4.2432,-4.1901,-4.1901,-4.1205,-4.0277,-3.9619,-3.8512,-3.7075,0.0,0.0,0.0,0.0,0.0,0.0,0.0,0.0,0.0,0.0,0.0,0.0,0.0,0.0,-5.0169,0.0,0.0,-5.6514,-5.7641,-5.996,-6.1781,-6.2146,-6.3107,-6.367,-6.3348,-6.3647,-6.4275,-6.5311,-6.5474,-6.5856,-6.6601,-6.6728,-6.6812,-6.6812,-6.6812,-6.6812,-6.6812,-6.6812,-6.6812,-6.6812,-6.6812,-6.6812,-6.6812,-6.644,-6.6068,-6.5662,-6.4918,-6.4208,-6.3497,-6.3125,-6.2753,-6.2347,-6.1603,-6.0385,-5.893,-5.8186,-5.7442,-5.6697,-5.5953,-5.5209,-5.4532,-2.0677,-2.1006,-2.1276,-2.1784,-2.2343,-2.2733,-2.2853,-2.3879,-2.5262,-2.7165,-2.8453,-2.9894,-3.1749,-3.2407,-3.2886,-3.3275,-3.5338,-3.8497,-4.3007,-4.5011,-4.7425,-5.0657,-5.1284,-5.203,-5.3086,-5.3503,-5.4332,-5.5551,-5.6305,-5.6382,-5.5814,-5.6261,-5.5787,-5.4623,-5.4042,-5.3063,-5.1717,-5.0136,-4.8529,-4.713,-4.7399,-4.695,-4.6142,-4.6219,-4.5574,-4.4436,-4.4077,-4.318,-4.2201,-4.2201,-4.1782,-4.1085,-4.0576,-4.0038,-3.914,-3.6776,-3.5968,0.0,0.0,0.0,0.0,0.0,0.0,0.0,0.0,0.0,-4.746,-5.0468,-5.2576,-5.4394,-5.615,-5.7674,-5.9231,-6.102,-6.2047,-6.2851,-6.3405,-6.4067,-6.4498,-6.4399,-6.4498,-6.4884,-6.5746,-6.5965,-6.6182,-6.6464,-6.672,-6.6812,-6.6812,-6.6812,-6.6812,-6.6812,-6.6812,-6.6812,-6.6812,-6.6812,-6.6812,-6.6812,-6.6812,-6.6508,-6.5899,-6.5764,-6.4952,-6.37,-6.3429,-6.2956,-6.2347,-6.1603,-6.0486,-5.9201,-5.9066,-5.8186,-5.7002,-5.6867,-5.6055,-5.4972,0.0,-2.2074,-2.2493,-2.2583,-2.2643,-2.2882,-2.34,-2.4126,-2.5113,-2.6512,-2.7375,-2.8364,-2.9771,-3.0011,-3.0731,-3.2467,-3.5522,-3.864,-4.1624,-4.4955,-4.7458,-4.8936,-5.1634,-5.2785,-5.2091,-5.4215,-5.5357,-5.5304,-5.6264,-5.6647,-5.6581,-5.5836,-5.5377,-5.5134,-5.2858,-5.1791,-5.1524,-4.9987,-4.8175,-4.6531,-4.7698,-4.707,-4.5484,-4.6082,-4.5843,-4.4945,-4.3249,-4.2141,-4.1542,-4.1542,-4.1055,-4.0487,-4.0427,-4.0337,-4.0008,-3.8512,0.0,-3.7285,-3.7644,-3.9801,-4.2516,-4.4819,-4.5827,-4.7781,0.0,0.0,-5.3574,-5.7113,-5.8528,-5.9231,-5.9463,-6.0688,-6.179,-6.2056,-6.3282,-6.4133,-6.4167,-6.4829,-6.5061,-6.4465,-6.4929,-6.5415,-6.578,-6.5965,-6.6182,-6.6464,-6.672,-6.6812,-6.6812,-6.6812,-6.6812,-6.6812,-6.6812,-6.6812,-6.6812,-6.6812,-6.6812,-6.6812,-6.6812,-6.6779,-6.6677,-6.6,-6.5256,-6.441,-6.3091,-6.2482,-6.2347,-6.1603,-6.0791,-5.9911,-5.9268,-5.849,-5.7679,-5.7036,-5.6697,-5.6359,0.0,-2.1954,-2.2373,-2.3071,-2.3221,-2.331,-2.355,-2.3849,-2.4657,-2.6363,-2.6841,-2.7675,-2.9412,-2.9894,-3.0571,-3.1751,-3.4607,-3.7636,-4.0749,-4.3847,-4.6545,-4.8667,-4.9946,-5.1263,-5.2661,-5.3222,-5.4091,-5.5312,-5.6257,-5.6179,-5.5108,-5.5231,-5.5026,-5.4453,-5.2916,-5.2175,-5.213,-5.0894,-4.9045,-4.701,-4.8327,-4.7189,-4.4766,-4.5035,-4.4496,-4.3579,-4.309,-4.2013,0.0,0.0,-4.0636,-4.0397,-4.0397,-4.0127,-3.9709,-3.914,-3.9349,0.0,-4.3069,-4.5061,-4.6915,0.0,-5.0566,-5.228,-5.588,-5.6024,-5.6171,-5.8959,-5.9794,-6.0258,-6.1119,-6.2155,-6.2984,0.0,-6.4332,-6.4962,-6.4962,-6.4862,-6.4697,-6.4399,-6.4266,-6.442,-6.5114,-6.5731,-6.6182,-6.6464,-6.672,-6.6812,-6.6812,-6.6812,-6.6812,-6.6812,-6.6812,-6.6812,-6.6812,-6.6812,-6.6812,-6.6812,-6.6812,-6.6812,-6.6812,-6.6474,-6.5696,-6.4512,-6.3024,-6.2381,-6.2381,-6.2076,-6.1501,-6.0723,-5.9945,-5.9201,-5.8457,-5.7712,-5.7171,-5.6697,0.0,-2.1844,-2.2323,-2.34,-2.361,-2.361,-2.361,-2.361,-2.4268,-2.6093,-2.6303,-2.7021,-2.8843,-2.9774,-3.0446,-3.088,-3.3548,-3.6455,-3.9461,-4.2426,-4.5177,-4.7723,-4.8382,-4.9784,-5.2213,-5.2356,-5.323,-5.5021,-5.5889,-5.5668,-5.4359,-5.4495,-5.42,-5.3545,-5.2651,-5.2108,-5.188,-5.1074,-4.9254,-4.713,-4.8087,-4.68,-4.4287,-4.4067,-4.324,-4.2141,-4.2222,-4.0995,0.0,0.0,-3.92,-3.908,-3.926,-3.911,-3.902,-3.9738,-4.1145,-4.315,-4.6297,0.0,0.0,-5.2422,-5.4195,-5.5819,-5.7276,-5.7608,-5.8104,-5.9926,-6.0456,-6.092,-6.2022,-6.2984,-6.3813,-6.4299,-6.4962,-6.5425,-6.5425,-6.4829,-6.4299,-6.41,-6.3647,-6.36,-6.4348,-6.522,-6.5895,-6.6259,-6.6592,-6.6686,-6.6686,-6.677,-6.6812,-6.6812,-6.6812,-6.6812,-6.6812,-6.6812,-6.6812,-6.6812,-6.6812,-6.6812,-6.6812,-6.6609,-6.5797,-6.4546,-6.326,-6.2584,-6.2381,-6.2381,-6.1975,-6.1231,-6.0419,-5.9641,-5.893,-5.8152,-5.7543,-5.707,0.0,0.0,-2.2882,-2.349,-2.361,-2.361,-2.361,-2.361,-2.4088,-2.5465,-2.5644,-2.6153,-2.7495,-2.8843,-2.9621,-2.9648,-3.2646,-3.5372,-3.7383,-4.0751,-4.3478,-4.5338,-4.7636,-4.9111,-4.9601,-5.2061,-5.3675,-5.4308,-5.5029,-5.5312,-5.5198,-5.3502,-5.2695,-5.2606,-5.1635,-5.087,-5.0212,-4.9629,-4.8177,-4.6309,-4.6339,-4.5574,-4.4257,-4.3559,-4.2551,-4.1235,-3.9978,0.0,0.0,-3.6596,-3.6178,-3.5759,-3.6417,-3.7015,0.0,-4.0576,-4.315,-4.5293,0.0,0.0,-5.1509,-5.3856,-5.6084,-5.8071,-5.9562,-5.9893,-6.0125,-6.092,-6.1616,-6.2155,-6.2221,-6.3415,-6.4365,-6.4365,-6.4962,-6.5425,-6.5425,-6.4829,-6.41,-6.3448,-6.3315,-6.3401,0.0,-6.4281,-6.5057,-6.579,-6.6249,-6.6507,-6.6507,-6.6686,-6.6812,-6.6812,-6.6812,-6.6812,-6.6812,-6.6812,-6.6812,-6.6812,-6.6812,-6.6812,-6.6779,-6.6068,-6.5324,-6.4546,-6.3802,-6.3057,-6.2381,-6.2381,-6.1975,-6.1231,-6.0419,-5.9641,-5.893,-5.8152,-5.7881,-5.7746,0.0,0.0,0.0,-2.34,-2.361,-2.361,-2.361,-2.3999,-2.4575,-2.5495,-2.6782,0.0,0.0,0.0,0.0,0.0,-3.2407,-3.4472,-3.6058,-3.8883,-4.1143,-4.265,-4.4707,-4.6649,-4.8245,-4.9581,-5.0816,-5.1863,-5.2667,-5.2282,-5.066,-5.0617,-5.0057,-4.9082,-4.8729,-4.8506,-4.8267,-4.8057,-4.7339,-4.6249,-4.5813,-4.4855,-4.3559,-4.294,-4.1324,-3.929,0.0,0.0,-3.5759,-3.531,-3.531,-3.5549,-3.5759,0.0,0.0,-4.1153,-4.38,-4.6303,-4.9134,0.0,-5.4573,-5.6861,-5.8336,-5.9529,-6.0523,-6.0721,-6.0655,-6.0423,-6.0191,-6.0158,-6.0655,-6.1152,-6.1947,-6.3405,-6.4266,-6.4895,-6.5359,-6.4796,-6.4067,-6.3372,-6.3315,0.0,0.0,0.0,0.0,-6.6148,-6.6078,-6.6179,-6.6686,-6.677,-6.6812,-6.6812,-6.6812,-6.6812,-6.6812,-6.6812,-6.6812,-6.6812,-6.6812,-6.6812,-6.6779,-6.6034,-6.529,-6.4546,-6.3835,-6.3091,-6.2381,-6.2381,-6.2245,-6.1907,-6.0622,-5.9945,-5.9573,-5.8355,-5.7881,-5.7848,0.0,0.0,0.0,0.0,0.0,0.0,0.0,0.0,0.0,0.0,0.0,0.0,0.0,0.0,0.0,0.0,0.0,-3.3604,-3.4711,-3.6806,-3.8721,-4.0247,-4.1534,-4.3339,-4.5827,-4.6329,-4.7477,-4.9303,-4.9868,-4.9533,-4.8473,-4.867,-4.8243,-4.7309,-4.7309,-4.7189,-4.692,-4.6441,-4.5843,-4.5113,-4.4018,-4.303,-4.2192,-4.1294,-3.9738,0.0,0.0,0.0,-3.5011,-3.4083,-3.4382,-3.519,-3.5429,-3.7524,-4.0321,-4.2591,-4.5303,-4.8387,-5.1957,-5.4388,-5.6501,-5.872,-5.986,-6.0456,-6.0655,-6.0721,-6.0423,-5.9429,-5.8634,-5.8237,-5.8734,-5.8833,-5.9628,-6.2113,-6.3107,-6.4001,-6.5227,-6.4796,-6.4167,-6.3736,-6.3481,-6.3372,0.0,0.0,0.0,-6.5985,-6.5865,-6.5968,-6.6525,-6.6643,-6.6728,-6.6812,-6.6812,-6.6812,-6.6812,-6.6812,-6.6812,-6.6812,-6.6812,-6.6812,-6.6779,-6.6305,-6.5561,-6.458,-6.4106,-6.3328,-6.2381,-6.2381,-6.2381,-6.2279,-6.1028,-6.0351,-5.9945,-5.8727,-5.8118,-5.7881,0.0,0.0,0.0,0.0,0.0,0.0,0.0,0.0,0.0,0.0,0.0,0.0,0.0,0.0,0.0,0.0,0.0,0.0,-3.3395,-3.4681,-3.6237,-3.8093,-3.8272,-3.9592,-4.2335,-4.253,-4.3987,-4.6792,-4.6586,-4.7145,-4.8368,-4.7437,-4.704,-4.701,-4.701,-4.6651,-4.595,-4.4676,-4.3778,-4.3021,-4.1085,-4.0307,-4.0217,-3.8901,0.0,0.0,0.0,0.0,0.0,0.0,0.0,0.0,0.0,0.0,0.0,-4.4849,-4.7747,-5.1381,-5.3963,-5.5718,-5.7323,-5.9564,-6.0622,-6.092,-6.0191,-5.9926,-5.9463,-5.7972,-5.7011,-5.6415,0.0,0.0,-5.7475,-6.0456,-6.1616,-6.2941,-6.5094,-6.4862,-6.4432,0.0,0.0,0.0,0.0,0.0,0.0,-6.5326,0.0,-6.5878,-6.6095,-6.6378,-6.6626,-6.6812,-6.6846,-6.6846,-6.6812,-6.6812,-6.6812,-6.6812,-6.6812,-6.6812,-6.6812,-6.6812,-6.6,-6.4613,-6.4613,-6.3768,-6.2381,-6.2381,-6.2381,-6.2313,-6.1603,-6.0825,-6.0013,-5.9268,-5.8524,-5.7881,0.0,0.0,0.0,0.0,0.0,0.0,0.0,0.0,0.0,0.0,0.0,0.0,0.0,0.0,0.0,0.0,0.0,0.0,-3.2706,-3.3544,-3.4442,-3.5462,-3.6866,-3.8227,-3.9466,-4.0945,-4.2327,-4.3556,-4.3953,-4.4116,-4.3995,-4.3758,-4.3359,-4.288,-4.288,-4.2791,-4.2581,-4.1743,-4.1594,-4.1713,0.0,-3.92,-3.9559,0.0,0.0,0.0,0.0,0.0,0.0,0.0,0.0,0.0,0.0,0.0,-4.5126,0.0,0.0,-5.3375,-5.6148,-5.7978,-5.9556,-6.121,-6.1351,-6.092,-6.0191,-5.9164,-5.7939,-5.6481,-5.4295,-5.2707,0.0,0.0,0.0,-5.8171,-6.0622,0.0,-6.5094,-6.526,0.0,-6.4432,0.0,-6.473,-6.4365,-6.4708,0.0,0.0,-6.5454,-6.5774,-6.6388,-6.7141,-6.7302,-6.6846,-6.7354,-6.7354,-6.6812,-6.6812,-6.6812,-6.6812,-6.6812,-6.6812,-6.6812,-6.6812,-6.6,-6.4613,-6.4613,-6.3768,-6.2381,-6.2381,-6.2381,-6.2313,-6.1603,-6.0825,-6.0013,-5.9268,-5.8524,-5.7881,0.0,0.0,0.0,0.0,0.0,0.0,0.0,0.0,0.0,0.0,0.0,0.0,0.0,0.0,0.0,0.0,0.0,0.0,0.0,-3.2407,-3.2916,-3.3574,-3.4681,-3.5579,-3.6237,-3.7913,-3.911,-3.9805,0.0,0.0,-4.1055,-4.1055,-4.0876,-4.0516,-4.0516,-4.0516,-4.0487,-3.9798,0.0,0.0,0.0,0.0,0.0,0.0,0.0,0.0,0.0,0.0,0.0,0.0,0.0,-4.1228,-4.3957,-4.5984,-4.792,-5.0965,0.0,-5.6246,-5.8567,-6.0067,-6.1152,-6.2022,-6.1384,-6.0191,-5.8469,-5.7177,-5.5686,-5.3268,-5.1214,0.0,0.0,0.0,0.0,0.0,0.0,0.0,-6.4564,-6.5227,-6.526,0.0,-6.5459,0.0,-6.5326,-6.5657,-6.6022,0.0,-6.6079,-6.6109,-6.6675,-6.7564,-6.7805,-6.715,-6.7649,-6.7557,-6.6812,-6.6812,-6.6812,-6.6812,-6.6812,-6.6812,-6.6812,-6.6812,-6.6,-6.4613,0.0,-6.3768,-6.2381,-6.2381,-6.2381,-6.2347,-6.1941,-6.1298,-6.052,-5.9776,-5.9032,-5.8355,0.0,0.0,0.0,0.0,0.0,0.0,0.0,0.0,0.0,0.0,0.0,0.0,0.0,0.0,0.0,0.0,0.0,0.0,0.0,0.0,0.0,-3.2318,-3.2437,-3.2766,-3.3335,-3.4681,-3.5639,-3.6207,0.0,0.0,0.0,0.0,0.0,0.0,0.0,0.0,0.0,0.0,0.0,0.0,0.0,0.0,0.0,0.0,0.0,0.0,0.0,0.0,0.0,0.0,-4.2231,-4.3339,-4.5908,-4.8755,-5.1616,-5.3893,-5.6595,-5.9186,-6.0943,-6.1664,-6.2052,-6.2278,-6.1086,-5.9131,-5.6244,-5.4825,-5.3066,-4.9555,0.0,-4.7538,-4.7473,-4.8795,-5.1115,-5.4688,0.0,-6.0788,-6.3902,-6.4862,-6.5326,-6.5392,-6.6055,-6.6519,-6.6519,-6.6618,-6.6916,-6.7533,-6.7115,-6.6875,-6.7045,-6.7937,-6.8227,-6.7752,-6.7732,-6.7455,-6.6812,-6.6812,-6.6812,-6.6812,-6.6812,-6.6812,-6.6812,-6.6812,-6.6068,-6.4749,-6.4647,0.0,-6.2516,-6.2415,-6.2381,-6.2381,-6.2381,-6.1941,-6.1197,-6.0385,-5.9641,-5.8896,0.0,0.0,0.0,0.0,0.0,0.0,0.0,0.0,0.0,0.0,-3.0552,-3.0342,0.0,0.0,0.0,0.0,0.0,0.0,0.0,0.0,0.0,-3.166,-3.2198,-3.2557,-3.2677,0.0,0.0,0.0,0.0,0.0,0.0,0.0,0.0,0.0,0.0,0.0,0.0,0.0,0.0,0.0,0.0,0.0,0.0,0.0,0.0,0.0,0.0,0.0,0.0,0.0,-4.4127,-4.6029,-4.8309,-5.1087,-5.3956,-5.6252,-5.8066,-5.9859,-6.2296,-6.1917,-6.1217,-6.2736,-6.1053,-5.8469,-5.6112,-5.3665,0.0,0.0,0.0,-4.5096,-4.456,-4.6618,0.0,-5.3202,0.0,0.0,0.0,0.0,-6.4763,0.0,0.0,0.0,0.0,0.0,0.0,0.0,0.0,-6.8135,-6.7799,-6.8705,-6.8965,-6.8526,-6.753,-6.6948,-6.6812,-6.6812,-6.6812,-6.6812,-6.6812,-6.6812,-6.6812,-6.6812,-6.6339,-6.5459,-6.485,0.0,-6.326,-6.2651,-6.2381,-6.2381,-6.2381,-6.1941,-6.1197,-6.0385,-5.9641,-5.8896,0.0,0.0,0.0,0.0,0.0,0.0,0.0,0.0,-2.8189,-3.0927,-3.1308,-3.1385,-3.1542,-3.1511,0.0,0.0,0.0,0.0,0.0,0.0,0.0,0.0,0.0,-3.1959,0.0,0.0,0.0,0.0,0.0,0.0,0.0,0.0,0.0,0.0,0.0,0.0,0.0,0.0,0.0,0.0,0.0,0.0,0.0,0.0,0.0,0.0,0.0,0.0,0.0,0.0,-4.3021,-4.5777,-4.8564,-5.1599,-5.4432,-5.6262,-5.8397,-6.0574,-6.2725,-6.2245,-6.1418,-6.2461,-6.049,-5.7442,-5.4129,0.0,0.0,0.0,0.0,-4.3604,-4.3637,0.0,0.0,0.0,0.0,0.0,0.0,0.0,0.0,0.0,0.0,0.0,0.0,0.0,0.0,0.0,0.0,-6.8586,-6.8393,-6.8557,-6.845,-6.7947,-6.7088,-6.6643,-6.6643,-6.6728,-6.6812,-6.6812,-6.6812,-6.6812,-6.6812,-6.6812,-6.6406,-6.5662,-6.5324,0.0,-6.3497,-6.3125,-6.2753,-6.2381,-6.2381,-6.2178,-6.1772,-6.0994,-6.025,-5.9471,0.0,0.0,0.0,0.0,0.0,0.0,0.0,-2.6541,-2.8639,-3.1199,-3.1774,-3.2227,-3.2994,-3.2228,-3.1634,0.0,0.0,0.0,0.0,0.0,0.0,0.0,0.0,0.0,0.0,0.0,0.0,0.0,0.0,0.0,0.0,0.0,0.0,0.0,0.0,0.0,0.0,0.0,0.0,0.0,0.0,0.0,0.0,0.0,0.0,0.0,0.0,0.0,0.0,0.0,-4.1354,-4.3808,-4.701,-5.0506,-5.3659,-5.5138,-5.7427,-6.0052,-6.2233,-6.2014,-6.1291,-6.1857,-5.9628,-5.6249,-5.2243,-4.9341,0.0,0.0,-4.2834,-4.271,-4.3082,0.0,0.0,0.0,0.0,0.0,0.0,0.0,0.0,0.0,0.0,0.0,0.0,0.0,0.0,0.0,0.0,0.0,-6.8705,-6.8286,-6.778,-6.7234,-6.6791,-6.655,-6.655,-6.6728,-6.6812,-6.6812,-6.6812,-6.6812,-6.6812,-6.6812,-6.6474,-6.5933,-6.5764,0.0,0.0,-6.3599,-6.3057,-6.2381,-6.2381,-6.2381,-6.2313,-6.1569,-6.0791,-5.9979,0.0,0.0,0.0,0.0,0.0,0.0,0.0,-2.6601,-2.8972,-3.2513,-3.205,-3.2297,-3.4674,-3.3322,-3.2034,0.0,0.0,0.0,0.0,0.0,0.0,0.0,0.0,0.0,0.0,0.0,0.0,0.0,0.0,0.0,0.0,0.0,0.0,0.0,0.0,0.0,0.0,0.0,0.0,0.0,0.0,0.0,0.0,0.0,0.0,0.0,0.0,0.0,0.0,0.0,0.0,-4.0337,-4.309,-4.7209,-5.1313,-5.2913,0.0,0.0,-6.0345,-6.0344,-5.9607,-6.0886,-5.8502,-5.5024,-5.1976,0.0,0.0,-4.2265,-4.2173,-4.2428,-4.1819,-4.3455,0.0,0.0,0.0,-5.403,0.0,0.0,0.0,0.0,0.0,0.0,0.0,0.0,0.0,0.0,0.0,0.0,-6.8738,-6.8423,-6.7926,-6.7234,-6.6929,-6.677,-6.677,-6.677,-6.6812,-6.6812,-6.6812,-6.6812,-6.6812,-6.6812,-6.6779,-6.6677,-6.6,0.0,0.0,-6.3802,-6.3057,-6.2381,-6.2381,-6.2381,-6.2313,-6.1569,-6.0791,-5.9979,0.0,0.0,0.0,0.0,0.0,0.0,0.0,-2.6206,-2.8245,-3.1469,-3.1406,-3.1667,-3.3096,-3.2967,-3.2594,0.0,0.0,0.0,0.0,0.0,0.0,0.0,0.0,0.0,0.0,0.0,0.0,0.0,0.0,0.0,0.0,0.0,0.0,0.0,0.0,0.0,0.0,0.0,0.0,0.0,0.0,0.0,0.0,0.0,0.0,0.0,0.0,0.0,0.0,0.0,0.0,0.0,-4.0187,-4.256,0.0,0.0,-5.2758,-5.5191,-5.8605,-5.8855,-5.8436,-5.9307,-5.7135,-5.3863,-5.071,0.0,-4.4503,-4.2034,-4.1722,-4.1981,-4.211,-4.3186,-4.4854,-4.7371,-4.8133,-5.0088,0.0,0.0,0.0,0.0,0.0,0.0,0.0,0.0,0.0,0.0,0.0,0.0,-6.8109,-6.7962,-6.74,-6.6378,-6.635,-6.6473,-6.6635,-6.6728,-6.6812,-6.6812,-6.6812,-6.6812,-6.6812,-6.6812,-6.6812,-6.6779,-6.6508,0.0,0.0,-6.4275,-6.3463,-6.2381,-6.2381,-6.2381,-6.2347,-6.2076,-6.1467,-6.0723,0.0,0.0,0.0,0.0,0.0,-2.2923,-2.4465,-2.5855,-2.7609,-3.0137,-3.0477,-3.0877,-3.1928,-3.2546,-3.2867,-3.2756,0.0,0.0,0.0,0.0,0.0,0.0,0.0,0.0,0.0,0.0,0.0,0.0,0.0,0.0,0.0,0.0,0.0,0.0,0.0,0.0,0.0,0.0,0.0,0.0,0.0,0.0,0.0,0.0,0.0,0.0,0.0,0.0,0.0,0.0,0.0,0.0,0.0,0.0,0.0,0.0,-5.0009,-5.2497,-5.5996,-5.6672,-5.6621,-5.7366,-5.5325,-5.237,0.0,0.0,-4.3591,-4.1604,-4.1194,-4.1426,-4.2142,-4.2834,-4.3948,-4.5916,-4.6344,-4.8001,-5.2473,0.0,0.0,0.0,0.0,0.0,0.0,0.0,0.0,0.0,0.0,0.0,0.0,-6.7367,-6.6808,-6.5813,-6.6086,-6.6302,-6.6507,-6.6686,-6.6812,-6.6812,-6.6812,-6.6812,-6.6812,-6.6812,-6.6812,-6.6812,-6.6812,0.0,0.0,-6.4681,-6.3869,-6.2685,-6.2482,-6.2381,-6.2381,-6.2381,-6.1941,-6.1231,0.0,0.0,0.0,0.0,0.0,0.0,0.0,-2.5563,-2.7347,-2.91,-2.9336,-3.0015,-3.1893,-3.2298,-3.2686,-3.3318,0.0,0.0,0.0,0.0,0.0,0.0,0.0,0.0,0.0,0.0,-3.6118,-3.7375,-3.7404,0.0,0.0,0.0,0.0,0.0,0.0,0.0,0.0,0.0,0.0,0.0,0.0,0.0,0.0,0.0,0.0,0.0,0.0,0.0,0.0,0.0,0.0,0.0,0.0,0.0,0.0,0.0,-4.5991,-4.8235,-5.2104,-5.3446,-5.3965,-5.5053,-5.3125,-5.0429,0.0,-4.5172,-4.215,-4.079,-4.0512,-4.0718,-4.1393,-4.211,-4.3062,-4.4497,-4.6543,-4.9028,-5.1976,0.0,0.0,0.0,0.0,0.0,0.0,0.0,0.0,0.0,0.0,0.0,0.0,-6.6916,-6.6277,-6.5813,-6.6249,-6.6507,-6.6507,-6.6686,-6.6812,-6.6812,-6.6812,-6.6812,-6.6812,-6.6812,-6.6812,0.0,0.0,0.0,0.0,-6.4884,-6.4174,-6.3429,-6.2685,-6.2381,-6.2381,-6.2381,-6.1941,-6.1298,0.0,0.0,0.0,0.0,0.0,0.0,0.0,-2.5249,-2.6582,-2.7915,-2.8412,-2.9066,-3.0077,-3.0999,-3.1668,-3.1875,0.0,0.0,0.0,0.0,0.0,0.0,0.0,0.0,0.0,0.0,-3.7225,-3.8093,-3.8542,-3.8901,-3.908,-3.8392,0.0,0.0,0.0,0.0,0.0,0.0,0.0,0.0,0.0,0.0,0.0,0.0,0.0,0.0,0.0,0.0,0.0,0.0,0.0,0.0,0.0,0.0,0.0,-3.9833,0.0,0.0,-4.8161,-4.9297,-4.9995,-5.0071,-4.8644,-4.6835,-4.5405,-4.3416,-4.1484,-4.0026,-4.0161,-4.0718,-4.1393,-4.2078,-4.3551,-4.6481,-4.7537,0.0,0.0,0.0,0.0,0.0,0.0,0.0,0.0,0.0,0.0,0.0,0.0,0.0,0.0,-6.6651,-6.6277,-6.5813,-6.5911,-6.6206,-6.6507,-6.655,-6.6643,-6.6812,-6.6812,-6.6812,-6.6812,-6.6812,0.0,0.0,0.0,0.0,0.0,-6.4681,-6.3869,-6.2719,-6.2482,-6.2381,-6.2381,-6.2381,-6.2245,-6.1975,0.0,0.0,0.0,0.0,0.0,0.0,0.0,-2.4909,-2.5903,-2.7053,-2.7523,-2.808,-2.8891,-3.0111,-3.0996,-3.1178,0.0,0.0,0.0,0.0,0.0,0.0,0.0,0.0,-3.6447,-3.7105,-3.7853,-3.8781,-3.9469,-3.9798,-3.9768,-3.9349,-3.8871,-3.8362,0.0,0.0,0.0,0.0,0.0,0.0,0.0,0.0,0.0,0.0,0.0,0.0,0.0,0.0,0.0,0.0,0.0,0.0,0.0,0.0,0.0,0.0,-4.0068,-4.3088,0.0,-4.6048,-4.6816,-4.6914,-4.5791,-4.4403,-4.3476,-4.2186,-4.0806,-3.9667,-3.9773,-4.0374,-4.1327,-4.1884,-4.3009,-4.5537,-4.6648,0.0,0.0,0.0,0.0,0.0,0.0,0.0,0.0,0.0,0.0,0.0,0.0,0.0,0.0,-6.6254,-6.5934,-6.5647,-6.5736,-6.5911,-6.6249,-6.6421,-6.655,-6.6686,-6.677,-6.6812,-6.6812,-6.6812,0.0,0.0,0.0,0.0,0.0,-6.441,-6.3632,-6.2787,-6.2516,-6.2381,-6.2381,-6.2381,-6.2381,-6.2313,0.0,0.0,0.0,0.0,0.0,0.0,0.0,0.0,0.0,-2.651,-2.6667,-2.7138,-2.8237,-2.9522,-3.0492,0.0,0.0,0.0,0.0,0.0,0.0,0.0,0.0,0.0,-3.6507,-3.7105,-3.8063,-3.9373,-4.0068,-4.0397,-4.0397,-4.0457,-3.9768,-3.8542,-3.8422,0.0,0.0,0.0,0.0,0.0,0.0,0.0,0.0,0.0,0.0,0.0,0.0,0.0,0.0,0.0,0.0,0.0,0.0,0.0,0.0,0.0,0.0,0.0,0.0,-4.3379,0.0,0.0,-4.404,-4.2896,-4.2487,-4.1316,0.0,-3.9559,-3.9373,-3.9839,-4.1286,-4.1521,-4.1815,-4.2783,0.0,0.0,0.0,0.0,0.0,0.0,0.0,0.0,0.0,0.0,0.0,0.0,0.0,0.0,0.0,-6.579,-6.5425,-6.5425,-6.5647,-6.578,-6.578,-6.6249,-6.6464,-6.6507,-6.6686,-6.6812,-6.6812,-6.6812,0.0,0.0,0.0,0.0,0.0,-6.4106,-6.3497,-6.3362,-6.2651,-6.2381,-6.2381,-6.2381,-6.2381,-6.2381,0.0,0.0,0.0,0.0,0.0,0.0,0.0,0.0,0.0,0.0,-2.6399,-2.6948,-2.7654,-2.882,-2.9583,0.0,0.0,0.0,0.0,0.0,0.0,0.0,0.0,0.0,-3.7165,-3.7345,-3.8063,-3.9373,-4.0068,-4.0397,-4.0397,-4.0905,-4.0696,-3.9888,-3.8841,-3.7943,0.0,0.0,0.0,0.0,0.0,0.0,0.0,0.0,0.0,0.0,0.0,0.0,0.0,0.0,0.0,0.0,0.0,0.0,0.0,0.0,-3.6686,-3.7195,-3.8452,0.0,-4.0494,-4.0142,-4.0214,-4.0284,0.0,-3.9884,-3.9619,-3.9403,-3.9373,-3.9962,-4.1837,-4.1767,-4.2544,0.0,0.0,0.0,0.0,0.0,0.0,0.0,0.0,0.0,0.0,0.0,0.0,0.0,0.0,0.0,0.0,-6.5492,-6.5425,-6.5425,-6.547,-6.5603,-6.578,-6.6086,-6.6302,-6.6507,-6.6686,-6.6812,-6.6812,-6.6812,-6.6812,0.0,0.0,0.0,-6.4783,-6.3903,-6.3193,-6.2618,-6.2448,-6.2381,-6.2381,-6.2381,-6.2381,-6.2302,0.0,0.0,0.0,0.0,0.0,0.0,0.0,0.0,0.0,0.0,0.0,0.0,0.0,0.0,0.0,0.0,0.0,0.0,0.0,0.0,0.0,0.0,0.0,-3.54,-3.7375,-3.7404,-3.8362,-4.0307,-4.0666,-4.0995,-4.1294,-4.1354,-4.1025,-4.0337,-3.8691,-3.7913,0.0,0.0,0.0,0.0,0.0,0.0,0.0,0.0,0.0,0.0,-3.4653,-3.4983,0.0,-3.6596,-3.7135,-3.7345,0.0,0.0,0.0,0.0,-3.6028,-3.6118,-3.6447,-3.7943,-3.932,-3.896,-3.9379,-3.9858,-3.9858,-3.9649,-3.9373,0.0,0.0,0.0,0.0,0.0,0.0,0.0,0.0,0.0,0.0,0.0,0.0,0.0,0.0,0.0,0.0,0.0,0.0,0.0,0.0,0.0,0.0,-6.5425,-6.5425,-6.5425,-6.5425,-6.547,-6.5603,-6.5867,-6.6086,-6.6302,-6.6558,-6.6686,-6.6812,-6.6812,-6.6812,0.0,0.0,0.0,-6.4512,-6.3429,-6.2753,-6.2381,-6.2381,-6.2381,-6.2341,-6.1911,-6.203,-6.2223,0.0,0.0,0.0,0.0,0.0,0.0,0.0,0.0,0.0,0.0,0.0,0.0,0.0,0.0,0.0,0.0,0.0,0.0,0.0,0.0,0.0,0.0,-3.5011,-3.5489,-3.7375,-3.7404,-3.8601,-4.1085,-4.1294,-4.1692,-4.2231,-4.1833,-4.1175,-4.0187,-3.8482,-3.7913,0.0,0.0,0.0,0.0,0.0,0.0,0.0,0.0,0.0,0.0,0.0,0.0,0.0,-3.6387,-3.7165,-3.7375,-3.7195,0.0,0.0,0.0,0.0,0.0,-3.5759,-3.7584,-3.9343,-3.917,-3.9768,-4.0367,-4.0277,0.0,0.0,0.0,0.0,0.0,0.0,-4.2993,0.0,0.0,0.0,0.0,0.0,0.0,0.0,0.0,0.0,0.0,0.0,0.0,0.0,0.0,0.0,0.0,0.0,-6.5425,-6.5425,-6.5425,-6.5425,-6.5425,-6.5425,-6.5647,-6.5911,-6.6095,-6.6345,-6.6635,-6.6812,-6.6812,-6.6812,-6.6745,0.0,0.0,-6.4478,-6.299,-6.2381,-6.2381,-6.2381,-6.2302,-6.207,-6.1309,-6.1432,-6.175,0.0,0.0,0.0,0.0,0.0,0.0,0.0,0.0,0.0,0.0,0.0,0.0,0.0,0.0,0.0,0.0,0.0,0.0,0.0,0.0,0.0,-3.6324,-3.5699,-3.5998,-3.7375,-3.7404,-3.8182,-3.9738,-4.0846,-4.1482,-4.1602,-4.2551,-4.1765,-3.9559,-3.926,-3.8542,-3.7584,0.0,0.0,0.0,0.0,0.0,0.0,0.0,0.0,0.0,0.0,0.0,0.0,-3.4863,-3.6028,-3.7225,-3.6148,0.0,0.0,0.0,0.0,0.0,-3.6836,-3.8242,-3.914,-3.8003,-3.908,-4.0247,-3.9709,-3.9463,0.0,0.0,0.0,0.0,0.0,0.0,0.0,0.0,0.0,0.0,0.0,0.0,0.0,0.0,0.0,0.0,0.0,0.0,0.0,0.0,0.0,0.0,0.0,-6.5425,-6.5425,-6.5425,-6.5425,-6.5425,-6.5425,-6.5647,-6.5911,-6.6095,-6.6345,-6.6635,-6.6812,-6.6812,-6.6812,-6.6745,0.0,-6.4613,-6.4478,-6.299,-6.2381,-6.2381,-6.2381,-6.1911,-6.1193,-6.1028,-6.0609,-5.9979,0.0,0.0,0.0,0.0,0.0,0.0,0.0,0.0,0.0,0.0,0.0,0.0,0.0,0.0,0.0,0.0,0.0,0.0,0.0,0.0,0.0,-3.746,-3.6896,-3.6806,-3.7404,-3.8123,-3.914,-4.0487,-4.1482,-4.2102,-4.2432,-4.2312,-4.1055,-3.8871,-3.8871,-3.8332,-3.7464,-3.8123,0.0,0.0,0.0,0.0,0.0,0.0,0.0,0.0,0.0,0.0,0.0,0.0,-3.5639,-3.6327,-3.6118,0.0,0.0,0.0,0.0,0.0,-3.6207,-3.7584,-3.8721,-3.8093,-4.0008,-4.1923,-4.1586,-4.1496,0.0,0.0,0.0,0.0,0.0,0.0,0.0,0.0,0.0,0.0,0.0,0.0,0.0,0.0,0.0,0.0,0.0,0.0,0.0,0.0,0.0,0.0,0.0,0.0,-6.5425,-6.5425,-6.5425,-6.5425,-6.5425,-6.5647,-6.5911,-6.6095,-6.6225,-6.6473,-6.6812,-6.6812,-6.6576,-6.6136,0.0,-6.4377,-6.3937,-6.2821,-6.2381,-6.2381,-6.2381,-6.183,-6.0945,-6.044,-5.9323,-5.8133,0.0,0.0,0.0,0.0,0.0,0.0,0.0,0.0,0.0,0.0,0.0,0.0,0.0,0.0,0.0,0.0,0.0,0.0,0.0,0.0,-3.6422,-3.7842,-3.7719,-3.7704,-3.7883,-3.8901,-4.0068,-4.1422,-4.2081,-4.2701,-4.326,-4.2162,-4.0636,-3.8871,-3.8871,-3.8392,-3.7674,-3.8362,-3.8931,0.0,0.0,0.0,0.0,0.0,0.0,0.0,0.0,0.0,0.0,0.0,0.0,0.0,0.0,0.0,0.0,-3.5699,-3.54,-3.537,-3.5818,-3.7015,-3.8272,-3.8751,-4.0786,-4.2791,-4.32,-4.317,-4.309,0.0,0.0,0.0,0.0,0.0,0.0,0.0,0.0,0.0,0.0,0.0,0.0,0.0,0.0,0.0,0.0,0.0,0.0,0.0,0.0,0.0,0.0,0.0,-6.5425,-6.5425,-6.5425,-6.5425,-6.5425,-6.5603,-6.5824,-6.6009,-6.6139,-6.6388,-6.6728,-6.6601,-6.6237,-6.5628,-6.4749,-6.4038,-6.3463,-6.2685,-6.2263,-6.207,-6.207,-6.1391,-6.0237,-5.9543,-5.8226,-5.6906,0.0,0.0,0.0,0.0,0.0,0.0,0.0,0.0,0.0,0.0,0.0,0.0,0.0,0.0,0.0,0.0,0.0,0.0,0.0,0.0,-3.4982,-3.6393,-3.7653,-3.8631,-3.9224,-3.9343,-4.0068,-4.1422,-4.2081,-4.2701,-4.329,-4.2611,-4.1602,-4.0247,-4.0247,-3.9529,-3.8362,-3.905,-3.9379,-3.9254,0.0,0.0,0.0,0.0,0.0,0.0,0.0,0.0,0.0,0.0,0.0,0.0,0.0,0.0,-3.6357,-3.5699,-3.504,-3.4983,-3.6776,-3.7375,-3.7913,-3.9798,-4.0427,-4.1085,-4.2871,-4.288,-4.298,-4.4706,0.0,0.0,0.0,0.0,0.0,0.0,0.0,0.0,0.0,0.0,0.0,0.0,0.0,0.0,0.0,0.0,0.0,0.0,0.0,0.0,0.0,0.0,0.0,-6.5425,-6.5425,-6.5425,-6.5425,-6.5425,-6.5559,-6.5824,-6.6292,-6.6507,-6.6473,-6.6019,-6.573,-6.5595,-6.4208,-6.3565,-6.3463,-6.2685,-6.1911,-6.1069,-6.1069,-5.9979,-5.8363,-5.8349,-5.7653,-5.681,0.0,0.0,0.0,0.0,0.0,0.0,0.0,0.0,0.0,0.0,0.0,0.0,0.0,0.0,0.0,0.0,0.0,0.0,0.0,-3.3143,-3.4667,-3.6896,-3.7506,-3.8093,-3.8751,-4.0008,-4.1085,-4.2021,-4.2641,-4.288,-4.2731,-4.2111,-4.1055,-3.9798,-3.9798,-3.926,-3.8422,-3.914,-3.9373,-3.9254,-3.7943,0.0,0.0,0.0,0.0,0.0,0.0,0.0,0.0,0.0,-3.3484,-3.4262,-3.4262,-3.5011,-3.5759,-3.507,-3.4713,-3.4773,-3.5908,-3.7105,-3.8302,-3.9499,-4.1025,-4.2602,0.0,-4.5334,-4.6424,-4.7562,-4.8218,0.0,0.0,0.0,0.0,0.0,0.0,0.0,0.0,0.0,0.0,0.0,0.0,0.0,0.0,0.0,0.0,0.0,0.0,0.0,0.0,0.0,0.0,-6.5425,-6.5425,-6.5425,-6.5425,-6.5559,-6.5404,-6.4972,-6.5711,-6.6014,-6.58,-6.5581,-6.5065,-6.4309,-6.3768,-6.326,-6.2787,-6.2516,-6.187,-6.0903,-5.9718,-5.8818,-5.8119,-5.7543,-5.7115,-5.6761,0.0,0.0,0.0,0.0,0.0,0.0,0.0,0.0,0.0,0.0,0.0,0.0,0.0,0.0,0.0,0.0,0.0,0.0,-3.1095,-3.2115,-3.3705,-3.6006,-3.6539,-3.7315,-3.8362,-3.9948,-4.1175,-4.2081,-4.2701,-4.2701,-4.2081,-4.1422,-4.0696,-4.0008,-3.9619,-3.926,-3.902,-3.908,-3.908,-3.899,-3.7644,-3.7135,0.0,0.0,0.0,0.0,0.0,0.0,0.0,0.0,-3.2796,-3.3275,-3.3664,-3.4442,-3.507,-3.4653,-3.4803,-3.522,-3.5699,-3.7075,-3.8661,-3.9768,0.0,0.0,-4.5484,-4.698,-4.8386,-4.9928,-5.0335,-5.0511,-5.0703,0.0,0.0,0.0,0.0,0.0,0.0,0.0,0.0,0.0,0.0,0.0,0.0,0.0,0.0,0.0,0.0,0.0,0.0,0.0,0.0,0.0,-6.4862,-6.473,-6.473,-6.4939,-6.4717,-6.4165,-6.4794,-6.5063,-6.4942,-6.4749,-6.4274,-6.3497,-6.326,-6.2854,-6.2381,-6.207,-6.1235,-5.9979,-5.8683,-5.8026,-5.77,-5.7353,-5.7019,-5.6761,0.0,0.0,0.0,0.0,0.0,0.0,0.0,0.0,0.0,0.0,0.0,0.0,0.0,0.0,0.0,0.0,0.0,0.0,-2.842,-3.0288,-3.1954,-3.3262,-3.4706,-3.6387,-3.8332,-3.905,-4.0068,-4.1422,-4.2081,-4.2051,-4.1392,-4.0696,-4.0756,-4.1294,-4.0008,-3.9768,-4.0277,-3.8931,-3.8392,-3.8272,-3.6985,-3.6477,0.0,0.0,0.0,0.0,0.0,0.0,0.0,0.0,-3.2467,-3.2736,-3.4053,-3.4503,-3.4503,-3.4503,-3.5462,-3.6477,-3.6477,-3.7404,-3.8871,-4.0913,0.0,0.0,-4.6561,-4.7309,-4.8237,-5.1528,-5.1169,-5.0196,-5.0196,0.0,0.0,0.0,0.0,0.0,0.0,0.0,0.0,0.0,0.0,0.0,0.0,0.0,0.0,0.0,0.0,0.0,0.0,0.0,0.0,0.0,-6.3713,-6.3315,-6.3315,-6.3315,-6.3401,-6.3615,-6.3615,-6.3709,-6.3886,-6.343,-6.3296,-6.3463,-6.2719,-6.2381,-6.2341,-6.1391,-5.9892,-5.8211,-5.8211,-5.7637,-5.6906,-5.784,-5.7559,-5.6761,0.0,0.0,0.0,0.0,0.0,0.0,0.0,0.0,0.0,0.0,0.0,0.0,0.0,0.0,0.0,0.0,0.0,0.0,-2.9114,-2.9711,-3.1071,-3.3317,-3.3868,-3.4794,-3.6327,-3.7913,-3.9589,-4.1422,-4.1115,-4.0876,-4.0696,-4.0487,-4.0008,-3.929,-3.9379,-3.899,-3.8272,-3.7883,-3.7704,-3.7644,-3.6806,-3.6477,0.0,0.0,0.0,0.0,0.0,0.0,0.0,0.0,0.0,0.0,-3.2976,-3.4053,-3.5011,-3.4053,-3.4741,-3.5789,-3.5789,-3.7434,0.0,-4.0995,0.0,0.0,0.0,-4.8356,0.0,0.0,-5.3176,-5.2566,-5.2582,0.0,0.0,0.0,0.0,0.0,0.0,0.0,0.0,0.0,0.0,0.0,0.0,0.0,0.0,0.0,0.0,0.0,0.0,0.0,0.0,0.0,-6.3415,-6.3315,-6.3315,-6.3315,-6.305,-6.2638,-6.2731,-6.3024,-6.3321,-6.3201,-6.2993,-6.2719,-6.2482,-6.2381,-6.2263,-6.0694,-5.9674,-5.9056,-5.7746,-5.705,-5.681,-5.6875,-5.673,-5.647,0.0,0.0,0.0,0.0,0.0,0.0,0.0,0.0,0.0,0.0,-2.749,-2.749,0.0,0.0,0.0,0.0,0.0,0.0,0.0,-2.8957,-3.0201,-3.2618,-3.297,-3.4097,-3.6204,-3.7404,-3.8721,-4.0187,-4.0068,-3.9738,-3.92,-3.9469,-3.932,-3.8811,-3.923,-3.8811,-3.7793,-3.7524,-3.7105,-3.6626,-3.6237,-3.6088,-3.5908,0.0,0.0,0.0,0.0,0.0,0.0,0.0,0.0,0.0,-3.2437,-3.3335,-3.4262,-3.3963,-3.5011,-3.6387,-3.6926,-3.8781,0.0,-4.2551,-4.4945,-4.7279,-4.8745,0.0,0.0,0.0,0.0,-5.3097,0.0,0.0,0.0,0.0,0.0,0.0,0.0,0.0,0.0,0.0,0.0,0.0,0.0,0.0,0.0,0.0,0.0,0.0,0.0,0.0,0.0,0.0,-6.2577,-6.2411,-6.2411,-6.2411,-6.2221,-6.1883,-6.2091,-6.2338,-6.267,-6.267,-6.2554,-6.2381,-6.2381,-6.2183,-6.175,-6.0194,-5.9367,-5.8908,-5.7401,-5.681,-5.6761,-5.6519,-5.6421,-5.6323,0.0,0.0,0.0,0.0,0.0,0.0,0.0,0.0,0.0,0.0,-2.749,-2.749,0.0,0.0,0.0,0.0,0.0,0.0,0.0,0.0,-2.9323,-3.1396,-3.2375,-3.4309,-3.74,-3.7434,-3.7704,-3.8302,-3.8871,-3.8542,-3.7434,-3.8093,-3.8691,-3.9194,-3.9254,-3.8871,-3.8093,-3.7434,-3.6447,-3.534,-3.534,-3.534,-3.519,-3.3903,0.0,0.0,0.0,0.0,0.0,0.0,0.0,0.0,-3.2288,-3.2557,-3.2826,-3.3994,-3.5729,-3.7614,-3.8901,-4.0726,0.0,-4.4855,-4.6052,0.0,-4.9717,-5.1259,-5.2127,0.0,0.0,0.0,0.0,0.0,0.0,0.0,0.0,0.0,0.0,0.0,0.0,0.0,0.0,0.0,0.0,0.0,0.0,0.0,0.0,0.0,0.0,0.0,0.0,-6.2089,-6.145,-6.1119,-6.1119,-6.1119,-6.121,-6.1383,-6.1588,-6.179,-6.1997,-6.2037,-6.215,-6.2341,-6.2302,-6.1756,-6.0903,-5.9892,-5.8953,-5.8119,-5.7163,-5.681,-5.6761,-5.6519,-5.6372,-5.6274,0.0,0.0,0.0,0.0,0.0,0.0,0.0,0.0,0.0,0.0,0.0,0.0,0.0,0.0,0.0,0.0,0.0,0.0,0.0,0.0,-2.8858,-3.1396,-3.4171,-3.6432,-3.8153,-3.7674,-3.7494,-3.7614,-3.7285,-3.7225,-3.7434,-3.8093,-3.8182,-3.7853,-3.8392,-3.7674,-3.6088,-3.54,-3.4651,-3.3933,-3.3933,-3.3933,-3.3844,-3.3036,-3.2736,0.0,0.0,0.0,0.0,0.0,0.0,0.0,-3.2288,-3.2856,-3.3245,-3.3006,-3.4711,-3.6866,-3.7614,-3.9679,0.0,0.0,-4.7714,-4.9628,-5.075,-5.1229,0.0,0.0,0.0,0.0,0.0,0.0,0.0,0.0,0.0,0.0,0.0,0.0,0.0,0.0,0.0,0.0,0.0,0.0,0.0,0.0,0.0,0.0,0.0,0.0,0.0,-6.1318,-6.1185,-6.1119,-6.1119,-6.1119,-6.121,0.0,-6.1424,-6.1669,-6.1997,-6.2229,-6.2229,-6.2037,-6.1554,-6.1069,-6.0576,-5.91,-5.8395,-5.8119,-5.7163,-5.681,-5.6761,-5.6519,-5.6274,-5.6028,0.0,0.0,0.0,0.0,0.0,0.0,0.0,0.0,0.0,0.0,0.0,0.0,0.0,0.0,0.0,0.0,0.0,0.0,0.0,-2.749,-2.8692,-3.1364,-3.4351,-3.6259,-3.7015,-3.6686,-3.6507,-3.6507,-3.5848,-3.6028,-3.6985,-3.7943,-3.8392,-3.8392,-3.8721,-3.7793,-3.5938,-3.525,-3.4233,-3.3066,-3.3365,-3.3484,-3.3425,-3.2766,-3.2527,-3.2407,-3.175,0.0,0.0,0.0,0.0,0.0,0.0,0.0,-3.2617,-3.2886,-3.4203,-3.5938,-3.7853,0.0,0.0,-4.6741,0.0,0.0,0.0,0.0,0.0,0.0,0.0,0.0,0.0,0.0,0.0,0.0,0.0,0.0,0.0,0.0,0.0,0.0,0.0,0.0,0.0,0.0,0.0,0.0,0.0,0.0,0.0,-6.1119,-6.0877,-6.042,-6.0388,-6.0173,-5.9663,-6.013,-6.043,-6.0525,-6.1185,-6.1547,-6.1521,-6.211,-6.203,-6.1324,-6.1595,-6.135,-6.0703,-5.9411,-5.8592,-5.8119,-5.7163,-5.681,-5.6761,-5.6372,-5.6127,-5.5929,0.0,0.0,0.0,0.0,0.0,0.0,0.0,0.0,0.0,0.0,0.0,0.0,0.0,0.0,0.0,0.0,0.0,0.0,0.0,-2.7649,-2.8972,-3.1561,-3.3816,-3.515,-3.5487,-3.54,-3.54,-3.5519,-3.4711,-3.522,-3.7015,-3.7823,-3.8661,-3.9373,-3.917,-3.8033,-3.6267,-3.5489,-3.4083,-3.2407,-3.2946,-3.3155,-3.3095,-3.2557,-3.2318,-3.2228,-3.169,-3.1511,-3.1511,-3.1511,0.0,0.0,0.0,0.0,-3.172,-3.2826,-3.3694,-3.4983,0.0,0.0,-4.3758,0.0,0.0,0.0,0.0,0.0,0.0,0.0,0.0,0.0,0.0,0.0,0.0,0.0,0.0,0.0,0.0,0.0,0.0,0.0,0.0,0.0,0.0,0.0,0.0,0.0,0.0,0.0,-6.0506,-6.075,-6.0388,-5.9367,-5.9499,-5.9113,-5.8085,-5.8934,-5.9367,-5.9411,-6.0652,-6.0903,-6.0407,-6.1432,-6.1317,-6.0374,-6.1235,-6.1152,-6.0365,-5.9455,-5.8683,-5.7887,-5.7067,-5.681,-5.6761,-5.6274,-5.6028,-5.5929,0.0,0.0,0.0,0.0,0.0,0.0,0.0,0.0,0.0,0.0,-2.749,-2.749,-2.749,-2.7079,0.0,0.0,0.0,0.0,-2.6824,0.0,0.0,-3.224,-3.3242,-3.4303,-3.5457,-3.4921,-3.4921,-3.5519,-3.4233,-3.5489,-3.902,-3.8003,-3.8212,-3.9343,-3.8212,-3.6926,-3.5549,-3.4292,-3.2946,-3.163,-3.172,-3.178,-3.175,-3.166,-3.163,-3.163,-3.154,-3.1511,-3.1511,-3.1511,-3.1511,0.0,0.0,0.0,0.0,-3.172,-3.2647,-3.3963,0.0,0.0,0.0,0.0,0.0,0.0,0.0,0.0,0.0,0.0,0.0,0.0,0.0,0.0,0.0,0.0,0.0,0.0,0.0,0.0,0.0,0.0,0.0,0.0,0.0,0.0,0.0,0.0,0.0,0.0,-5.8437,-5.9323,-5.9323,-5.8314,-5.9145,-5.9113,-5.8085,-5.8223,-5.8405,-5.8555,-5.8992,-5.8754,-5.7917,-5.9068,-5.9555,-5.9335,-5.8709,-5.8346,-5.8148,-5.7464,-5.7115,-5.7002,-5.6858,-5.681,-5.6761,-5.647,-5.6225,-5.5979,0.0,0.0,0.0,0.0,0.0,0.0,0.0,0.0,0.0,0.0,0.0,-2.749,-2.749,-2.7314,0.0,0.0,0.0,0.0,-2.7157,-2.8591,0.0,0.0,-3.2127,-3.2993,-3.3252,-3.333,-3.3514,-3.3844,-3.3245,-3.516,-3.9409,-3.8422,-3.9469,-4.2073,-4.0008,-3.8571,-3.7524,-3.4681,-3.2946,-3.2019,-3.166,-3.2407,-3.3573,-3.2079,-3.2437,-3.3543,-3.2049,-3.1511,-3.1511,-3.1511,-3.1511,-3.1511,-3.1511,0.0,0.0,0.0,0.0,0.0,-3.6836,0.0,0.0,0.0,0.0,0.0,0.0,0.0,0.0,0.0,0.0,0.0,0.0,0.0,0.0,0.0,0.0,0.0,0.0,0.0,0.0,0.0,0.0,0.0,0.0,0.0,0.0,0.0,0.0,-5.6683,-5.8039,-5.8528,-5.83,-5.7276,-5.7699,-5.7465,-5.6445,-5.6991,-5.7621,-5.8419,-5.8677,-5.8391,-5.7637,-5.8162,-5.8391,-5.8437,-5.8664,-5.8514,-5.8026,-5.77,-5.7258,-5.681,-5.681,-5.681,-5.6761,-5.6323,-5.6127,-5.5929,0.0,0.0,0.0,0.0,0.0,0.0,0.0,0.0,0.0,0.0,0.0,0.0,-2.749,0.0,0.0,0.0,0.0,0.0,-2.7519,0.0,0.0,0.0,0.0,-3.1604,-3.1509,-3.199,-3.2318,-3.2527,-3.2527,-3.4949,-3.9649,-3.914,-4.1115,-4.4945,-4.2132,-4.0247,-3.8931,-3.5639,-3.3873,-3.3245,-3.2706,-3.3693,-3.537,-3.4022,-3.4739,-3.6148,-3.3454,-3.2527,-3.2407,-3.172,-3.1511,0.0,0.0,0.0,0.0,0.0,0.0,0.0,0.0,0.0,0.0,0.0,0.0,0.0,0.0,0.0,0.0,0.0,0.0,0.0,0.0,0.0,0.0,0.0,0.0,0.0,0.0,0.0,0.0,0.0,0.0,0.0,0.0,0.0,0.0,0.0,0.0,-5.5592,-5.6809,-5.723,-5.7027,-5.6005,-5.6383,-5.6134,-5.5179,-5.5869,-5.6735,-5.7668,-5.79,-5.7792,-5.7433,-5.7355,-5.7433,-5.7621,-5.8423,-5.8409,-5.784,-5.784,-5.7448,-5.681,-5.6713,-5.6761,-5.6713,-5.6127,-5.5929,-5.5929,0.0,0.0,0.0,0.0,0.0,0.0,0.0,0.0,0.0,0.0,0.0,0.0,-2.749,-2.6524,-2.5871,-2.5845,0.0,0.0,0.0,0.0,0.0,0.0,0.0,0.0,-3.1453,-3.1511,-3.1869,-3.2527,-3.2527,-3.519,-4.0337,-4.0307,-4.2761,-4.701,-4.3758,-4.0883,-3.8362,-3.6926,-3.5938,-3.534,-3.531,-3.54,-3.5759,-3.8123,-3.9074,-3.8835,-3.6237,-3.531,-3.4921,0.0,0.0,0.0,0.0,-3.1511,-3.1511,0.0,0.0,0.0,0.0,0.0,0.0,0.0,0.0,0.0,0.0,0.0,0.0,0.0,0.0,0.0,0.0,0.0,0.0,0.0,0.0,0.0,0.0,0.0,0.0,0.0,0.0,0.0,0.0,0.0,0.0,0.0,0.0,-5.338,-5.3458,-5.4966,-5.5381,-5.4351,-5.5798,-5.6134,-5.5179,-5.5229,-5.5431,-5.578,-5.578,-5.5998,-5.647,-5.6225,-5.6372,-5.6858,-5.6664,-5.6713,-5.6858,-5.6858,-5.6858,-5.6761,-5.6519,-5.6567,-5.6713,-5.5929,-5.578,-5.5929,0.0,0.0,0.0,0.0,0.0,0.0,0.0,0.0,0.0,0.0,0.0,0.0,0.0,-2.7124,-2.6733,-2.6399,-2.6222,0.0,0.0,0.0,0.0,0.0,0.0,0.0,-3.0837,-3.1278,-3.163,-3.1869,-3.1869,-3.3933,-3.7913,-3.8302,-4.0038,-4.2851,-4.2073,-4.1482,-4.0733,-3.687,-3.5549,-3.6118,-3.6118,-3.7404,-3.929,-3.9379,-4.0487,-4.1624,-3.896,0.0,0.0,0.0,0.0,0.0,-3.2138,-3.154,-3.0881,-3.0881,-3.1152,0.0,0.0,0.0,0.0,0.0,0.0,0.0,0.0,0.0,0.0,0.0,0.0,0.0,0.0,0.0,0.0,0.0,0.0,0.0,0.0,0.0,0.0,0.0,0.0,0.0,0.0,0.0,0.0,0.0,0.0,0.0,-5.3144,-5.3772,-5.4104,-5.4192,-5.4748,-5.5129,-5.5179,-5.5179,-5.5229,-5.533,-5.5531,-5.578,-5.6127,-5.6028,-5.6274,-5.6761,-5.6519,-5.6567,-5.681,-5.681,-5.681,-5.6761,-5.6519,-5.647,-5.647,-5.583,-5.5681,-5.5681,0.0,0.0,0.0,0.0,0.0,0.0,0.0,0.0,-2.7423,-2.7423,0.0,0.0,0.0,0.0,-2.7,-2.6425,-2.6399,-2.6731,-2.7511,-2.7765,0.0,0.0,0.0,0.0,-3.0837,-3.1278,-3.1511,-3.1511,-3.172,-3.3304,-3.6178,-3.7015,-3.8482,-4.0397,-4.0157,-4.0786,-4.1841,-3.8307,-3.7045,-3.7524,-3.8182,-3.9655,-4.1444,-4.2132,-4.3359,-4.4377,0.0,0.0,0.0,0.0,0.0,0.0,-3.3305,-3.2108,-3.0851,-3.0851,-3.1152,0.0,-3.3125,0.0,0.0,0.0,0.0,0.0,0.0,0.0,0.0,0.0,0.0,0.0,0.0,0.0,0.0,0.0,0.0,0.0,0.0,0.0,0.0,0.0,0.0,0.0,0.0,0.0,0.0,0.0,0.0,0.0,-5.2486,-5.2725,-5.3174,-5.3832,-5.4072,-5.4431,-5.485,-5.5089,-5.5179,-5.5179,-5.5481,-5.5681,-5.588,-5.5979,-5.6176,-5.6519,-5.6421,-5.6567,-5.681,-5.681,-5.6761,-5.6664,-5.6372,-5.6274,-5.6225,-5.5681,-5.5531,-5.5581,0.0,0.0,0.0,0.0,0.0,0.0,0.0,0.0,-2.7341,-2.7341,0.0,0.0,0.0,0.0,0.0,-2.5923,-2.5871,-2.6395,-2.7619,-2.7104,0.0,0.0,0.0,0.0,-3.1511,-3.1511,-3.1511,-3.154,-3.2138,-3.3484,-3.5459,-3.6716,-3.8362,-4.0157,-3.8242,-3.8841,-4.1265,-4.1212,-4.0487,-3.9619,-4.1542,-4.1991,-4.2013,-4.6531,-4.7878,0.0,-4.5155,-4.4047,0.0,-3.9709,0.0,0.0,-3.4893,-3.3095,-3.154,-3.1481,-3.1511,-3.154,0.0,0.0,0.0,0.0,0.0,0.0,0.0,0.0,0.0,0.0,0.0,0.0,0.0,0.0,0.0,0.0,0.0,0.0,0.0,0.0,0.0,0.0,0.0,0.0,0.0,0.0,0.0,0.0,0.0,-5.1229,-5.1229,-5.1858,-5.2486,-5.3144,-5.3832,-5.4221,-5.4221,-5.485,-5.5179,-5.5179,-5.5481,-5.5581,-5.5631,-5.588,-5.5979,-5.6028,-5.6274,-5.6519,-5.6761,-5.6761,-5.6616,-5.6372,-5.6127,-5.5979,-5.5929,-5.5381,-5.5381,-5.5531,0.0,0.0,0.0,0.0,0.0,-2.8007,-2.7519,-2.7695,-2.7877,0.0,0.0,0.0,-2.8203,-2.7994,-2.7837,-2.768,-2.768,-2.7649,-2.7551,-2.7819,-2.8548,-2.9721,-3.0056,-3.0862,-3.2198,-3.175,-3.175,-3.2198,-3.1929,-3.2318,-3.3365,-3.4203,-3.54,-3.6866,-3.6776,-3.7404,-3.8392,-3.6477,-3.7404,-4.0098,-3.9649,-4.1683,0.0,0.0,0.0,0.0,0.0,-4.686,-4.5304,0.0,-4.1265,-3.7943,0.0,-3.2677,-3.2019,-3.1061,-3.1451,-3.2108,-3.163,0.0,0.0,0.0,0.0,0.0,0.0,0.0,0.0,0.0,0.0,0.0,0.0,0.0,0.0,0.0,0.0,0.0,0.0,0.0,0.0,0.0,0.0,0.0,0.0,0.0,0.0,0.0,-5.1229,-5.1229,-5.1229,-5.1858,-5.2276,-5.2456,-5.3593,-5.4221,-5.4221,-5.485,-5.5179,-5.5179,-5.528,-5.5431,-5.5581,-5.5481,-5.5631,-5.5979,-5.588,-5.5979,-5.6225,-5.6421,-5.647,-5.6372,-5.6127,-5.588,-5.5681,-5.5531,-5.5431,-5.528,0.0,0.0,0.0,0.0,0.0,-2.8874,-2.8582,-2.8594,-2.8769,0.0,0.0,0.0,-2.9144,-2.9327,-2.9274,-2.8839,-2.8551,-2.8365,-2.8292,-2.8159,-2.8615,-2.9844,-3.0285,-3.1121,-3.2467,-3.2378,-3.2378,-3.2527,-3.2108,-3.1959,-3.2079,-3.2766,-3.3514,-3.4262,-3.4651,-3.534,-3.6058,-3.3963,-3.5579,0.0,-4.0816,0.0,0.0,-4.7296,-4.8506,0.0,0.0,0.0,-4.7459,-4.677,-4.3748,0.0,0.0,-3.4203,-3.3484,-3.2138,-3.2497,-3.3185,-3.2527,-3.2647,0.0,0.0,0.0,0.0,0.0,0.0,0.0,0.0,0.0,0.0,0.0,0.0,0.0,0.0,0.0,0.0,0.0,0.0,0.0,0.0,0.0,0.0,0.0,0.0,0.0,-5.1229,-5.1229,-5.1229,-5.1229,-5.1588,-5.1798,-5.1798,-5.2815,-5.3503,-5.3773,-5.4431,-5.491,-5.5179,-5.5179,-5.528,-5.5431,-5.5381,-5.5481,-5.5681,-5.5731,-5.578,-5.583,-5.5979,-5.6077,-5.6028,-5.588,-5.5681,-5.5431,-5.5431,-5.533,-5.5179,0.0,0.0,-3.0633,-3.0683,-3.0306,-2.998,-2.998,-2.9783,-2.9895,0.0,-3.0606,-3.0649,-3.0831,-3.113,-3.0906,-2.9994,-2.9267,-2.9042,-2.959,-2.8519,-2.8633,-3.0419,-3.0566,-3.1219,-3.2467,-3.3155,-3.3185,-3.2527,-3.2527,-3.2138,-3.1511,-3.2108,-3.2378,-3.2378,-3.2378,-3.3125,-3.4324,-3.3365,-3.51,-3.8871,-4.297,-4.4646,0.0,0.0,-4.9793,-4.9553,-5.0152,-4.9972,-4.9419,-4.8566,-4.5394,0.0,0.0,-3.6956,-3.5759,-3.4173,-3.4352,-3.4893,-3.4053,-3.3933,-3.4412,0.0,0.0,0.0,-3.7878,-3.7135,0.0,0.0,0.0,0.0,0.0,0.0,0.0,0.0,0.0,0.0,0.0,0.0,0.0,0.0,0.0,0.0,0.0,-5.1169,-5.1229,-5.1229,-5.1229,-5.1229,-5.1229,-5.1229,-5.1229,-5.1229,-5.1858,-5.2516,-5.3174,-5.3862,-5.4551,-5.5179,-5.5179,-5.5179,-5.5179,-5.5431,-5.5431,-5.5229,-5.5681,-5.578,-5.5531,-5.5531,-5.5581,-5.5581,-5.5581,-5.5431,-5.5179,-5.5229,-5.5229,-5.5179,0.0,-3.0306,-3.0758,-3.116,-3.116,-3.1085,-3.1085,-3.0806,-3.1069,-3.2265,-3.3109,-3.411,-3.5521,-3.411,-3.3238,-3.3677,-3.2297,-3.1291,-3.1109,-3.0341,-3.0101,-3.0478,-3.1027,-3.1683,-3.2497,-3.3155,-3.3185,-3.2527,-3.2527,-3.2138,-3.1511,-3.163,-3.169,-3.169,-3.169,-3.2467,-3.3784,-3.513,0.0,-3.929,-4.0217,0.0,-4.686,-4.8177,-4.9583,-5.084,-5.099,-5.096,-5.0571,-4.8865,-4.6621,-4.3988,0.0,0.0,-3.8871,-3.5968,-3.6686,-3.8063,-3.6357,-3.6656,-3.7165,-3.5998,0.0,0.0,-3.504,-3.5519,0.0,0.0,0.0,0.0,0.0,0.0,0.0,0.0,0.0,0.0,0.0,0.0,0.0,0.0,0.0,0.0,0.0,-5.0853,-5.1229,-5.1229,-5.1229,-5.1229,-5.1229,-5.1229,-5.1229,-5.1229,-5.1858,-5.2516,-5.3174,-5.3862,-5.4551,-5.5179,-5.5179,-5.5179,-5.5179,-5.5229,-5.5229,-5.5179,-5.528,-5.533,-5.528,-5.528,-5.5381,-5.5581,-5.5581,-5.5431,-5.5229,-5.5431,-5.5381,-5.5179,-3.0206,-3.0859,-3.1587,-3.2139,-3.224,-3.2416,-3.2968,-3.276,-3.3038,-3.4417,-3.6166,-3.7154,-3.6887,-3.6479,-3.6046,-3.5571,-3.4113,-3.2952,-3.2438,-3.1514,-3.0981,-3.1002,-3.1324,-3.1981,-3.2975,-3.3634,-3.3664,-3.3006,-3.3006,-3.2467,-3.1511,-3.1511,-3.2019,-3.2976,-3.2288,-3.3125,-3.5011,-3.534,-3.6626,-3.8661,-4.1615,0.0,-4.7967,-4.9613,-5.105,-5.2157,-5.1828,-5.1498,-5.087,-4.8566,-4.713,0.0,0.0,-4.1594,-4.1294,0.0,-3.8631,-3.9559,-3.7883,-3.7913,-3.8332,-3.8033,0.0,0.0,0.0,0.0,0.0,0.0,0.0,0.0,0.0,0.0,0.0,0.0,0.0,0.0,0.0,0.0,0.0,0.0,0.0,0.0,0.0,-5.0062,-5.0391,-5.0674,-5.0674,-5.0823,-5.1199,-5.1229,-5.1229,-5.1229,-5.1528,-5.2187,-5.3174,-5.3533,-5.4192,-5.5179,-5.5179,-5.5179,-5.5179,-5.5179,-5.5179,-5.5179,-5.5179,-5.5179,-5.5179,-5.5179,-5.528,-5.5381,-5.5381,-5.533,-5.5229,-5.533,-5.533,-5.5179,-3.0708,-3.1386,-3.224,-3.2817,-3.3093,-3.3571,-3.4575,-3.4457,-3.4921,-3.669,-3.9002,-3.9924,-3.8538,-3.9215,-3.9376,-3.8342,-3.6523,-3.5252,-3.4911,-3.3203,-3.2323,-3.2472,-3.2115,-3.2509,-3.3873,-3.4412,-3.4292,-3.3484,-3.3484,-3.2886,-3.169,-3.169,-3.2587,-3.4053,-3.3395,-3.4412,-3.6596,0.0,0.0,-3.9349,0.0,-4.6651,-4.7459,-5.0481,-5.1977,-5.2396,-5.2247,-5.1858,-5.105,-4.8656,-4.7788,-4.716,-4.4118,-4.3569,0.0,0.0,0.0,0.0,0.0,0.0,0.0,0.0,0.0,-3.7764,0.0,0.0,0.0,-3.7349,0.0,0.0,0.0,0.0,0.0,0.0,0.0,0.0,0.0,0.0,0.0,0.0,0.0,0.0,0.0,-4.882,-4.9075,-4.9927,-4.9657,-4.9897,-5.0913,-5.0973,-5.1079,-5.1229,-5.1229,-5.1858,-5.3174,-5.3174,-5.3862,-5.5179,-5.5179,-5.5179,-5.5179,-5.5179,-5.5179,-5.5179,-5.5179,-5.5179,-5.5179,-5.5179,-5.5179,-5.5179,-5.5179,-5.5179,-5.5179,-5.5179,-5.5179,-5.5179,-3.0633,-3.1085,-3.1662,-3.2215,-3.3144,-3.4022,-3.4625,-3.4675,-3.5723,-3.872,-4.0529,-4.2242,-4.4125,-4.3561,-4.3743,-4.5425,-4.1807,-3.9711,-4.0434,-3.7093,-3.5321,-3.5896,-3.4215,-3.3891,-3.5218,-3.534,-3.4771,-3.3484,-3.3484,-3.3125,-3.2378,-3.2378,-3.2497,-3.2796,-3.4442,-3.5968,-3.7345,0.0,-4.0427,0.0,-4.5813,-4.5005,0.0,-4.7981,-4.9689,-4.9988,-5.1588,-5.2157,-5.1858,0.0,-4.9523,-4.873,0.0,-4.6322,-4.6322,0.0,0.0,0.0,0.0,0.0,0.0,0.0,-4.1474,0.0,0.0,0.0,-3.7375,-3.5372,0.0,0.0,0.0,0.0,0.0,0.0,0.0,0.0,0.0,0.0,0.0,0.0,0.0,0.0,0.0,0.0,-4.7429,-4.9224,-4.7758,-4.7774,-5.0166,-5.0315,-5.0584,-5.1199,-5.1229,-5.1858,-5.3174,-5.3174,-5.3862,-5.5179,-5.5179,-5.5179,-5.5179,-5.5179,-5.5179,-5.5179,-5.5179,-5.5179,-5.5179,-5.5179,-5.5179,-5.5179,-5.5179,-5.5179,-5.5179,-5.5179,-5.5179,-5.5179,-3.0131,-3.106,-3.1838,-3.1763,-3.2943,-3.425,-3.5359,-3.7906,-3.9781,-4.004,-4.2987,-4.5449,-4.6698,-4.6185,-4.6299,-4.7554,-4.4892,-4.2763,0.0,-3.9698,-3.8145,-3.7614,-3.6093,-3.5495,-3.6058,-3.5699,-3.504,-3.4084,-3.3694,-3.3155,-3.2527,-3.2527,-3.3335,-3.4861,-3.6088,-3.7973,-4.0284,0.0,-4.0666,0.0,0.0,0.0,0.0,-4.9643,-5.2127,-5.2187,-5.2606,-5.2516,-5.1887,0.0,-4.9164,0.0,0.0,0.0,0.0,0.0,0.0,0.0,0.0,0.0,0.0,0.0,0.0,0.0,-3.7584,0.0,-3.6626,0.0,0.0,0.0,0.0,0.0,0.0,0.0,0.0,0.0,0.0,0.0,0.0,0.0,0.0,0.0,0.0,0.0,0.0,0.0,0.0,-4.6711,-4.8985,-4.9777,-5.0315,-5.0584,-5.102,-5.1678,-5.2606,-5.2995,-5.3683,-5.461,-5.4999,-5.5179,-5.5179,-5.5179,-5.5179,-5.5179,-5.5179,-5.5179,-5.5179,-5.5179,-5.5179,-5.5179,-5.5179,-5.5179,-5.5179,-5.5179,-5.5448,-5.5718,-3.0304,-3.112,-3.177,-3.1762,-3.2811,-3.435,-3.6296,-3.9949,-4.2301,-4.1844,-4.4865,-4.7612,-4.8922,-4.8832,-4.9134,-5.0331,-4.8297,-4.6322,0.0,0.0,-4.1115,-4.0307,-3.8362,-3.7464,-3.7823,-3.6656,-3.5699,-3.5073,-3.4173,-3.3514,-3.3066,-3.3066,-3.4083,-3.6031,-3.7554,-3.9768,-4.2381,0.0,-4.2372,-4.3479,-4.4766,-4.5514,-4.6484,-5.1468,-5.3832,-5.4401,-5.3713,-5.3144,-5.2366,-4.9912,-4.9404,0.0,-4.8267,0.0,0.0,0.0,0.0,0.0,-4.5364,0.0,0.0,0.0,0.0,0.0,0.0,0.0,0.0,0.0,0.0,0.0,0.0,0.0,0.0,0.0,0.0,0.0,0.0,0.0,0.0,0.0,0.0,0.0,0.0,0.0,0.0,0.0,0.0,0.0,-4.7878,-4.9075,-4.9837,-5.0196,-5.0823,-5.1528,-5.2187,-5.2845,-5.3533,-5.4221,-5.488,-5.5179,-5.5179,-5.5179,-5.5179,-5.5179,-5.5179,-5.5179,-5.5179,-5.5179,-5.5179,-5.5209,-5.5388,-5.5448,-5.5448,-5.5269,-5.5598,-5.6158,-3.1576,-3.1175,-3.1088,-3.2449,-3.2899,-3.4216,-3.7358,-3.9237,-4.1452,-4.4647,-4.5734,-4.7724,-5.1637,-5.2067,-5.3084,-5.5739,0.0,-5.099,-5.093,0.0,-4.4466,-4.5035,-4.1384,-3.9918,0.0,-3.8691,-3.7045,-3.6417,-3.5132,-3.4474,-3.4444,-3.4444,-3.4503,-3.4743,-3.8571,-4.1055,-4.253,-4.4347,-4.7369,-5.081,-5.0196,-5.1917,-5.4521,0.0,-5.2905,-5.5059,-5.4401,0.0,0.0,-5.1798,-5.1139,0.0,0.0,0.0,0.0,0.0,0.0,0.0,0.0,0.0,0.0,-4.2581,0.0,0.0,0.0,0.0,-3.8123,0.0,0.0,0.0,0.0,0.0,0.0,0.0,0.0,0.0,0.0,0.0,0.0,0.0,0.0,0.0,0.0,0.0,0.0,0.0,0.0,0.0,-4.71,-4.7967,-4.8925,-5.0166,-5.0823,-5.1528,-5.2187,-5.2845,-5.3533,-5.4221,-5.488,-5.5179,-5.5179,-5.5179,-5.5179,-5.5179,-5.5179,-5.5179,-5.5179,-5.5179,-5.5179,-5.5239,-5.5897,-5.6188,-5.6128,-5.5418,-5.5598,-5.6218,-3.3055,-3.307,-3.3008,-3.3465,-3.4593,-3.6173,-3.847,-4.2091,-4.5331,-4.7492,-4.9233,-5.1935,-5.6273,-5.5987,-5.6166,0.0,0.0,-5.4132,-5.3264,-4.9673,0.0,-4.8536,-4.4766,-4.306,0.0,-4.127,-3.9384,-3.8422,-3.6802,-3.5907,-3.5624,-3.5177,-3.5207,-3.5743,-3.8985,-4.1594,0.0,0.0,0.0,0.0,0.0,-5.2217,-5.5089,0.0,0.0,-5.5089,-5.4431,-5.4221,0.0,-5.2905,-5.1947,-5.1199,-5.1199,-5.0347,-4.9359,-4.9523,-4.9434,0.0,0.0,0.0,-4.8686,-4.4915,0.0,0.0,0.0,0.0,0.0,0.0,0.0,0.0,0.0,0.0,0.0,0.0,0.0,0.0,0.0,0.0,0.0,0.0,0.0,0.0,0.0,0.0,0.0,0.0,0.0,0.0,0.0,-4.7848,-4.9134,-4.9583,-5.0661,-5.1319,-5.1558,-5.2636,-5.3294,-5.3533,-5.467,-5.5179,-5.5179,-5.5179,-5.5179,-5.5179,-5.5179,-5.5179,-5.5179,-5.5179,-5.5179,-5.5269,-5.5927,-5.6218,-5.6248,-5.6376,-5.6885,-5.7453,-3.4887,-3.5107,-3.5051,-3.4792,-3.6841,-3.8978,-4.0327,-4.4761,-4.8563,-5.0124,-5.2247,-5.5019,-5.8686,0.0,-5.8351,0.0,-5.8441,-5.6825,-5.5029,-5.2695,0.0,-5.096,-4.7983,0.0,0.0,0.0,-4.1769,-4.0017,-3.8424,-3.7222,-3.6403,-3.5751,-3.5726,-3.6297,0.0,-4.1637,-4.4127,0.0,-4.8985,0.0,0.0,-5.3294,0.0,0.0,-5.5179,-5.5119,0.0,-5.4551,-5.4461,-5.3773,-5.2995,-5.2276,-5.2217,-5.1319,-5.0301,-5.0196,-5.0092,-4.9853,-4.9449,-4.9733,0.0,-4.6441,-4.5035,0.0,-4.0217,0.0,0.0,0.0,0.0,0.0,0.0,0.0,0.0,0.0,0.0,0.0,0.0,0.0,0.0,0.0,0.0,0.0,0.0,0.0,-3.911,-4.0905,0.0,0.0,0.0,0.0,-4.8536,-4.9299,-5.0301,-5.0943,-5.1229,-5.2516,-5.3174,-5.3204,-5.4551,-5.5179,-5.5179,-5.5179,-5.5179,-5.5179,-5.5179,-5.5179,-5.5209,-5.5448,-5.5538,-5.5628,-5.6526,-5.6855,-5.6885,-5.7034,-5.7513,-5.8141,-3.6944,-3.7296,-3.7144,-3.6598,-3.9584,-4.2276,-4.283,-4.7044,-5.0749,-5.2437,-5.4552,-5.6802,-5.9015,-5.9308,-5.9817,-6.1104,-6.0595,-5.9129,-5.6667,-5.5748,0.0,0.0,-5.1152,-5.0152,-4.9569,0.0,0.0,0.0,-3.9854,-3.8411,-3.6899,-3.6286,-3.6064,0.0,-3.8911,0.0,-4.3559,-4.8133,-5.1319,-5.3354,-5.467,-5.5179,-5.5179,-5.5179,-5.5179,-5.5179,-5.5179,-5.5179,-5.5089,-5.4461,-5.4251,-5.3982,-5.2695,-5.2276,-5.2007,-5.0704,-5.0764,-5.099,-4.9763,-4.9853,-4.9628,-4.7116,0.0,0.0,0.0,0.0,-4.4077,0.0,0.0,0.0,0.0,0.0,0.0,0.0,0.0,0.0,0.0,0.0,0.0,0.0,0.0,0.0,0.0,0.0,-3.7584,-4.0098,-3.9702,0.0,0.0,0.0,-4.7189,-4.9209,-4.9883,-5.0495,-5.1199,-5.2516,-5.3174,-5.3204,-5.4551,-5.5179,-5.5179,-5.5179,-5.5179,-5.5179,-5.5179,-5.5179,-5.5239,-5.5897,-5.6218,-5.6368,-5.7603,-5.8141,-5.8082,-5.7423,-5.7603,-5.8261,-3.8562,-3.9812,-4.1052,-4.183,-4.2026,-4.2907,-4.5347,-4.7864,-5.069,0.0,-5.6598,-5.9091,-6.1792,-6.2061,-6.2181,-6.254,-6.1972,0.0,0.0,0.0,0.0,-5.7334,-5.467,-5.3114,-5.2965,-4.9268,0.0,-4.4745,0.0,-3.9668,-3.878,-3.763,0.0,0.0,0.0,0.0,-4.2713,-4.6997,-5.078,-5.4012,-5.485,-5.5179,0.0,0.0,-5.5179,-5.5179,-5.5179,-5.5179,-5.5149,-5.4999,-5.461,-5.4162,-5.3803,-5.3354,-5.2875,-5.2516,-5.2187,-5.1887,-5.1528,-5.1199,-5.0644,-4.9478,-4.8103,-4.6711,0.0,0.0,0.0,0.0,0.0,0.0,0.0,0.0,0.0,0.0,0.0,0.0,0.0,0.0,0.0,0.0,0.0,0.0,0.0,0.0,-3.7535,-3.8811,0.0,0.0,0.0,0.0,0.0,-4.8476,-4.9643,-5.0495,-5.1199,-5.2516,-5.3174,-5.3204,-5.4551,-5.5179,-5.5179,-5.5179,-5.5179,-5.5179,-5.5179,-5.5179,-5.5239,-5.5897,-5.6218,-5.6368,-5.7603,-5.8411,-5.883,-5.865,-5.871,-5.889,-4.0792,-4.2644,-4.4472,-4.5459,-4.5884,-4.6628,-4.8406,-4.9921,0.0,-5.5388,-5.7784,0.0,-6.1443,-6.2483,-6.3079,-6.3079,-6.272,0.0,-6.1283,0.0,0.0,-5.9129,-5.7334,-5.6077,-5.5478,-5.1792,0.0,-4.631,0.0,0.0,-3.9352,0.0,0.0,0.0,0.0,-4.0622,0.0,-4.7598,-5.1374,-5.3832,-5.479,0.0,0.0,-5.5299,-5.5359,-5.5598,-5.5299,-5.5179,-5.5179,-5.5179,-5.494,-5.4581,-5.4311,-5.3952,-5.3563,-5.3264,-5.2905,-5.2636,-5.2636,-5.2157,-5.1558,-5.1199,-5.0032,-4.8775,-4.7818,-4.7908,-4.7878,0.0,0.0,0.0,0.0,0.0,0.0,0.0,0.0,0.0,0.0,0.0,0.0,0.0,0.0,0.0,0.0,0.0,0.0,0.0,0.0,0.0,0.0,0.0,0.0,-4.7788,-4.9134,-5.0272,-5.1199,-5.2516,-5.3174,-5.3204,-5.4551,-5.5179,-5.5179,-5.5179,-5.5179,-5.5179,-5.5179,-5.5359,-5.5658,-5.6316,-5.6765,-5.7124,-5.8141,-5.877,-5.9099,-5.9099,-5.9099,-5.9099,-4.3369,-4.5576,-4.7491,-4.7956,-4.9941,-5.152,0.0,-5.285,0.0,-5.6533,0.0,-6.0142,-6.0142,-6.1918,-6.3079,-6.3079,0.0,-6.2331,-6.0595,-6.1583,-6.1403,-5.9578,-5.9488,-5.883,-5.7393,-5.4132,-5.0713,0.0,0.0,0.0,0.0,0.0,0.0,0.0,0.0,0.0,0.0,-4.91,-5.2371,-5.3294,-5.476,-5.5658,-5.6188,-5.5628,-5.5807,-5.6248,-5.5568,-5.5269,-5.5179,-5.5179,-5.5179,-5.5089,-5.4521,-5.4341,-5.4221,-5.3623,-5.3384,-5.3324,-5.3324,-5.2845,-5.2336,-5.2336,-5.1828,-5.105,-4.9912,-4.9629,-4.9344,-4.8731,-4.8103,-4.7774,0.0,0.0,0.0,0.0,0.0,0.0,0.0,0.0,0.0,0.0,0.0,0.0,0.0,0.0,0.0,0.0,0.0,0.0,0.0,0.0,0.0,-4.71,-4.8536,-4.9853,-5.1079,0.0,-5.3174,-5.3204,-5.4551,-5.5179,-5.5179,-5.5179,-5.5179,-5.5179,-5.5179,-5.5568,-5.6278,-5.6825,-5.7543,-5.8321,-5.889,-5.9099,-5.9099,-5.9099,-5.9099,-5.9099,-4.5924,-4.8217,-4.9872,-4.9407,-5.1432,-5.3716,-5.5586,-5.648,-5.7506,-5.8961,-6.1088,-6.2483,-6.2483,-6.2869,-6.3079,-6.3079,-6.3079,0.0,0.0,0.0,0.0,-6.1613,-6.1583,-6.0685,-5.88,-5.5538,-5.2293,0.0,0.0,0.0,-3.9915,0.0,0.0,0.0,0.0,0.0,-4.5505,-4.9596,0.0,-5.3354,-5.5239,-5.6128,-5.6226,-5.6615,-5.6825,-5.6855,-5.6226,-5.5658,-5.5179,-5.5179,-5.5179,-5.5179,-5.5059,-5.5029,-5.4999,-5.488,-5.4461,-5.4012,-5.4012,-5.3533,-5.2995,-5.2995,-5.2516,-5.1977,-5.1738,-5.1259,-5.0794,-5.0411,-4.9968,-4.9298,-4.791,0.0,0.0,0.0,0.0,0.0,0.0,0.0,0.0,0.0,0.0,0.0,0.0,0.0,0.0,0.0,0.0,0.0,0.0,0.0,0.0,0.0,-4.8297,0.0,0.0,0.0,-5.3174,-5.3204,-5.4551,-5.5179,-5.5179,-5.5179,-5.5179,-5.5179,-5.5179,-5.5568,-5.6278,-5.6825,-5.7812,-5.8949,-5.9069,-5.9099,-5.9099,-5.9099,-5.9099,-5.9099,-4.9611,-5.1062,-5.2165,-5.2194,0.0,0.0,0.0,-5.9138,-5.9921,-5.9507,-6.0532,-6.1354,-6.1354,-6.2393,-6.3079,-6.3079,-6.3079,-6.3079,-6.3079,-6.3079,-6.2929,-6.263,-6.2271,0.0,-5.9638,-5.6735,-5.3575,-5.0124,0.0,0.0,-4.0583,0.0,0.0,0.0,0.0,-4.2431,0.0,0.0,0.0,-5.3862,-5.5508,-5.6585,-5.7184,-5.7124,-5.7304,-5.7543,-5.6885,-5.6436,-5.6077,-5.5418,-5.5179,-5.5179,-5.5179,-5.5179,-5.5179,-5.5179,-5.497,-5.473,-5.473,-5.4221,-5.3713,-5.3713,-5.3204,-5.2606,-5.2276,-5.1852,-5.1381,-5.0882,-5.0585,-4.9643,-4.7299,-4.5186,0.0,0.0,0.0,0.0,0.0,0.0,0.0,0.0,0.0,0.0,0.0,0.0,0.0,0.0,0.0,0.0,0.0,0.0,0.0,0.0,0.0,0.0,0.0,0.0,0.0,-5.3204,-5.4551,-5.5179,-5.5179,-5.5179,-5.5179,-5.5209,-5.5538,-5.6077,-5.6735,-5.7723,-5.853,-5.9099,-5.9099,-5.9099,-5.9099,-5.9099,-5.9099,-5.9099,-5.2891,-5.3704,-5.4458,0.0,-5.6712,-5.8282,-5.8865,-6.0676,-6.1497,-6.0107,-6.0156,-6.0354,-6.038,-6.2007,-6.3079,-6.3079,-6.3079,-6.3079,-6.3079,-6.3079,-6.3079,-6.3079,-6.257,-6.1732,-6.0535,-5.8082,-5.4976,0.0,0.0,0.0,0.0,0.0,0.0,0.0,0.0,0.0,0.0,0.0,-5.2789,-5.473,-5.6047,-5.7214,-5.8082,-5.7663,-5.7872,-5.8231,-5.7543,-5.7304,-5.7124,-5.5987,-5.5508,-5.5388,-5.5239,-5.5179,-5.5179,-5.5179,-5.5179,-5.5179,-5.5179,-5.482,-5.4431,-5.4331,-5.3794,-5.3107,-5.2431,-5.197,-5.1528,-5.0798,-5.0471,-4.9516,-4.6796,-4.5595,0.0,0.0,0.0,0.0,0.0,0.0,0.0,0.0,0.0,0.0,0.0,0.0,0.0,0.0,0.0,0.0,-3.8184,-3.9936,0.0,0.0,0.0,-4.8551,-4.9777,0.0,-5.3125,-5.3204,-5.4551,-5.5179,-5.5179,-5.5179,-5.5269,-5.5418,-5.5957,-5.6615,-5.7423,-5.862,-5.9099,-5.9099,-5.9099,-5.9099,-5.9099,-5.9099,-5.9099,-5.9099,0.0,0.0,0.0,0.0,0.0,-5.919,-5.9248,-6.0588,-6.1792,-6.2231,-6.2289,-6.2463,-6.2752,-6.2959,-6.3079,-6.3079,-6.3079,-6.3079,-6.3079,-6.3079,-6.3079,-6.3079,-6.3019,-6.266,-6.1912,-5.9877,-5.7109,0.0,0.0,-4.6565,0.0,0.0,0.0,0.0,0.0,0.0,0.0,-5.2718,-5.473,-5.6107,-5.7423,-5.8022,-5.8171,-5.871,-5.8949,-5.8919,-5.8261,-5.8022,-5.7932,-5.7184,-5.6555,-5.5987,-5.5388,-5.5179,-5.5179,-5.5179,-5.5179,-5.5179,-5.5179,-5.5149,-5.5039,-5.4815,-5.4229,-5.3525,-5.2575,-5.1906,-5.1189,-5.0348,-4.999,-4.9058,-4.6751,-4.692,-4.6463,0.0,0.0,0.0,0.0,0.0,0.0,0.0,0.0,0.0,0.0,0.0,0.0,0.0,0.0,0.0,-3.9639,-4.007,-4.1683,-4.4882,0.0,-4.8105,-4.8476,-5.1381,-5.293,-5.3204,-5.4551,-5.5179,-5.5179,-5.5179,-5.5508,-5.6077,-5.6188,-5.6885,-5.8082,-5.88,-5.9099,-5.9099,-5.9099,-5.9099,-5.9099,-5.9099,-5.9099,-5.9099,0.0,0.0,0.0,0.0,0.0,0.0,0.0,-6.1517,-6.2078,-6.2527,-6.2617,-6.2673,-6.2789,-6.2789,-6.2905,-6.3079,-6.2905,-6.2905,-6.3079,-6.3079,-6.3079,-6.3079,-6.3079,-6.278,-6.2121,-6.0924,-5.8782,0.0,0.0,-4.9157,-4.5683,-4.428,0.0,0.0,0.0,-5.002,-5.2435,-5.4062,-5.5777,-5.7393,-5.7902,-5.8351,-5.874,-5.9009,-5.9099,-5.9069,-5.88,-5.871,-5.862,-5.7932,-5.7274,-5.6675,-5.6406,-5.6077,-5.5777,-5.5777,-5.5508,-5.5179,-5.5179,-5.5108,-5.4955,-5.4854,-5.4463,-5.3926,-5.3154,-5.2326,-5.1531,-5.0788,-5.0155,-4.9311,-4.801,-4.7422,-4.6795,0.0,0.0,0.0,0.0,0.0,0.0,0.0,0.0,0.0,0.0,0.0,0.0,0.0,0.0,0.0,0.0,0.0,0.0,-4.3723,0.0,-4.7955,-4.8865,-5.15,-5.3138,-5.3803,-5.473,-5.5179,-5.5179,-5.5179,-5.5748,-5.6735,-5.7154,-5.7872,-5.874,-5.9009,-5.9099,-5.9099,-5.9099,-5.9099,-5.9099,-5.9099,-5.9099,-5.9099,-5.9539,0.0,-5.8697,0.0,-6.0003,-6.009,-6.2093,-6.2383,-6.2445,-6.2718,-6.2644,-6.2588,-6.2439,-6.2439,-6.2556,-6.2789,-6.2615,-6.2615,-6.2905,-6.2963,-6.3021,-6.3079,-6.3079,0.0,-6.2391,-6.1619,-6.013,-5.7755,-5.5212,0.0,-4.9216,0.0,0.0,0.0,-5.0822,-5.2692,-5.4887,-5.5726,-5.6974,-5.8411,-5.8411,-5.868,-5.9099,-5.9099,-5.9099,-5.9099,-5.9099,-5.9099,-5.9039,-5.856,-5.8082,-5.7603,-5.7214,-5.6795,-5.6436,-5.6436,-5.5936,-5.5377,-5.5377,-5.5024,-5.4619,-5.4568,-5.4333,-5.4002,-5.3334,-5.2485,-5.1604,-5.0787,-5.0135,-4.9494,-4.8827,-4.784,-4.6998,-4.6621,0.0,0.0,0.0,0.0,0.0,0.0,0.0,-3.8841,0.0,0.0,0.0,0.0,0.0,0.0,0.0,0.0,0.0,0.0,0.0,0.0,0.0,-5.1595,-5.3139,-5.4092,-5.483,-5.5179,-5.5209,-5.5568,-5.6226,-5.7154,-5.8022,-5.868,-5.9099,-5.9099,-5.9099,-5.9099,-5.9099,-5.9099,-5.9099,-5.9099,-5.9099,-5.9099,-6.0061,-6.0177,-6.0555,-6.1832,-6.2064,-6.2296,-6.2964,-6.308,-6.308,-6.308,-6.2835,-6.2465,-6.2116,-6.2116,-6.2116,-6.2116,-6.2116,-6.2234,-6.2556,-6.2615,-6.2731,0.0,0.0,-6.3079,-6.3079,-6.2104,-6.1091,-6.0057,0.0,0.0,-5.3774,0.0,-5.223,-5.3733,-5.4437,-5.5632,-5.7094,-5.7812,-5.8471,-5.9099,-5.9099,-5.9099,-5.9099,-5.9099,-5.9099,-5.9099,-5.9099,-5.9099,-5.9099,-5.9099,-5.9099,-5.883,-5.7513,-5.7094,-5.7094,-5.7094,-5.6408,-5.5694,-5.5694,-5.5012,-5.4252,-5.3971,-5.3919,-5.3691,-5.282,-5.2078,-5.1265,-5.0008,-4.9717,-4.9494,-4.8827,-4.8188,-4.7346,-4.6098,0.0,0.0,0.0,0.0,0.0,0.0,-4.0757,-3.9189,-3.9189,0.0,0.0,0.0,0.0,0.0,0.0,0.0,0.0,-4.602,-4.6868,0.0,-4.9451,-5.1414,-5.2861,-5.3843,-5.4749,-5.5179,-5.5239,-5.6496,-5.7094,-5.7154,-5.8501,-5.9099,-5.9099,-5.9099,-5.9099,-5.9099,-5.9099,-5.9099,-5.9099,-5.9099,-5.9099,-5.9099,-6.1454,-6.1861,-6.2296,-6.2703,-6.2761,-6.2993,-6.3632,-6.3719,-6.3719,-6.3719,-6.3607,-6.3178,-6.2222,-6.1876,-6.185,0.0,-6.191,-6.191,0.0,-6.2234,-6.241,-6.2731,-6.2731,-6.2847,-6.3079,-6.2812,-6.2216,-6.1463,0.0,0.0,0.0,-5.513,-5.5581,-5.7119,-5.7587,-5.8301,-5.9181,-5.9388,-5.9737,-6.0112,-6.0112,-6.0011,-5.9787,-5.9787,-5.9488,-5.9099,-5.9099,-5.8991,-5.8857,-5.9045,-5.8828,-5.8466,-5.8213,-5.7904,-5.7494,-5.7494,-5.6805,-5.609,-5.609,-5.5701,-5.5195,-5.4709,-5.4433,-5.4129,-5.3355,-5.2397,-5.1381,-5.054,-4.9988,-4.9611,-4.9407,-4.8856,-4.8159,-4.7317,-4.6824,0.0,0.0,0.0,0.0,0.0,0.0,-4.0989,0.0,-4.0118,0.0,0.0,0.0,0.0,0.0,0.0,0.0,0.0,-4.7111,0.0,-5.0099,-5.1894,-5.3368,-5.4476,-5.4786,-5.5266,-5.5897,-5.6705,-5.7363,-5.7842,-5.871,-5.9099,-5.9099,-5.9099,-5.9099,-5.9099,-5.9099,-5.9099,-5.9099,-5.9099,-5.9099,-5.9099,-6.247,-6.279,-6.3167,-6.3399,-6.3457,-6.3661,-6.4299,-6.4386,-6.4386,-6.4386,-6.4183,-6.3719,-6.2906,-6.2217,0.0,-6.1791,-6.1583,-6.1554,-6.191,-6.191,-6.2057,-6.2439,-6.2439,-6.2468,-6.2701,-6.2585,0.0,-6.2106,-6.0865,-5.9596,-5.8381,-5.7951,-5.8246,-5.9155,-5.9431,-5.9787,-6.0141,-6.0255,-6.0425,-6.0624,-6.0624,-6.0499,-6.0279,-6.0168,-5.9844,-5.9487,-5.9487,-5.9377,-5.9181,-5.9165,-5.8855,-5.8549,-5.8534,-5.8178,-5.7744,-5.7853,-5.7217,-5.6476,-5.6476,-5.6109,-5.5571,-5.5192,-5.4769,-5.4284,-5.3355,-5.2543,-5.173,-5.0859,-5.0386,-5.0037,-4.9776,-4.9146,-4.8508,-4.7898,-4.7259,-4.6621,-4.5982,0.0,0.0,0.0,0.0,0.0,0.0,-4.1918,0.0,0.0,0.0,0.0,0.0,0.0,0.0,-4.6049,-4.8021,0.0,-5.1189,-5.2398,-5.3488,-5.4466,-5.4908,-5.5389,-5.5887,-5.696,-5.767,-5.8011,-5.8776,-5.9099,-5.9099,-5.9099,-5.9099,-5.9099,-5.9099,-5.9099,-5.9099,-5.9099,-5.9099,-5.9045,-6.3167,-6.3196,-6.3399,0.0,-6.4033,0.0,-6.488,-6.4996,-6.4996,-6.4996,-6.4473,-6.4033,-6.3975,-6.2964,-6.1977,-6.1309,0.0,0.0,0.0,-6.1554,-6.1732,-6.2057,-6.2057,-6.2116,-6.2116,-6.1791,-6.1791,-6.2116,-6.1497,-6.1144,-6.1144,-6.0496,-6.0202,-6.0202,-6.0202,-6.0144,-6.0202,-6.0516,-6.063,-6.063,-6.063,-6.0687,-6.0571,-6.0257,-6.0113,-6.0141,-6.0141,-6.0084,-5.9995,-5.9463,-5.923,-5.9112,-5.8493,-5.8121,-5.7953,-5.8114,-5.7508,-5.6819,-5.6819,-5.6216,-5.5533,-5.5474,-5.4981,-5.4197,-5.2978,-5.2681,-5.2274,-5.1112,-5.0743,-5.0481,-4.9872,-4.9175,-4.8508,-4.7898,-4.7259,-4.6621,-4.5982,0.0,0.0,0.0,0.0,0.0,0.0,-4.3456,-4.4153,0.0,0.0,0.0,0.0,0.0,-4.5024,-4.8576,-4.9407,-5.0685,-5.2594,-5.2887,-5.3363,-5.3977,-5.5115,-5.5627,-5.5483,-5.7226,-5.7928,-5.7803,-5.8668,-5.9099,-5.9099,-5.9099,-5.9099,-5.9099,-5.9099,-5.9045,-5.8991,-5.8991,-5.8936,-5.8689,0.0,0.0,-6.459,-6.4735,-6.4764,-6.4822,-6.4967,-6.4996,-6.4996,-6.4996,-6.4851,-6.459,-6.4096,-6.3714,-6.3109,-6.1977,-6.1454,-6.1253,-6.1284,-6.1284,-6.1404,-6.1732,-6.1732,-6.185,-6.2116,-6.2057,-6.2057,-6.2116,-6.1939,-6.188,-6.188,-6.1469,-6.1263,-6.1263,-6.0997,-6.0967,-6.0967,-6.1026,-6.1174,-6.1381,-6.1381,-6.1204,-6.0965,-6.0907,-6.0526,-6.0141,-6.0141,-5.9969,-5.9768,-5.985,-5.9592,-5.9247,-5.9359,-5.9158,-5.8811,-5.8073,-5.7552,-5.7183,-5.7183,-5.704,-5.6752,-5.6287,-5.5329,-5.4429,-5.4139,-5.3297,-5.2536,-5.2245,-5.1403,-5.0627,-5.0502,-4.9494,-4.8508,-4.7898,-4.7259,-4.6621,-4.5982,-4.5314,0.0,0.0,-4.4995,-4.4937,-4.4298,-4.5401,-4.575,0.0,0.0,0.0,0.0,-4.6824,-4.7782,-4.8682,-4.9843,-5.112,-5.2623,-5.3117,-5.3827,-5.4679,-5.5142,-5.589,-5.6809,-5.7212,-5.7789,-5.8456,-5.8714,-5.8882,-5.9099,-5.9099,-5.9099,-5.9099,-5.9099,-5.8495,-5.7664,-5.7664,-5.7047,-5.6194,-6.4473,-6.4764,-6.4996,-6.4996,-6.4996,-6.4996,-6.4996,-6.4996,-6.4996,-6.4996,-6.4996,-6.4851,-6.4502,-6.4212,-6.3685,-6.3051,-6.2151,-6.1483,-6.1222,-6.1193,-6.1253,-6.1404,-6.1404,-6.1523,-6.1642,-6.1702,-6.1702,-6.1702,-6.1702,-6.1702,-6.1642,-6.1523,-6.1404,-6.1404,-6.1253,-6.1193,-6.1193,-6.1344,-6.1434,-6.1613,-6.1613,-6.1527,-6.1351,-6.1175,-6.0911,-6.0589,-6.0589,-6.0531,-6.0384,-6.018,-5.9976,-5.9713,-5.9539,-5.9394,-5.9161,-5.8664,-5.8346,-5.8145,-5.7855,-5.7768,-5.7536,-5.6636,-5.5881,-5.53,-5.4981,-5.4168,-5.3355,-5.3065,-5.2223,-5.1403,-5.0772,-4.9843,-4.8885,-4.7927,-4.7259,-4.6621,-4.5982,-4.5576,0.0,-4.575,-4.6098,-4.6301,-4.6214,-4.7114,-4.7288,-4.6272,-4.7085,0.0,-4.7201,-4.874,-4.9611,-4.9611,-5.0859,-5.202,-5.2978,-5.3355,-5.3902,-5.4701,-5.5313,-5.6011,-5.6844,-5.7382,-5.7871,-5.828,-5.8555,-5.8803,-5.8936,-5.9045,-5.9099,-5.9045,-5.844,-5.798,-5.7509,-5.668,-5.6134,-5.5631,-6.4996,-6.4996,-6.4996,-6.4996,-6.4996,-6.4996,-6.4996,-6.4996,-6.4996,-6.4996,-6.4996,-6.4996,-6.4996,-6.4502,-6.4091,-6.3975,-6.3022,-6.2122,-6.1513,-6.1396,-6.1338,-6.1338,-6.1251,-6.1193,-6.1193,-6.1193,-6.1193,-6.1193,-6.1193,-6.1193,-6.1193,-6.1193,-6.1193,-6.1193,-6.1193,-6.1193,-6.1193,-6.1464,-6.1554,-6.1554,-6.1554,-6.1554,-6.1494,-6.1313,-6.1193,-6.1193,-6.1193,-6.1193,-6.1106,-6.0526,-6.0351,-6.0264,-5.9742,-5.9597,-5.9597,-5.9597,-5.9597,-5.9422,-5.8668,-5.8377,-5.8058,-5.6955,-5.6549,-5.6258,-5.5678,-5.5097,-5.4458,-5.3791,-5.3152,-5.2391,-5.1228,-5.0278,-4.932,-4.813,-4.7317,-4.6621,-4.5982,0.0,-4.6272,-4.6911,-4.7143,-4.7521,-4.8159,-4.8711,-4.8827,-4.8391,-4.9262,-4.964,-4.9175,-5.0307,-5.1025,-5.1025,-5.2071,-5.292,-5.3646,-5.3675,-5.4052,-5.4807,-5.56,-5.6184,-5.6549,-5.7573,-5.8003,-5.7836,-5.8169,-5.8335,-5.8335,-5.836,-5.8386,-5.8276,-5.7216,-5.7024,-5.7167,-5.5693,-5.5245,-5.5252,-6.4996,-6.4996,-6.4996,-6.4996,-6.4996,-6.4996,-6.4996,-6.4996,-6.4996,-6.4996,-6.4996,-6.4996,-6.4996,-6.4909,-6.4619,-6.4033,-6.3801,-6.3457,-6.2848,-6.2267,-6.1948,-6.1948,-6.1454,-6.1193,-6.1193,-6.1193,-6.1193,-6.1193,-6.1193,-6.1193,-6.1193,-6.1193,-6.1193,-6.1193,-6.1193,-6.1193,-6.1193,-6.1253,-6.1253,-6.1253,-6.1253,-6.1253,-6.1253,-6.1193,-6.1193,-6.1193,-6.1193,-6.1193,-6.1193,-6.1077,-6.1048,-6.1019,-6.0932,-6.0903,-6.0903,-6.0903,-6.0903,-6.0642,-5.948,-5.8726,-5.8261,-5.8058,-5.7216,-5.6374,-5.6287,-5.5736,-5.5097,-5.4487,-5.382,-5.3152,-5.2449,-5.0909,-4.9436,-4.8682,-4.7561,-4.6621,-4.5982,0.0,-4.6911,-4.755,-4.8566,-4.9494,-5.0162,-5.0307,-5.054,-5.1004,-5.0714,-5.0714,-5.1149,-5.1875,-5.2333,-5.2333,-5.2507,-5.3152,-5.4342,-5.4342,-5.4952,-5.6113,-5.6255,-5.6633,-5.7158,-5.7358,-5.7584,-5.7725,-5.6765,-5.6451,-5.6594,-5.5588,-5.5094,-5.5094,-5.4918,-5.441,-5.3794,-5.4046,-5.32,-5.2046,-6.4996,-6.4996,-6.4996,-6.4996,-6.4996,-6.4996,-6.4996,-6.4996,-6.4996,-6.4996,-6.4996,-6.4996,-6.4996,-6.4996,-6.488,-6.459,-6.4561,-6.4415,-6.4125,-6.3167,-6.2616,-6.2616,-6.2354,-6.2035,-6.1687,-6.1367,-6.1193,-6.1193,-6.1193,-6.1193,-6.1193,-6.1193,-6.1193,-6.1193,-6.1193,-6.1193,-6.1193,-6.1193,-6.1193,-6.1193,-6.1193,-6.1193,-6.1193,-6.1193,-6.1193,-6.1193,-6.1193,-6.1193,-6.1193,-6.1193,-6.1193,-6.1193,-6.1193,-6.1193,-6.1193,-6.1193,-6.0932,-6.0526,-5.9945,-5.9335,-5.8755,-5.8406,-5.7855,-5.7332,-5.6984,-5.6403,-5.5881,-5.5591,-5.501,-5.4226,-5.3268,-5.2078,-5.1033,-5.0394,-4.8866,0.0,0.0,-4.7898,-4.8054,-4.874,-4.964,-5.0481,-5.112,-5.1178,-5.1294,-5.1585,-5.1352,-5.1614,-5.2601,-5.292,-5.3384,-5.4081,-5.3791,-5.4052,-5.4981,-5.4981,-5.5474,-5.6403,-5.6403,-5.6723,-5.7303,-5.7303,-5.6992,-5.648,-5.605,-5.5558,-5.5004,-5.4564,-5.458,-5.4736,-5.41,-5.3893,-5.3983,-5.3286,-5.2698,-5.2219,-6.4996,-6.4996,-6.4996,-6.4996,-6.4996,-6.4996,-6.4996,-6.4996,-6.4996,-6.4996,-6.4996,-6.4996,-6.4996,-6.4996,-6.4996,-6.4996,-6.4996,-6.4996,-6.4996,-6.4067,-6.3457,-6.3312,-6.3167,-6.2848,-6.2325,-6.1716,-6.1396,-6.1396,-6.128,-6.1193,-6.1193,-6.1193,-6.1193,-6.1193,-6.1193,-6.1193,-6.1193,-6.1193,-6.1193,-6.1193,-6.1193,-6.1193,-6.1193,-6.1193,-6.1193,-6.1193,-6.1193,-6.1193,-6.1193,-6.1193,-6.1193,-6.1193,-6.1193,-6.1193,-6.1193,-6.1193,-6.0845,-6.0438,-6.0438,-5.9974,-5.9393,-5.8871,-5.8639,-5.8348,-5.7681,-5.7187,-5.6781,-5.6461,-5.5997,-5.53,-5.4168,-5.3442,-5.2775,-5.1962,0.0,0.0,0.0,-4.9378,-4.9436,-5.0075,-5.0714,-5.1352,-5.1991,-5.2049,-5.2049,-5.2049,-5.2223,-5.2717,-5.3704,-5.3878,-5.4458,-5.562,-5.5039,-5.501,-5.5649,-5.5649,-5.5968,-5.6607,-5.6607,-5.6758,-5.7052,-5.7052,-5.642,-5.5333,-5.5273,-5.4653,-5.3552,-5.3626,-5.3842,-5.399,-5.3144,-5.3433,-5.4131,-5.2851,-5.2557,-5.2813,-6.4996,-6.4996,-6.4996,-6.4996,-6.4996,-6.4996,-6.4996,-6.4996,-6.4996,-6.4996,-6.4996,-6.4996,-6.4996,-6.4996,-6.4996,-6.4996,-6.4996,-6.4996,-6.4996,-6.4909,-6.459,-6.3946,-6.3399,-6.308,-6.3022,-6.2354,-6.2035,-6.2035,-6.1454,-6.1193,-6.1193,-6.1193,-6.1193,-6.1193,-6.1193,-6.1193,-6.1193,-6.1193,-6.1193,-6.1193,-6.1193,-6.1193,-6.1193,-6.1193,-6.1193,-6.1193,-6.1193,-6.1193,-6.1193,-6.1193,-6.1193,-6.1193,-6.1193,-6.1193,-6.1193,-6.1193,-6.1164,-6.1135,-6.1135,-6.0642,-6.0119,-6.0061,-5.9626,-5.9045,-5.8377,-5.8203,-5.7826,-5.6665,-5.6374,-5.6113,-5.5387,-5.4778,-5.3965,-5.2717,0.0,0.0,-4.9843,-5.0162,-5.0772,-5.141,-5.2049,-5.2688,-5.3326,-5.3384,-5.3384,-5.3384,-5.3965,-5.4342,-5.4429,-5.4981,-5.5591,-5.6316,-5.5678,-5.5649,-5.6316,-5.6345,-5.6636,-5.7245,-5.7245,-5.691,-5.6254,-5.6254,-5.5876,-5.5022,-5.3917,-5.308,-5.2444,-5.1816,-5.1241,-5.0771,-5.1261,-5.1712,-5.2078,-5.2428,-5.2327,-5.2114,-6.4996,-6.4996,-6.4996,-6.4996,-6.4996,-6.4996,-6.4996,-6.4996,-6.4996,-6.4996,-6.4996,-6.4996,-6.4996,-6.4996,-6.4996,-6.4996,-6.4996,-6.4996,-6.4996,-6.4996,-6.488,-6.4648,-6.4009,-6.369,-6.369,-6.3051,-6.2499,-6.2093,-6.1861,-6.1571,-6.1193,-6.1193,-6.1193,-6.1193,-6.1193,-6.1193,-6.1193,-6.1193,-6.1193,-6.1193,-6.1193,-6.1193,-6.1193,-6.1193,-6.1193,-6.1193,-6.1193,-6.1193,-6.1193,-6.1193,-6.1193,-6.1193,-6.1193,-6.1193,-6.1193,-6.1193,-6.1193,-6.1193,-6.1193,-6.1019,-6.0729,-6.0293,-6.0032,-5.9684,-5.9074,-5.8929,-5.8668,-5.7768,-5.7594,-5.7274,-5.6229,-5.5852,-5.5533,-5.5039,0.0,-5.3384,-5.3239,-5.3123,-5.3152,-5.3384,-5.3965,-5.4429,-5.4662,-5.4691,-5.4691,-5.4691,-5.4923,-5.5242,-5.5678,-5.6258,-5.6694,-5.6955,-5.6723,-5.6694,-5.6955,-5.6955,-5.7274,-5.7913,-5.7053,-5.6724,-5.6813,-5.5878,-5.4968,-5.3858,-5.3436,-5.2647,-5.1736,-5.1437,-5.1348,-5.1498,-5.1699,-5.2068,-5.2505,-5.2732,-5.2682,-5.2556,-6.4996,-6.4996,-6.4996,-6.4996,-6.4996,-6.4996,-6.4996,-6.4996,-6.4996,-6.4996,-6.4996,-6.4996,-6.4996,-6.4996,-6.4996,-6.4996,-6.4996,-6.4996,-6.4996,-6.4996,-6.4996,-6.4996,-6.4561,-6.4328,-6.4328,-6.3719,-6.3167,-6.2703,-6.2296,-6.189,-6.1483,-6.128,-6.1193,-6.1193,-6.1193,-6.1193,-6.1193,-6.1193,-6.1193,-6.1193,-6.1193,-6.1193,-6.1193,-6.1193,-6.1193,-6.1193,-6.1193,-6.1193,-6.1193,-6.1193,-6.1193,-6.1193,-6.1193,-6.1193,-6.1193,-6.1193,-6.1193,-6.1193,-6.1193,-6.1193,-6.1077,-6.0642,-6.0496,-6.0351,-5.9713,-5.9568,-5.9393,-5.8755,-5.861,-5.8348,-5.7477,-5.7158,-5.6926,-5.6723,-5.5794,-5.5184,-5.5387,-5.5039,-5.4807,-5.4807,-5.5155,-5.5416,-5.5416,-5.5416,-5.5416,-5.5416,-5.562,-5.5997,-5.6665,-5.7071,-5.7303,-5.7303,-5.7303,-5.739,-5.7623,-5.7623,-5.7855,-5.829,-5.6899,-5.6349,-5.6482,-5.5095,-5.4006,-5.3097,-5.3097,-5.2517,-5.1548,-5.1724,-5.1925,-5.2126,-5.2302,-5.2603,-5.2929,-5.2929,-5.2929,-5.2929,-6.4996,-6.4996,-6.4996,-6.4996,-6.4996,-6.4996,-6.4996,-6.4996,-6.4996,-6.4996,-6.4996,-6.4996,-6.4996,-6.4996,-6.4996,-6.4996,-6.4996,-6.4996,-6.4996,-6.4996,-6.4996,-6.4996,-6.4996,-6.4996,-6.4996,-6.4357,-6.3975,-6.3975,-6.2732,-6.2093,-6.2093,-6.1483,-6.1193,-6.1193,-6.1193,-6.1193,-6.1193,-6.1193,-6.1193,-6.1193,-6.1193,-6.1193,-6.1193,-6.1193,-6.1193,-6.1193,-6.1193,-6.1193,-6.1193,-6.1193,-6.1193,-6.1193,-6.1193,-6.1193,-6.1193,-6.1193,-6.1193,-6.1193,-6.1193,-6.1193,-6.1193,-6.1193,-6.1193,-6.1019,-6.0351,-6.0206,-6.0032,-5.9422,-5.9306,-5.9306,-5.9306,-5.8755,-5.8087,-5.7419,-5.681,-5.62,-5.5533,-5.5416,-5.5416,-5.5416,-5.5416,-5.5416,-5.5416,-5.5416,-5.5416,-5.5416,-5.6026,-5.6665,-5.7274,-5.7303,-5.7303,-5.7303,-5.7303,-5.7652,-5.8319,-5.829,-5.8319,-5.8262,-5.6986,-5.5927,-5.5059,-5.3757,-5.3068,-5.2929,-5.2929,-5.2628,-5.2151,-5.2703,-5.2603,-5.2176,-5.2703,-5.2929,-5.2929,-5.2929,-5.2929,-5.2929,-6.4996,-6.4996,-6.4996,-6.4996,-6.4996,-6.4996,-6.4996,-6.4996,-6.4996,-6.4996,-6.4996,-6.4996,-6.4996,-6.4996,-6.4996,-6.4996,-6.4996,-6.4996,-6.4996,-6.4996,-6.4996,-6.4996,-6.4996,-6.4996,-6.4996,-6.4793,-6.4473,-6.3975,-6.3661,-6.2993,-6.2093,-6.1919,-6.16,-6.1193,-6.1193,-6.1193,-6.1193,-6.1193,-6.1193,-6.1193,-6.1193,-6.1193,-6.1193,-6.1193,-6.1193,-6.1193,-6.1193,-6.1193,-6.1193,-6.1193,-6.1193,-6.1193,-6.1193,-6.1193,-6.1193,-6.1193,-6.1193,-6.1193,-6.1193,-6.1193,-6.1193,-6.1193,-6.1193,-6.1135,-6.0932,-6.0903,-6.0729,-6.0061,-5.9916,-5.98,-5.9393,-5.9132,-5.8929,-5.8726,-5.8174,-5.7681,-5.7477,-5.7042,-5.6723,-5.6723,-5.6723,-5.6723,-5.6723,-5.6723,-5.6723,-5.6723,-5.6926,-5.71,-5.7303,-5.7739,-5.8,-5.8,-5.8464,-5.9016,-5.9626,-5.7737,-5.7265,-5.8115,-5.5815,-5.4804,-5.4997,-5.3634,-5.2919,-5.2929,-5.2929,-5.2829,-5.2703,-5.2854,-5.2829,-5.2703,-5.2854,-5.2929,-5.2929,-5.2929,-5.2929,-5.2929,-6.4996,-6.4996,-6.4996,-6.4996,-6.4996,-6.4996,-6.4996,-6.4996,-6.4996,-6.4996,-6.4996,-6.4996,-6.4996,-6.4996,-6.4996,-6.4996,-6.4996,-6.4996,-6.4996,-6.4996,-6.4996,-6.4996,-6.4996,-6.4996,-6.4996,-6.4996,-6.4793,-6.4415,-6.4154,-6.3632,-6.2848,-6.2616,-6.2151,-6.1542,-6.1542,-6.1425,-6.1193,-6.1193,-6.1193,-6.1193,-6.1193,-6.1193,-6.1193,-6.1193,-6.1338,-6.1542,-6.1542,-6.1716,-6.1948,-6.1948,-6.1948,-6.1948,-6.1948,-6.1774,-6.1542,-6.1542,-6.1396,-6.1193,-6.1193,-6.1193,-6.1193,-6.1193,-6.1193,-6.1193,-6.1193,-6.1193,-6.1077,-6.0671,-6.0584,-6.0467,-6.0119,-5.9829,-5.9655,-5.9655,-5.9132,-5.8697,-5.8697,-5.8348,-5.8087,-5.8087,-5.8087,-5.8087,-5.8087,-5.8087,-5.8087,-5.8087,-5.7855,-5.7826,-5.8087,-5.8493,-5.8697,-5.8697,-5.9103,-5.9333,-5.9345,-5.7253,-5.6798,-5.8076,-5.5377,-5.4249,-5.4588,-5.3191,-5.2729,-5.2929,-5.2929,-5.2929,-5.2929,-5.2929,-5.2929,-5.2929,-5.2929,-5.2929,-5.2929,-5.2929,-5.2929,-5.2929,-6.4996,-6.4996,-6.4996,-6.4996,-6.4996,-6.4996,-6.4996,-6.4996,-6.4996,-6.4996,-6.4996,-6.4996,-6.4996,-6.4996,-6.4996,-6.4996,-6.4996,-6.4996,-6.4996,-6.4996,-6.4996,-6.4996,-6.4996,-6.4996,-6.4996,-6.4996,-6.4996,-6.4996,-6.4415,-6.4033,-6.3975,-6.3457,-6.2819,-6.218,-6.218,-6.189,-6.1367,-6.1367,-6.1367,-6.1367,-6.1367,-6.1367,-6.1367,-6.1367,-6.1716,-6.218,-6.218,-6.2558,-6.308,-6.308,-6.308,-6.308,-6.308,-6.2674,-6.218,-6.218,-6.1745,-6.128,-6.128,-6.1251,-6.1193,-6.1193,-6.1193,-6.1193,-6.1193,-6.1193,-6.1193,-6.1193,-6.1193,-6.1193,-6.1193,-6.07,-6.0293,-6.0293,-5.9771,-5.9393,-5.9393,-5.9335,-5.9306,-5.9306,-5.9306,-5.9306,-5.9306,-5.9306,-5.9306,-5.9306,-5.8726,-5.8581,-5.9073,-5.916,-5.9131,-5.9013,-5.9071,-5.8708,-5.8037,-5.6667,-5.6604,-5.779,-5.5199,-5.3921,-5.3881,-5.2666,-5.2452,-5.2929,-5.2929,-5.2929,-5.2929,-5.2929,-5.2929,-5.2929,-5.2929,-5.2929,-5.2929,-5.2929,-5.2929,-5.2929,-6.4996,-6.4996,-6.4996,-6.4996,-6.4996,-6.4996,-6.4996,-6.4996,-6.4996,-6.4996,-6.4996,-6.4996,-6.4996,-6.4996,-6.4996,-6.4996,-6.4996,-6.4996,-6.4996,-6.4996,-6.4996,-6.4996,-6.4996,-6.4996,-6.4996,-6.4996,-6.4996,-6.4996,-6.4851,-6.4532,-6.3975,-6.3893,-6.3486,-6.2877,-6.2877,-6.279,-6.2674,-6.2674,-6.2674,-6.2674,-6.2674,-6.2674,-6.2674,-6.2674,-6.2761,-6.2877,-6.2877,-6.2964,-6.308,-6.308,-6.308,-6.308,-6.308,-6.2993,-6.2877,-6.2877,-6.2412,-6.189,-6.189,-6.1542,-6.1193,-6.1193,-6.1193,-6.1193,-6.1193,-6.1193,-6.1193,-6.1193,-6.1193,-6.1193,-6.1193,-6.1077,-6.099,-6.099,-6.0438,-6.0003,-6.0003,-5.9597,-5.9306,-5.9306,-5.9306,-5.9306,-5.9306,-5.9306,-5.9306,-5.9306,-5.9161,-5.8695,-5.7687,-5.8079,-5.7907,-5.6858,-5.7236,-5.7413,-5.7232,-5.5904,-5.538,-5.5642,-5.3968,-5.3139,-5.3139,-5.2866,-5.2804,-5.2929,-5.2929,-5.2929,-5.2929,-5.2929,-5.2929,-5.2929,-5.2929,-5.2929,-5.2929,-5.2929,-5.2929,-5.2929,-6.4996,-6.4996,-6.4996,-6.4996,-6.4996,-6.4996,-6.4996,-6.4996,-6.4996,-6.4996,-6.4996,-6.4996,-6.4996,-6.4996,-6.4996,-6.4996,-6.4996,-6.4996,-6.4996,-6.4996,-6.4996,-6.4996,-6.4996,-6.4996,-6.4996,-6.4996,-6.4996,-6.4996,-6.4996,-6.4822,-6.4502,-6.4502,-6.4154,-6.3545,-6.3545,-6.337,-6.308,-6.308,-6.308,-6.308,-6.308,-6.308,-6.308,-6.308,-6.3283,-6.3545,-6.3545,-6.3748,-6.4009,-6.4009,-6.4009,-6.4009,-6.4009,-6.3806,-6.3545,-6.3545,-6.308,-6.2558,-6.2558,-6.1664,-6.0655,-6.0655,-5.9905,-5.9555,-6.0863,-6.1193,-6.1193,-6.1193,-6.1193,-6.1193,-6.1193,-6.1193,-6.1193,-6.1193,-6.0903,-6.0671,-6.0671,-6.0409,-6.0206,-6.0206,-6.0206,-6.0206,-6.0206,-5.9916,-5.9858,-6.0177,-5.9266,-5.8522,-5.8109,-5.7799,-5.7248,-5.6577,-5.6811,-5.6715,-5.6025,-5.5326,-5.4686,-5.3971,-5.3247,-5.2929,-5.2929,-5.2929,-5.2929,-5.2929,-5.2929,-5.2929,-5.2929,-5.2929,-5.2929,-5.2929,-5.2929,-5.2929,-5.2929,-5.2929,-5.2929,-5.2929,-6.4996,-6.4996,-6.4996,-6.4996,-6.4996,-6.4996,-6.4996,-6.4996,-6.4996,-6.4996,-6.4996,-6.4996,-6.4996,-6.4996,-6.4996,-6.4996,-6.4996,-6.4996,-6.4996,-6.4996,-6.4996,-6.4996,-6.4996,-6.4996,-6.4996,-6.4996,-6.4996,-6.4996,-6.4996,-6.4996,-6.4996,-6.4996,-6.4706,-6.4212,-6.4212,-6.3893,-6.3399,-6.3399,-6.3399,-6.3399,-6.3399,-6.3399,-6.3399,-6.3399,-6.3748,-6.4212,-6.4212,-6.4341,-6.4647,-6.4647,-6.4454,-6.4232,-6.4232,-6.3887,-6.3393,-6.3393,-6.2997,-6.2509,-6.2509,-6.1175,-5.9843,-5.9843,-5.8558,-5.7916,-6.0204,-6.0643,-6.056,-6.0802,-6.0681,-6.0621,-6.1133,-6.1013,-6.0923,-6.1133,-6.1193,-6.1193,-6.1193,-6.1193,-6.1193,-6.1193,-6.1013,-6.0863,-6.0863,-6.0312,-6.0196,-6.0834,-5.9257,-5.8283,-5.8376,-5.7295,-5.652,-5.6325,-5.6325,-5.5762,-5.4686,-5.4619,-5.4039,-5.2929,-5.2929,-5.2929,-5.2929,-5.2929,-5.2929,-5.2929,-5.2929,-5.2929,-5.2929,-5.2929,-5.2929,-5.2929,-5.2929,-5.2929,-5.2929,-5.2929,-5.2929,-5.2929,-6.4996,-6.4996,-6.4996,-6.4996,-6.4996,-6.4996,-6.4996,-6.4996,-6.4996,-6.4996,-6.4996,-6.4996,-6.4996,-6.4996,-6.4996,-6.4996,-6.4996,-6.4996,-6.4996,-6.4996,-6.4996,-6.4996,-6.4996,-6.4996,-6.4996,-6.4996,-6.4996,-6.4996,-6.4996,-6.4996,-6.4996,-6.4996,-6.4938,-6.4851,-6.4851,-6.4822,-6.4735,-6.4735,-6.4735,-6.4735,-6.4735,-6.4735,-6.4735,-6.4735,-6.4793,-6.4851,-6.4851,-6.4081,-6.3131,-6.3131,-6.2242,-6.1165,-6.1165,-6.111,-6.1056,-6.1056,-6.059,-6.0031,-6.0031,-5.946,-5.8892,-5.8892,-5.8705,-5.8557,-5.8953,-5.829,-5.787,-5.9121,-5.8404,-5.834,-6.0742,-6.0226,-5.9768,-6.1013,-6.1193,-6.1193,-6.1193,-6.1193,-6.1193,-6.1193,-6.0165,-5.9369,-5.9369,-5.9284,-5.9284,-5.9369,-5.9098,-5.8005,-5.5723,-5.5393,-5.4753,-5.3495,-5.3427,-5.3384,-5.3179,-5.3179,-5.3136,-5.2929,-5.2929,-5.2929,-5.2929,-5.2929,-5.2929,-5.2929,-5.2929,-5.2929,-5.2929,-5.2929,-5.2929,-5.2929,-5.2929,-5.2929,-5.2929,-5.2929,-5.2929,-5.2929,-6.4996,-6.4996,-6.4996,-6.4996,-6.4996,-6.4996,-6.4996,-6.4996,-6.4996,-6.4996,-6.4996,-6.4996,-6.4996,-6.4996,-6.4996,-6.4996,-6.4996,-6.4996,-6.4996,-6.4996,-6.4996,-6.4996,-6.4996,-6.4996,-6.4996,-6.4996,-6.4996,-6.4996,-6.4996,-6.4996,-6.4996,-6.4996,-6.4996,-6.4996,-6.4996,-6.4996,-6.4996,-6.4996,-6.4996,-6.4932,-6.4102,-6.3749,-6.3684,-6.2868,-6.2536,-6.2536,-6.2536,-6.2109,-6.1571,-6.1571,-6.1165,-6.062,-6.062,-6.062,-6.062,-6.062,-6.0361,-6.0145,-6.0145,-5.9168,-5.8126,-5.8126,-5.7272,-5.6418,-5.6418,-5.6028,-5.6194,-5.8024,-5.7669,-5.7615,-5.9645,-5.8843,-5.8404,-5.9768,-5.9369,-5.8843,-5.8843,-5.8843,-5.8843,-5.8843,-5.8996,-5.878,-5.7997,-5.7961,-5.7961,-5.7961,-5.7258,-5.6287,-5.5061,-5.4216,-5.3521,-5.2929,-5.2929,-5.2929,-5.2929,-5.2929,-5.2929,-5.2929,-5.2929,-5.2929,-5.2929,-5.2929,-5.2929,-5.2929,-5.2929,-5.2929,-5.2929,-5.2929,-5.2929,-5.2929,-5.2929,-5.2929,-5.2929,-5.2929,-5.2929,-5.2929]},{"header":{"parameterUnit":"m.s-1","parameterCategory":1,"la1":30.6,"la2":28.766,"lo1":-90.7593,"lo2":-88.6598,"dy":0.0162,"dx":0.0183,"nx":116,"ny":114,"refTime":"2024-06-12T18:00:00:Z","depth":0,"parameterNumber":3,"parameterNumberName":"V-component_of_WINDS"},"data":[0.0,0.0,0.0,0.0,0.0,0.0,0.0,0.0,0.0,0.0,0.0,0.0,0.0,0.0,0.0,0.0,0.0,0.0,0.0,0.0,0.0,0.0,0.0,0.0,0.0,0.0,0.0,0.0,0.0,0.0,0.0,0.0,0.0,0.0,0.0,0.0,0.0,0.0,0.0,0.0,0.0,0.0,0.0,0.0,0.0,0.0,0.0,0.0,0.0,0.0,0.0,0.0,0.0,0.0,0.0,0.0,0.0,0.0,0.0,0.0,0.0,0.0,0.0,0.0,0.0,0.0,0.0,0.0,0.0,0.0,0.0,0.0,0.0,0.0,0.0,0.0,0.0,0.0,0.0,0.0,0.0,0.0,0.0,0.0,0.0,0.0,0.0,0.0,0.0,0.0,0.0,0.0,0.0,0.0,0.0,0.0,0.0,0.0,0.0,0.0,0.0,0.0,0.0,0.0,0.0,0.0,0.0,0.0,0.0,0.0,0.0,0.0,0.0,0.0,0.0,0.0,0.0,0.0,0.0,0.0,0.0,0.0,0.0,0.0,0.0,0.0,0.0,0.0,0.0,0.0,0.0,0.0,0.0,0.0,0.0,0.0,0.0,0.0,0.0,0.0,0.0,0.0,0.0,0.0,0.0,0.0,0.0,0.0,0.0,0.0,0.0,0.0,0.0,0.0,0.0,0.0,0.0,0.0,0.0,0.0,0.0,0.0,0.0,0.0,0.0,0.0,0.0,0.0,0.0,0.0,0.0,0.0,0.0,0.0,0.0,0.0,0.0,0.0,0.0,0.0,0.0,0.0,0.0,0.0,0.0,0.0,0.0,0.0,0.0,0.0,0.0,0.0,0.0,0.0,0.0,0.0,0.0,0.0,0.0,0.0,0.0,0.0,0.0,0.0,0.0,0.0,0.0,0.0,0.0,0.0,0.0,0.0,0.0,0.0,0.0,0.0,0.0,0.0,0.0,0.0,0.0,0.0,0.0,0.0,0.0,0.0,0.0,0.0,0.0,0.0,0.0,0.0,0.0,0.0,0.0,0.0,0.0,0.0,0.0,0.0,0.0,0.0,0.0,0.0,0.0,0.0,0.0,0.0,0.0,0.0,0.0,0.0,0.0,0.0,0.0,0.0,0.0,0.0,0.0,0.0,0.0,0.0,0.0,0.0,0.0,0.0,0.0,0.0,0.0,0.0,0.0,0.0,0.0,0.0,0.0,0.0,0.0,0.0,0.0,0.0,0.0,0.0,0.0,0.0,0.0,0.0,0.0,0.0,0.0,0.0,0.0,0.0,0.0,0.0,0.0,0.0,0.0,0.0,0.0,0.0,0.0,0.0,0.0,0.0,0.0,0.0,0.0,0.0,0.0,0.0,0.0,0.0,0.0,0.0,0.0,0.0,0.0,0.0,0.0,0.0,0.0,0.0,0.0,0.0,0.0,0.0,0.0,0.0,0.0,0.0,0.0,0.0,0.0,0.0,0.0,0.0,0.0,0.0,0.0,0.0,0.0,0.0,0.0,0.0,0.0,0.0,0.0,0.0,0.0,0.0,0.0,0.0,0.0,0.0,0.0,0.0,0.0,0.0,0.0,0.0,0.0,0.0,0.0,0.0,0.0,0.0,0.0,0.0,0.0,0.0,0.0,0.0,0.0,0.0,0.0,0.0,0.0,0.0,0.0,0.0,0.0,0.0,0.0,0.0,0.0,0.0,0.0,0.0,0.0,0.0,0.0,0.0,0.0,0.0,0.0,0.0,0.0,0.0,0.0,0.0,0.0,0.0,0.0,0.0,0.0,0.0,0.0,0.0,0.0,0.0,0.0,0.0,0.0,0.0,0.0,0.0,0.0,0.0,0.0,0.0,0.0,0.0,0.0,0.0,0.0,0.0,0.0,0.0,0.0,0.0,0.0,0.0,0.0,0.0,0.0,0.0,0.0,0.0,0.0,0.0,0.0,0.0,0.0,0.0,0.0,0.0,0.0,0.0,0.0,0.0,0.0,0.0,0.0,0.0,0.0,0.0,0.0,0.0,0.0,0.0,0.0,0.0,0.0,0.0,0.0,0.0,0.0,0.0,0.0,0.0,0.0,0.0,0.0,0.0,0.0,0.0,0.0,0.0,0.0,0.0,0.0,0.0,0.0,0.0,0.0,0.0,0.0,0.0,0.0,0.0,0.0,0.0,0.0,0.0,0.0,0.0,0.0,0.0,0.0,0.0,0.0,0.0,0.0,0.0,0.0,0.0,0.0,0.0,0.0,0.0,0.0,0.0,0.0,0.0,0.0,0.0,0.0,0.0,0.0,0.0,0.0,0.0,0.0,0.0,0.0,0.0,0.0,0.0,0.0,0.0,0.0,0.0,0.0,0.0,0.0,0.0,0.0,0.0,0.0,0.0,0.0,0.0,0.0,0.0,0.0,0.0,0.0,0.0,0.0,0.0,0.0,0.0,0.0,0.0,0.0,0.0,0.0,0.0,0.0,0.0,0.0,0.0,0.0,0.0,0.0,0.0,0.0,0.0,0.0,0.0,0.0,0.0,0.0,0.0,0.0,0.0,0.0,0.0,0.0,0.0,0.0,0.0,0.0,0.0,0.0,0.0,0.0,0.0,0.0,0.0,0.0,0.0,0.0,0.0,0.0,0.0,0.0,0.0,0.0,0.0,0.0,0.0,0.0,0.0,0.0,0.0,0.0,0.0,0.0,0.0,0.0,0.0,0.0,0.0,0.0,0.0,0.0,0.0,0.0,0.0,0.0,0.0,0.0,0.0,0.0,0.0,0.0,0.0,0.0,0.0,0.0,0.0,0.0,0.0,0.0,0.0,0.0,0.0,0.0,0.0,0.0,0.0,0.0,0.0,0.0,0.0,0.0,0.0,0.0,0.0,0.0,0.0,0.0,0.0,0.0,0.0,0.0,0.0,0.0,0.0,0.0,0.0,0.0,0.0,0.0,0.0,0.0,0.0,0.0,0.0,0.0,0.0,0.0,0.0,0.0,0.0,0.0,0.0,0.0,0.0,0.0,0.0,0.0,0.0,0.0,0.0,0.0,0.0,0.0,0.0,0.0,0.0,0.0,0.0,0.0,0.0,0.0,0.0,0.0,0.0,0.0,0.0,0.0,0.0,0.0,0.0,0.0,0.0,0.0,0.0,0.0,0.0,0.0,0.0,0.0,0.0,0.0,0.0,0.0,0.0,0.0,0.0,0.0,0.0,0.0,0.0,0.0,0.0,0.0,0.0,0.0,0.0,0.0,0.0,0.0,0.0,0.0,0.0,0.0,0.0,0.0,0.0,0.0,0.0,0.0,0.0,0.0,0.0,0.0,0.0,0.0,0.0,0.0,0.0,0.0,0.0,0.0,0.0,0.0,0.0,0.0,0.0,0.0,0.0,0.0,0.0,0.0,0.0,0.0,0.0,0.0,0.0,0.0,0.0,0.0,0.0,0.0,0.0,0.0,0.0,0.0,0.0,0.0,0.0,0.0,0.0,0.0,0.0,0.0,0.0,0.0,0.0,0.0,0.0,0.0,0.0,0.0,0.0,0.0,0.0,0.0,0.0,0.0,0.0,0.0,0.0,0.0,0.0,0.0,0.0,0.0,0.0,0.0,0.0,0.0,0.0,0.0,0.0,0.0,0.0,0.0,0.0,0.0,0.0,0.0,0.0,0.0,0.0,0.0,0.0,0.0,0.0,0.0,0.0,0.0,0.0,0.0,0.0,0.0,0.0,0.0,0.0,0.0,0.0,0.0,0.0,0.0,0.0,0.0,0.0,0.0,0.0,0.0,0.0,0.0,0.0,0.0,0.0,0.0,0.0,0.0,0.0,0.0,0.0,0.0,0.0,0.0,0.0,0.0,0.0,0.0,0.0,0.0,0.0,0.0,0.0,0.0,0.0,0.0,0.0,0.0,0.0,0.0,0.0,0.0,0.0,0.0,0.0,0.0,0.0,0.0,0.0,0.0,0.0,0.0,0.0,0.0,0.0,0.0,0.0,0.0,0.0,0.0,0.0,0.0,0.0,0.0,0.0,0.0,0.0,0.0,0.0,0.0,0.0,0.0,0.0,0.0,0.0,0.0,0.0,0.0,0.0,0.0,0.0,0.0,0.0,0.0,0.0,0.0,0.0,0.0,0.0,0.0,0.0,0.0,0.0,0.0,0.0,0.0,0.0,0.0,0.0,0.0,0.0,0.0,0.0,0.0,0.0,0.0,0.0,0.0,0.0,0.0,0.0,0.0,0.0,0.0,0.0,0.0,0.0,0.0,0.0,0.0,0.0,0.0,0.0,0.0,0.0,0.0,0.0,0.0,0.0,0.0,0.0,0.0,0.0,0.0,0.0,0.0,0.0,0.0,0.0,0.0,0.0,0.0,0.0,0.0,0.0,0.0,0.0,0.0,0.0,0.0,0.0,0.0,0.0,0.0,0.0,0.0,0.0,0.0,0.0,0.0,0.0,0.0,0.0,0.0,0.0,0.0,0.0,0.0,0.0,0.0,0.0,0.0,0.0,0.0,0.0,0.0,0.0,0.0,0.0,0.0,0.0,0.0,0.0,0.0,0.0,0.0,0.0,0.0,0.0,0.0,0.0,0.0,0.0,0.0,0.0,0.0,0.0,0.0,0.0,0.0,0.0,0.0,0.0,0.0,0.0,0.0,0.0,0.0,0.0,0.0,0.0,0.0,0.0,0.0,0.0,0.0,0.0,0.0,0.0,0.0,0.0,0.0,0.0,0.0,0.0,0.0,0.0,0.0,0.0,0.0,0.0,0.0,0.0,0.0,0.0,0.0,0.0,0.0,0.0,0.0,0.0,0.0,0.0,0.0,0.0,0.0,0.0,0.0,0.0,0.0,0.0,0.0,0.0,0.0,0.0,0.0,0.0,0.0,0.0,0.0,0.0,0.0,0.0,0.0,0.0,0.0,0.0,0.0,0.0,0.0,0.0,0.0,0.0,0.0,0.0,0.0,0.0,0.0,0.0,0.0,0.0,0.0,0.0,0.0,0.0,0.0,0.0,0.0,0.0,0.0,0.0,0.0,0.0,0.0,0.0,0.0,0.0,0.0,0.0,0.0,0.0,0.0,0.0,0.0,0.0,0.0,0.0,0.0,0.0,0.0,0.0,0.0,0.0,0.0,0.0,0.0,0.0,0.0,0.0,0.0,0.0,0.0,0.0,0.0,0.0,0.0,0.0,0.0,0.0,0.0,0.0,0.0,0.0,0.0,0.0,0.0,0.0,0.0,0.0,0.0,0.0,0.0,0.0,0.0,0.0,0.0,0.0,0.0,0.0,0.0,0.0,0.0,0.0,0.0,0.0,0.0,0.0,0.0,0.0,0.0,0.0,0.0,0.0,0.0,0.0,0.0,0.0,0.0,0.0,0.0,0.0,0.0,0.0,0.0,0.0,0.0,0.0,0.0,0.0,0.0,0.0,0.0,0.0,0.0,0.0,0.0,0.0,0.0,0.0,0.0,0.0,0.0,0.0,0.0,0.0,0.0,0.0,0.0,0.0,0.0,0.0,0.0,0.0,0.0,0.0,0.0,0.0,0.0,0.0,0.0,0.0,0.0,0.0,0.0,0.0,0.0,0.0,0.0,0.0,0.0,0.0,0.0,0.0,0.0,0.0,0.0,0.0,0.0,0.0,0.0,0.0,0.0,0.0,0.0,0.0,0.0,0.0,0.0,0.0,0.0,0.0,0.0,0.0,0.0,0.0,0.0,0.0,0.0,0.0,0.0,0.0,0.0,0.0,0.0,0.0,0.0,0.0,0.0,0.0,0.0,0.0,0.0,0.0,0.0,0.0,0.0,0.0,0.0,0.0,0.0,0.0,0.0,0.0,0.0,0.0,0.0,0.0,0.0,0.0,0.0,0.0,0.0,0.0,0.0,0.0,0.0,0.0,0.0,0.0,0.0,0.0,0.0,0.0,0.0,0.0,0.0,0.0,0.0,0.0,0.0,0.0,0.0,0.0,0.0,0.0,0.0,0.0,0.0,0.0,0.0,0.0,0.0,0.0,0.0,0.0,0.0,0.0,0.0,0.0,0.0,0.0,0.0,0.0,0.0,0.0,0.0,0.0,0.0,0.0,0.0,0.0,0.0,0.0,0.0,0.0,0.0,0.0,2.1036,0.0,0.0,0.0,0.0,0.0,0.0,0.0,0.0,0.0,0.0,0.0,0.0,0.0,0.0,0.0,0.0,0.0,0.0,0.0,0.0,0.0,0.0,0.0,0.0,1.9209,1.9266,2.0009,2.0597,2.0927,2.0971,0.0,0.0,0.0,0.0,0.0,1.9401,1.9735,2.0106,2.0461,2.1925,2.2751,2.2931,2.3162,2.2496,2.1164,0.0,0.0,0.0,0.0,0.0,0.0,0.0,0.0,0.0,0.0,0.0,0.0,0.0,0.0,0.0,0.0,0.0,0.0,0.0,0.0,0.0,0.0,0.0,0.0,0.0,0.0,0.0,0.0,0.0,0.0,0.0,0.0,0.0,0.0,0.0,0.0,0.0,0.0,0.0,0.0,0.0,0.0,0.0,0.0,0.0,0.0,0.0,0.0,0.0,0.0,0.0,0.0,0.0,0.0,0.0,0.0,0.0,0.0,0.0,0.0,0.0,0.0,0.0,0.0,0.0,0.0,0.0,0.0,0.0,0.0,0.0,2.2598,0.0,0.0,0.0,0.0,0.0,0.0,0.0,0.0,0.0,0.0,0.0,0.0,0.0,0.0,0.0,0.0,0.0,0.0,0.0,0.0,0.0,1.9308,2.0316,2.0325,2.0424,2.0809,2.1958,2.2139,2.093,2.1519,0.0,0.0,0.0,1.9574,1.9382,1.9651,2.038,2.153,2.2786,2.4129,2.5542,2.5769,2.4499,2.2004,2.2983,0.0,0.0,0.0,0.0,0.0,0.0,0.0,0.0,0.0,0.0,0.0,0.0,0.0,0.0,0.0,0.0,0.0,0.0,0.0,0.0,0.0,0.0,0.0,0.0,0.0,0.0,0.0,0.0,0.0,0.0,0.0,0.0,0.0,0.0,0.0,0.0,0.0,0.0,0.0,0.0,0.0,0.0,0.0,0.0,0.0,0.0,0.0,0.0,0.0,0.0,0.0,0.0,0.0,0.0,0.0,0.0,0.0,0.0,0.0,0.0,0.0,0.0,0.0,2.8086,2.8354,2.8276,2.8276,2.8276,2.8158,2.5957,2.5391,2.5771,2.3945,0.0,0.0,0.0,0.0,0.0,0.0,0.0,0.0,0.0,0.0,0.0,0.0,0.0,0.0,0.0,0.0,0.0,0.0,0.0,1.9728,2.0099,2.0654,2.0986,2.1078,2.2097,2.2295,2.1125,2.1596,0.0,0.0,2.035,2.0341,1.9753,2.1032,2.1718,2.1753,2.3886,2.5571,2.6868,2.8181,2.7976,2.6572,2.5322,2.4908,2.5087,0.0,0.0,0.0,0.0,0.0,0.0,0.0,0.0,0.0,0.0,0.0,0.0,0.0,0.0,0.0,0.0,0.0,0.0,0.0,0.0,0.0,0.0,0.0,0.0,0.0,0.0,0.0,0.0,0.0,0.0,0.0,0.0,0.0,0.0,0.0,0.0,0.0,0.0,0.0,0.0,0.0,2.203,2.241,0.0,0.0,0.0,0.0,0.0,0.0,0.0,0.0,0.0,0.0,0.0,0.0,0.0,2.7845,2.9019,2.9863,3.0117,2.9785,3.0605,3.082,3.0469,3.0469,3.0469,3.0449,3.0098,0.0,2.6797,2.6152,0.0,0.0,0.0,0.0,0.0,0.0,0.0,0.0,0.0,0.0,0.0,0.0,0.0,0.0,0.0,0.0,0.0,0.0,0.0,0.0,0.0,2.2443,2.327,2.3053,2.4355,2.4249,2.2036,2.2542,2.2076,2.0232,2.0401,2.0562,2.0514,2.1702,2.3045,2.4488,2.6517,2.7806,2.8332,2.8983,2.9031,2.8487,2.8358,2.7763,2.6839,2.5574,0.0,0.0,0.0,0.0,0.0,0.0,0.0,0.0,0.0,0.0,0.0,0.0,0.0,0.0,0.0,0.0,0.0,0.0,0.0,0.0,0.0,0.0,0.0,0.0,0.0,0.0,0.0,0.0,0.0,0.0,0.0,0.0,0.0,0.0,0.0,0.0,0.0,0.0,0.0,2.2801,2.4631,2.4193,2.4813,2.4579,0.0,0.0,0.0,0.0,0.0,0.0,0.0,0.0,0.0,2.9414,2.9707,3.0332,3.1367,3.1992,3.2324,3.2383,3.2773,3.2734,3.2305,3.2305,3.2051,3.1601,3.1601,3.082,2.9453,2.8301,2.709,2.5879,0.0,0.0,0.0,0.0,2.4492,2.4746,0.0,0.0,0.0,0.0,0.0,0.0,0.0,0.0,0.0,0.0,0.0,0.0,2.2305,2.4188,2.5218,2.4718,2.635,2.6201,2.3368,2.3517,2.2859,2.1026,2.0721,2.0788,2.128,2.277,2.4757,2.7262,2.8876,2.9725,2.9829,3.0119,3.0223,3.0233,3.1154,3.0532,2.8753,2.7916,2.664,2.5109,0.0,0.0,0.0,0.0,0.0,0.0,0.0,0.0,0.0,0.0,0.0,0.0,0.0,0.0,0.0,0.0,0.0,0.0,0.0,0.0,0.0,0.0,0.0,0.0,0.0,0.0,0.0,0.0,0.0,0.0,0.0,0.0,0.0,0.0,0.0,0.0,0.0,2.4943,2.6806,2.5929,2.694,2.6873,0.0,0.0,0.0,0.0,0.0,0.0,2.8613,2.9453,3.0469,3.166,3.2012,3.2519,3.3281,3.3594,3.3906,3.4238,3.4238,3.4062,3.375,3.375,3.334,3.2718,3.2718,3.2344,3.1719,3.0098,2.8926,2.81,2.6973,2.6289,2.6026,2.6641,2.6738,2.6727,0.0,0.0,0.0,0.0,0.0,0.0,0.0,0.0,0.0,0.0,0.0,2.1918,2.3504,2.5203,2.5923,2.5225,2.7062,2.7364,2.5199,2.4204,2.3311,2.2436,2.1549,2.13,2.1756,2.4799,2.7282,2.9166,3.0139,3.0843,3.1332,3.2276,3.2736,3.2715,3.3308,3.2803,3.1436,3.0727,2.969,2.8436,2.6264,0.0,0.0,0.0,0.0,0.0,0.0,0.0,0.0,0.0,0.0,0.0,0.0,0.0,0.0,0.0,0.0,0.0,0.0,0.0,0.0,0.0,0.0,0.0,0.0,0.0,0.0,0.0,0.0,0.0,0.0,0.0,0.0,0.0,0.0,0.0,0.0,0.0,0.0,2.7549,2.9329,0.0,0.0,0.0,0.0,2.8105,2.9687,3.0859,3.1309,3.2129,3.3008,3.3887,3.3926,3.416,3.4609,3.4629,3.4648,3.4668,3.4668,3.4668,3.4629,3.4629,3.4394,3.3965,3.3965,3.3496,3.2637,3.1328,3.0273,2.9434,2.8945,2.8496,2.8144,2.8184,2.8437,2.8769,0.0,0.0,0.0,0.0,0.0,1.8681,1.9183,1.9911,2.048,2.0831,2.272,2.441,2.5289,2.7358,2.8709,2.8792,2.8672,2.823,2.7565,2.5442,2.4363,2.4732,2.3274,2.335,2.5319,2.7013,2.8649,3.0201,3.1112,3.165,3.1795,3.2162,3.2306,3.234,3.293,3.3346,3.3503,3.1482,2.9981,2.88,2.6929,2.5448,0.0,0.0,0.0,0.0,0.0,0.0,0.0,0.0,0.0,0.0,0.0,0.0,0.0,0.0,0.0,0.0,0.0,0.0,0.0,0.0,0.0,0.0,0.0,0.0,0.0,0.0,0.0,0.0,0.0,0.0,0.0,0.0,0.0,0.0,0.0,0.0,0.0,3.0426,3.1628,0.0,3.0458,3.0906,3.1259,3.1129,3.1976,3.2715,3.3144,3.3984,3.4726,3.5312,3.5605,3.5957,3.6367,3.6367,3.623,3.5976,3.5976,3.5684,3.5137,3.5137,3.4746,3.4082,3.4082,3.373,3.3144,3.2422,3.1601,3.0781,3.0351,2.9902,2.9512,2.9512,2.9609,2.9785,0.0,0.0,0.0,0.0,1.8078,1.8381,1.8933,1.9962,2.0854,2.1316,2.3821,2.5965,2.6868,2.9067,3.0368,3.0106,2.9534,2.8877,2.8121,2.6127,2.5143,2.5485,2.4619,2.5233,2.7676,2.8773,2.9911,3.1133,3.1899,3.2215,3.2215,3.2215,3.2215,3.225,3.264,3.3204,3.367,3.2252,3.1367,3.081,2.9294,2.8147,2.7092,0.0,0.0,0.0,0.0,0.0,0.0,0.0,0.0,0.0,0.0,0.0,0.0,0.0,0.0,0.0,0.0,0.0,0.0,0.0,0.0,0.0,0.0,0.0,0.0,0.0,0.0,0.0,0.0,0.0,0.0,0.0,0.0,0.0,0.0,0.0,3.194,3.2173,3.3499,3.3998,3.3062,3.3235,3.3494,3.3766,3.4098,3.4492,3.4922,3.5644,3.6172,3.6445,3.6738,3.7012,3.7305,3.7305,3.7148,3.6875,3.6738,3.6367,3.582,3.5664,3.5215,3.4512,3.4355,3.4043,3.3613,3.3184,3.2598,3.1914,3.1484,3.1035,3.0644,3.0644,3.0547,3.0469,0.0,0.0,0.0,1.7297,1.7827,1.8381,1.8933,1.9987,2.1295,2.2869,2.4607,2.6342,2.8138,3.017,3.0707,2.9006,2.9669,2.9216,2.6898,2.6214,2.5505,2.459,2.5482,2.6827,2.8669,3.0015,3.1153,3.2008,3.2463,3.2669,3.2669,3.2669,3.2669,3.2669,3.2706,3.2514,3.2211,3.3387,3.4231,3.4751,3.3621,3.2123,3.0482,0.0,0.0,0.0,0.0,0.0,0.0,0.0,0.0,0.0,0.0,0.0,0.0,0.0,0.0,0.0,0.0,0.0,0.0,0.0,0.0,0.0,0.0,0.0,0.0,0.0,0.0,0.0,0.0,0.0,0.0,0.0,0.0,0.0,2.9456,3.2126,3.3782,3.2975,3.4903,3.5799,3.4575,3.5003,3.5554,3.5904,3.6003,3.625,3.666,3.709,3.7324,3.7324,3.7324,3.7344,3.7344,3.7344,3.7324,3.7305,3.6894,3.668,3.666,3.6211,3.5801,3.5371,3.4922,3.4473,3.4062,3.3613,3.3203,3.2793,3.2363,3.1914,3.1523,3.1523,3.125,3.0898,0.0,0.0,1.6697,1.7297,1.7827,1.8381,1.8933,2.0288,2.1568,2.2393,2.5385,2.7737,2.8622,3.0408,3.1661,3.1865,3.0449,2.9755,3.0209,2.7457,2.5892,2.6024,2.7531,2.9063,3.0594,3.0988,3.1629,3.2483,3.2607,3.2669,3.2669,3.2669,3.2669,3.2706,3.3176,3.3999,3.5109,3.5878,3.6798,3.7514,3.4811,3.3473,3.2767,0.0,0.0,0.0,0.0,0.0,0.0,0.0,0.0,0.0,0.0,0.0,0.0,0.0,0.0,0.0,0.0,0.0,0.0,0.0,0.0,0.0,0.0,0.0,0.0,0.0,0.0,0.0,0.0,0.0,0.0,0.0,0.0,3.2768,3.2768,3.3862,3.4962,3.6059,3.6782,3.7143,3.7233,3.7112,3.7109,3.7292,3.7084,3.6992,3.7129,3.7519,3.7754,3.7754,3.8066,3.8223,3.8223,3.8223,3.8066,3.7754,3.7324,3.6973,3.666,3.6211,3.5801,3.5391,3.5254,3.4941,3.4492,3.4062,3.3828,3.3652,3.291,3.2168,3.1523,3.1523,3.125,3.0898,0.0,1.6145,1.66,1.6948,1.7677,1.8304,1.8607,2.0288,2.1769,2.2548,2.5636,2.8047,2.8813,3.0474,3.1577,3.1748,3.0639,2.9782,2.9491,2.7392,2.6689,2.7973,2.9208,3.0429,3.1629,3.2023,3.2478,3.2996,3.3203,3.3182,3.3016,3.3203,3.3099,3.2727,3.3283,3.427,3.5508,3.6137,3.7172,3.8304,3.6432,3.5513,3.5052,3.3093,3.1989,3.1336,2.9854,2.89,2.8298,2.8008,0.0,0.0,0.0,0.0,0.0,0.0,0.0,0.0,0.0,0.0,0.0,0.0,0.0,0.0,0.0,0.0,0.0,0.0,0.0,0.0,0.0,0.0,0.0,0.0,3.2727,3.4691,3.5397,3.5728,3.637,3.7632,3.7943,3.8202,3.8582,3.8231,3.7997,3.8105,3.7771,3.7637,3.7832,3.8066,3.8203,3.8203,3.8437,3.8574,3.8574,3.8574,3.8437,3.8184,3.7754,3.7344,3.6914,3.6484,3.6055,0.0,3.5469,3.5234,3.4941,3.4316,3.4082,0.0,0.0,0.0,0.0,0.0,3.125,3.0898,0.0,1.6145,1.6525,1.6575,1.7501,1.8229,1.8279,2.0112,2.1895,2.297,2.5511,2.762,2.8687,3.0256,3.0909,3.0132,3.0483,2.964,2.6974,2.6883,2.78,2.9911,3.0532,3.1257,3.2112,3.2975,3.341,3.3451,3.3924,3.3865,3.3472,3.3924,3.3637,3.2892,3.345,3.4111,3.4791,3.5519,3.6661,3.7992,3.814,3.7864,3.7186,3.5529,3.46,3.4022,3.2893,3.1562,3.0357,3.0357,0.0,0.0,0.0,0.0,0.0,0.0,0.0,0.0,0.0,0.0,0.0,0.0,0.0,0.0,0.0,0.0,0.0,0.0,0.0,0.0,0.0,0.0,0.0,0.0,3.4463,3.5707,3.7343,3.7653,3.786,3.8212,3.8647,3.8897,3.9004,3.8696,3.8528,3.8489,3.8151,3.8164,3.8555,0.0,0.0,0.0,0.0,3.8574,3.8574,3.8574,3.8574,3.8574,3.8125,3.7734,3.7344,3.6875,3.6465,3.6074,3.5644,3.5469,3.5391,3.457,3.416,3.4023,3.3535,3.3125,3.2695,3.1836,3.1289,3.0957,0.0,1.6145,1.6651,1.7124,1.7777,1.8355,1.8782,2.0363,2.1895,2.297,2.5159,2.7077,2.8147,2.9352,3.0202,3.0453,3.0577,3.0094,2.8849,2.8785,2.9145,2.9953,3.1133,3.2188,3.3099,3.3285,3.3613,3.3927,3.409,3.4031,3.3986,3.409,3.3969,3.39,3.5075,3.5924,3.6538,3.7722,3.8386,3.8714,3.9168,3.9044,3.8416,3.6732,3.6028,3.5776,3.4625,3.4048,3.3771,3.3771,3.3043,3.1989,3.1311,0.0,0.0,0.0,0.0,0.0,0.0,0.0,0.0,0.0,0.0,0.0,0.0,0.0,0.0,0.0,0.0,0.0,0.0,0.0,0.0,3.3903,3.5956,3.7653,3.8005,3.8688,3.904,3.875,3.9055,3.9302,3.9121,3.9,3.8846,3.8563,3.853,3.8476,3.8574,3.8574,3.8574,3.8574,3.8574,3.8574,3.8574,3.8574,3.8574,3.8574,0.0,0.0,3.7773,3.7012,3.6621,3.6523,3.6094,3.5898,3.5859,3.5351,3.4707,3.4004,3.3223,3.2871,3.2695,3.1836,3.1465,3.1348,1.6443,1.6773,1.7124,1.7702,1.8254,1.8682,1.8958,2.0188,2.1568,2.292,2.4607,2.6163,2.7544,2.8448,2.9051,2.9327,2.9465,2.9487,2.9374,2.9786,3.0305,3.0967,3.2432,3.3289,3.3427,3.418,3.4517,3.4463,3.4631,3.4631,3.4484,3.4652,3.4507,3.417,3.5706,3.6714,3.7399,3.8393,3.9032,3.9295,3.9597,3.9371,3.8818,3.7989,3.731,3.6757,3.6157,3.5604,3.5082,3.5082,3.4575,3.3796,3.3244,3.2315,3.111,0.0,0.0,0.0,0.0,0.0,0.0,0.0,0.0,0.0,0.0,0.0,0.0,0.0,0.0,3.2192,0.0,0.0,3.5314,3.6018,3.7467,3.8605,3.8833,3.9433,3.9785,3.9488,3.9674,3.9774,3.9729,3.9535,3.9278,3.8938,3.872,3.8574,3.8574,3.8574,3.8574,3.8574,3.8574,3.8574,3.8574,3.8574,3.8574,3.8574,3.8359,3.8144,3.791,3.748,3.707,3.666,3.6445,3.623,3.5996,3.5566,3.4863,3.4023,3.3594,3.3164,3.2734,3.2305,3.1875,3.1484,1.735,1.7626,1.7852,1.8279,1.8707,1.9033,1.9133,2.0037,2.1245,2.2744,2.3822,2.5084,2.664,2.7193,2.7595,2.7921,2.8362,2.9009,2.9905,3.0575,3.1465,3.2662,3.3703,3.4275,3.4228,3.5162,3.5537,3.5305,3.5354,3.5231,3.4961,3.5498,3.5369,3.4798,3.6537,3.7675,3.8268,3.8995,3.9385,3.9546,3.9772,3.9396,3.8718,3.8869,3.8241,3.7287,3.6985,3.6232,3.5332,3.5332,3.4981,3.4474,3.4048,3.3596,3.2842,3.0859,3.0181,0.0,0.0,0.0,0.0,0.0,0.0,0.0,0.0,0.0,3.1413,3.3167,3.3576,3.3989,3.5086,3.6039,3.7011,3.8129,3.8771,3.9179,3.962,4.0034,4.0303,4.0241,4.0303,4.0348,4.0289,3.993,3.957,3.9248,3.8812,3.8574,3.8574,3.8574,3.8574,3.8574,3.8574,3.8574,3.8574,3.8574,3.8574,3.8574,3.8574,3.8398,3.8047,3.7969,3.75,3.6777,3.6621,3.6348,3.5996,3.5566,3.4922,3.418,3.4101,3.3594,3.291,3.2832,3.2363,3.1738,0.0,1.8481,1.8832,1.8907,1.8958,1.9158,1.9635,2.0289,2.1119,2.2246,2.292,2.3747,2.4926,2.5126,2.5787,2.7243,2.8382,2.9851,3.1867,3.1551,3.2465,3.4986,3.4095,3.469,3.7156,3.5715,3.5607,3.704,3.593,3.5397,3.5355,3.652,3.7002,3.7014,3.9024,3.992,4.0074,4.075,4.0245,3.9044,4.0023,3.9496,3.8165,3.8668,3.8467,3.7713,3.621,3.5282,3.4781,3.4781,3.4449,3.3972,3.3922,3.3847,3.3571,3.2315,0.0,3.1286,3.1587,3.1096,3.0466,3.0302,3.0693,3.1776,0.0,0.0,3.5125,3.6123,3.6661,3.7011,3.7156,3.7922,3.8517,3.8683,3.9447,4.0075,4.0096,4.051,4.0655,4.0282,4.0572,4.0678,4.031,3.993,3.957,3.9248,3.8812,3.8574,3.8574,3.8574,3.8574,3.8574,3.8574,3.8574,3.8574,3.8574,3.8574,3.8574,3.8574,3.8555,3.8496,3.8105,3.7676,3.7187,3.6426,3.6074,3.5996,3.5566,3.5098,3.459,3.4219,3.3769,3.3301,3.293,3.2734,3.2539,0.0,1.8381,1.8732,1.9359,1.9484,1.956,1.9761,2.0012,2.069,2.2121,2.2523,2.317,2.4625,2.5084,2.5369,2.5654,2.8024,2.9803,3.0498,3.2223,3.3894,3.5359,3.579,3.6229,3.6617,3.6493,3.6743,3.7309,3.6013,3.6135,3.761,3.7429,3.773,3.8484,4.0056,4.0763,4.082,4.1861,4.1153,3.9446,4.0551,3.9597,3.7563,3.7789,3.7337,3.6486,3.6157,3.5253,0.0,0.0,3.4098,3.3897,3.3897,3.3671,3.3319,3.2842,3.3018,0.0,3.3574,3.2814,3.1944,0.0,3.2369,3.3386,3.5002,3.5434,3.5785,3.6931,3.7363,3.7653,3.8191,3.8745,3.9261,0.0,4.0199,4.0593,4.0593,4.053,4.0427,4.0241,4.0158,4.0059,3.9902,3.9789,3.957,3.9248,3.8812,3.8574,3.8574,3.8574,3.8574,3.8574,3.8574,3.8574,3.8574,3.8574,3.8574,3.8574,3.8574,3.8574,3.8574,3.8379,3.793,3.7246,3.6387,3.6016,3.6016,3.584,3.5508,3.5059,3.4609,3.418,3.375,3.332,3.3008,3.2734,0.0,1.8329,1.8731,1.9635,1.9811,1.9811,1.9811,1.9811,2.0363,2.1895,2.2071,2.2673,2.4148,2.4983,2.5153,2.4618,2.7654,2.9653,2.9871,3.2554,3.4744,3.6043,3.679,3.7006,3.6645,3.6916,3.7099,3.7112,3.6295,3.6846,3.8684,3.8424,3.8839,3.9803,4.1043,4.1542,4.1452,4.2196,4.1329,3.9546,4.035,3.927,3.7161,3.7059,3.6282,3.5282,3.5429,3.4399,0.0,0.0,3.2893,3.2792,3.2943,3.2817,3.2742,3.3345,3.4525,3.5412,3.4493,0.0,0.0,3.3236,3.3865,3.4879,3.579,3.5997,3.6308,3.7446,3.7777,3.8067,3.8662,3.9261,3.9778,4.0179,4.0593,4.0882,4.0882,4.051,4.0179,4.0054,3.9674,3.9453,3.9432,3.9577,3.9593,3.9518,3.903,3.8793,3.8793,3.8647,3.8574,3.8574,3.8574,3.8574,3.8574,3.8574,3.8574,3.8574,3.8574,3.8574,3.8574,3.8457,3.7988,3.7266,3.6523,3.6133,3.6016,3.6016,3.5781,3.5351,3.4883,3.4434,3.4023,3.3574,3.3223,3.2949,0.0,0.0,1.9158,1.971,1.9811,1.9811,1.9811,1.9811,2.0213,2.1368,2.1518,2.1945,2.302,2.4148,2.48,2.4768,2.7333,2.9615,3.1229,3.2414,3.4507,3.7791,3.6223,3.634,3.8665,3.6793,3.6034,3.6631,3.703,3.7309,3.7407,3.9861,4.0985,4.11,4.2375,4.2685,4.2133,4.1551,4.0425,3.8944,3.8969,3.8241,3.7136,3.6631,3.5705,3.46,3.3545,0.0,0.0,3.0708,3.0357,3.0005,3.0557,3.106,0.0,3.4048,3.6207,3.7171,0.0,0.0,3.6151,3.4475,3.5045,3.6287,3.7218,3.7425,3.757,3.8067,3.8502,3.8745,3.8786,3.953,4.022,4.022,4.0593,4.0882,4.0882,4.051,4.0054,3.955,3.9468,3.933,0.0,3.9391,3.9769,4.0218,3.961,3.9176,3.9176,3.8793,3.8574,3.8574,3.8574,3.8574,3.8574,3.8574,3.8574,3.8574,3.8574,3.8574,3.8555,3.8144,3.7715,3.7266,3.6836,3.6406,3.6016,3.6016,3.5781,3.5351,3.4883,3.4434,3.4023,3.3574,3.3418,3.334,0.0,0.0,0.0,1.9635,1.9811,1.9811,1.9811,2.0137,2.0666,2.1393,2.2472,0.0,0.0,0.0,0.0,0.0,2.7193,2.8925,3.0256,3.2052,3.3916,3.5708,3.6284,3.6858,3.7608,3.7277,3.7516,3.8464,3.7827,3.8159,3.9402,3.9458,3.9728,4.0191,4.0617,4.0701,4.0501,4.0325,3.9722,3.8894,3.8442,3.7638,3.6631,3.6031,3.4675,3.2968,0.0,0.0,3.0005,2.9628,2.9628,2.9829,3.0005,0.0,0.0,3.4455,3.4918,3.4812,3.578,0.0,3.5525,3.579,3.6453,3.7198,3.7819,3.7943,3.7902,3.7757,3.7612,3.7591,3.7902,3.8212,3.8709,3.962,4.0158,4.0551,4.0841,4.0489,4.0034,3.9599,3.9468,0.0,0.0,0.0,0.0,3.955,3.8826,3.8498,3.8793,3.8647,3.8574,3.8574,3.8574,3.8574,3.8574,3.8574,3.8574,3.8574,3.8574,3.8574,3.8555,3.8125,3.7695,3.7266,3.6855,3.6426,3.6016,3.6016,3.5937,3.5742,3.5,3.4609,3.4394,3.3691,3.3418,3.3398,0.0,0.0,0.0,0.0,0.0,0.0,0.0,0.0,0.0,0.0,0.0,0.0,0.0,0.0,0.0,0.0,0.0,2.8197,2.9126,3.0884,3.2491,3.3771,3.4851,3.5489,3.5563,3.5872,3.643,3.7321,3.7154,3.7922,3.9516,3.9149,3.9241,3.9697,3.9697,3.9597,3.9371,3.8969,3.8467,3.7938,3.6935,3.6107,3.5403,3.465,3.3345,0.0,0.0,0.0,2.9377,2.8599,2.885,2.9528,2.9729,3.1486,3.3683,3.4799,3.5156,3.5478,3.6805,3.6513,3.5995,3.6871,3.7405,3.7777,3.7902,3.7943,3.7757,3.7136,3.6639,3.639,3.6701,3.6763,3.726,3.8812,3.9433,3.9992,4.0758,4.0489,4.0096,3.9827,3.9571,3.9599,0.0,0.0,0.0,3.9746,3.9186,3.8858,3.8991,3.8865,3.872,3.8574,3.8574,3.8574,3.8574,3.8574,3.8574,3.8574,3.8574,3.8574,3.8555,3.8281,3.7851,3.7285,3.7012,3.6562,3.6016,3.6016,3.6016,3.5957,3.5234,3.4844,3.4609,3.3906,3.3555,3.3418,0.0,0.0,0.0,0.0,0.0,0.0,0.0,0.0,0.0,0.0,0.0,0.0,0.0,0.0,0.0,0.0,0.0,0.0,2.8021,2.9101,3.0407,3.1964,3.2114,3.242,3.2927,3.2931,3.3147,3.3686,3.5345,3.6668,3.7705,3.8931,3.9471,3.9446,3.9446,3.9145,3.8642,3.7487,3.6734,3.6179,3.4474,3.3822,3.3746,3.2641,0.0,0.0,0.0,0.0,0.0,0.0,0.0,0.0,0.0,0.0,0.0,3.504,3.672,3.8718,3.7001,3.7054,3.7672,3.7582,3.7881,3.8067,3.7612,3.7446,3.7156,3.6225,3.5625,3.5252,0.0,0.0,3.5914,3.7777,3.8502,3.933,4.0675,4.053,4.0261,0.0,0.0,0.0,0.0,0.0,0.0,4.082,0.0,4.0074,3.9714,3.9393,3.905,3.8574,3.8594,3.8594,3.8574,3.8574,3.8574,3.8574,3.8574,3.8574,3.8574,3.8574,3.8105,3.7305,3.7305,3.6816,3.6016,3.6016,3.6016,3.5976,3.5566,3.5117,3.4648,3.4219,3.3789,3.3418,0.0,0.0,0.0,0.0,0.0,0.0,0.0,0.0,0.0,0.0,0.0,0.0,0.0,0.0,0.0,0.0,0.0,0.0,2.7444,2.8147,2.89,2.969,3.0934,3.1864,3.2389,3.3603,3.4505,3.5036,3.5911,3.6205,3.6106,3.6393,3.6383,3.5981,3.5981,3.5906,3.573,3.5027,3.4901,3.5002,0.0,3.2893,3.3194,0.0,0.0,0.0,0.0,0.0,0.0,0.0,0.0,0.0,0.0,0.0,3.5256,0.0,0.0,3.6684,3.7606,3.7741,3.7668,3.8341,3.8336,3.8067,3.7612,3.697,3.6204,3.5293,3.3927,3.2855,0.0,0.0,0.0,3.6349,3.7881,0.0,4.0675,4.0779,0.0,4.0261,0.0,4.0448,4.022,4.0336,0.0,0.0,3.9718,3.9034,3.9301,3.9253,3.9053,3.8594,3.8887,3.8887,3.8574,3.8574,3.8574,3.8574,3.8574,3.8574,3.8574,3.8574,3.8105,3.7305,3.7305,3.6816,3.6016,3.6016,3.6016,3.5976,3.5566,3.5117,3.4648,3.4219,3.3789,3.3418,0.0,0.0,0.0,0.0,0.0,0.0,0.0,0.0,0.0,0.0,0.0,0.0,0.0,0.0,0.0,0.0,0.0,0.0,0.0,2.7253,2.762,2.8172,2.9101,2.9854,3.0407,3.1813,3.2817,3.3326,0.0,0.0,3.4449,3.4449,3.4299,3.3997,3.3997,3.3997,3.3972,3.3395,0.0,0.0,0.0,0.0,0.0,0.0,0.0,0.0,0.0,0.0,0.0,0.0,0.0,3.4365,3.5596,3.6251,3.6687,3.7114,0.0,3.7317,3.8125,3.8175,3.8212,3.8662,3.8357,3.7612,3.6535,3.5728,3.4797,3.3285,3.2002,0.0,0.0,0.0,0.0,0.0,0.0,0.0,4.0344,4.0758,4.0779,0.0,4.0903,0.0,4.082,4.1027,4.1255,0.0,4.0494,3.9919,3.9963,3.9997,3.9741,3.916,3.9156,3.9004,3.8574,3.8574,3.8574,3.8574,3.8574,3.8574,3.8574,3.8574,3.8105,3.7305,0.0,3.6816,3.6016,3.6016,3.6016,3.5996,3.5762,3.5391,3.4941,3.4512,3.4082,3.3691,0.0,0.0,0.0,0.0,0.0,0.0,0.0,0.0,0.0,0.0,0.0,0.0,0.0,0.0,0.0,0.0,0.0,0.0,0.0,0.0,0.0,2.7178,2.7278,2.7494,2.7971,2.9101,2.9905,3.0382,0.0,0.0,0.0,0.0,0.0,0.0,0.0,0.0,0.0,0.0,0.0,0.0,0.0,0.0,0.0,0.0,0.0,0.0,0.0,0.0,0.0,0.0,3.5357,3.6285,3.8266,3.9043,3.9249,3.9066,3.917,3.9174,3.8545,3.8719,3.9057,3.8916,3.8171,3.6949,3.5231,3.4258,3.324,3.1192,0.0,2.9777,2.9881,3.0639,3.194,3.4256,0.0,3.7984,3.993,4.053,4.082,4.0862,4.1276,4.1565,4.1565,4.1628,4.1814,4.2302,4.1938,4.1585,4.1085,4.1124,4.0793,3.9909,3.9401,3.8945,3.8574,3.8574,3.8574,3.8574,3.8574,3.8574,3.8574,3.8574,3.8144,3.7383,3.7324,0.0,3.6094,3.6035,3.6016,3.6016,3.6016,3.5762,3.5332,3.4863,3.4434,3.4004,0.0,0.0,0.0,0.0,0.0,0.0,0.0,0.0,0.0,0.0,2.5636,2.546,0.0,0.0,0.0,0.0,0.0,0.0,0.0,0.0,0.0,2.6625,2.7077,2.7318,2.7419,0.0,0.0,0.0,0.0,0.0,0.0,0.0,0.0,0.0,0.0,0.0,0.0,0.0,0.0,0.0,0.0,0.0,0.0,0.0,0.0,0.0,0.0,0.0,0.0,0.0,3.7109,3.8367,3.8599,3.8847,3.9111,3.8842,3.9443,3.9997,3.9401,3.9922,4.0423,3.9583,3.815,3.6535,3.5148,3.3534,0.0,0.0,0.0,2.8522,2.9354,2.9914,0.0,3.3244,0.0,0.0,0.0,0.0,4.0468,0.0,0.0,0.0,0.0,0.0,0.0,0.0,0.0,4.2369,4.1649,4.1589,4.1234,4.0365,3.9284,3.8652,3.8574,3.8574,3.8574,3.8574,3.8574,3.8574,3.8574,3.8574,3.8301,3.7793,3.7441,0.0,3.6523,3.6172,3.6016,3.6016,3.6016,3.5762,3.5332,3.4863,3.4434,3.4004,0.0,0.0,0.0,0.0,0.0,0.0,0.0,0.0,2.6985,2.8463,2.8626,2.8074,2.6643,2.6499,0.0,0.0,0.0,0.0,0.0,0.0,0.0,0.0,0.0,2.6876,0.0,0.0,0.0,0.0,0.0,0.0,0.0,0.0,0.0,0.0,0.0,0.0,0.0,0.0,0.0,0.0,0.0,0.0,0.0,0.0,0.0,0.0,0.0,0.0,0.0,0.0,3.6179,3.8241,3.959,3.9593,3.9186,3.9579,4.0135,4.0474,3.9673,4.0422,4.1038,3.9506,3.7798,3.5894,3.3824,0.0,0.0,0.0,0.0,2.8317,2.8338,0.0,0.0,0.0,0.0,0.0,0.0,0.0,0.0,0.0,0.0,0.0,0.0,0.0,0.0,0.0,0.0,4.2753,4.2323,4.1909,4.1332,4.0424,3.942,3.8865,3.8865,3.872,3.8574,3.8574,3.8574,3.8574,3.8574,3.8574,3.834,3.791,3.7715,0.0,3.666,3.6445,3.623,3.6016,3.6016,3.5898,3.5664,3.5215,3.4785,3.4336,0.0,0.0,0.0,0.0,0.0,0.0,0.0,2.7424,2.9143,3.0726,3.1088,3.0449,2.8492,2.7586,2.6958,0.0,0.0,0.0,0.0,0.0,0.0,0.0,0.0,0.0,0.0,0.0,0.0,0.0,0.0,0.0,0.0,0.0,0.0,0.0,0.0,0.0,0.0,0.0,0.0,0.0,0.0,0.0,0.0,0.0,0.0,0.0,0.0,0.0,0.0,0.0,3.47,3.6759,3.9446,3.9726,3.9254,3.9877,4.0773,4.1176,3.9647,4.0562,4.1438,3.9218,3.726,3.5148,3.2566,3.189,0.0,0.0,2.8351,2.8538,2.8045,0.0,0.0,0.0,0.0,0.0,0.0,0.0,0.0,0.0,0.0,0.0,0.0,0.0,0.0,0.0,0.0,0.0,4.2932,4.2051,4.1231,4.0398,3.9539,3.9103,3.9103,3.872,3.8574,3.8574,3.8574,3.8574,3.8574,3.8574,3.8379,3.8066,3.7969,0.0,0.0,3.6719,3.6406,3.6016,3.6016,3.6016,3.5976,3.5547,3.5098,3.4629,0.0,0.0,0.0,0.0,0.0,0.0,0.0,2.7366,2.9418,3.1673,3.1085,3.0715,3.1427,3.0069,2.8403,0.0,0.0,0.0,0.0,0.0,0.0,0.0,0.0,0.0,0.0,0.0,0.0,0.0,0.0,0.0,0.0,0.0,0.0,0.0,0.0,0.0,0.0,0.0,0.0,0.0,0.0,0.0,0.0,0.0,0.0,0.0,0.0,0.0,0.0,0.0,0.0,3.3847,3.6157,3.7974,3.9196,3.862,0.0,0.0,3.9188,4.0607,4.2224,3.907,3.6556,3.4383,3.2478,0.0,0.0,3.0078,2.9257,2.8956,2.9761,2.8899,0.0,0.0,0.0,3.3762,0.0,0.0,0.0,0.0,0.0,0.0,0.0,0.0,0.0,0.0,0.0,0.0,4.2952,4.1827,4.0915,4.0398,3.9228,3.8647,3.8647,3.8647,3.8574,3.8574,3.8574,3.8574,3.8574,3.8574,3.8555,3.8496,3.8105,0.0,0.0,3.6836,3.6406,3.6016,3.6016,3.6016,3.5976,3.5547,3.5098,3.4629,0.0,0.0,0.0,0.0,0.0,0.0,0.0,2.8226,3.0223,3.3089,3.3095,3.2792,3.2808,3.1766,2.9998,0.0,0.0,0.0,0.0,0.0,0.0,0.0,0.0,0.0,0.0,0.0,0.0,0.0,0.0,0.0,0.0,0.0,0.0,0.0,0.0,0.0,0.0,0.0,0.0,0.0,0.0,0.0,0.0,0.0,0.0,0.0,0.0,0.0,0.0,0.0,0.0,0.0,3.3721,3.5084,0.0,0.0,3.9486,4.1969,3.9622,4.1595,4.3438,3.9909,3.7459,3.5398,3.301,0.0,3.1379,3.04,2.9897,2.9532,2.9349,2.8314,2.8028,2.9601,3.0077,3.1298,0.0,0.0,0.0,0.0,0.0,0.0,0.0,0.0,0.0,0.0,0.0,0.0,4.2559,4.2056,4.1404,4.0379,3.967,3.9156,3.8958,3.872,3.8574,3.8574,3.8574,3.8574,3.8574,3.8574,3.8574,3.8555,3.8398,0.0,0.0,3.7109,3.6641,3.6016,3.6016,3.6016,3.5996,3.584,3.5488,3.5059,0.0,0.0,0.0,0.0,0.0,2.5458,2.7171,2.8652,3.0596,3.347,3.3848,3.3696,3.3353,3.2475,3.0851,2.8349,0.0,0.0,0.0,0.0,0.0,0.0,0.0,0.0,0.0,0.0,0.0,0.0,0.0,0.0,0.0,0.0,0.0,0.0,0.0,0.0,0.0,0.0,0.0,0.0,0.0,0.0,0.0,0.0,0.0,0.0,0.0,0.0,0.0,0.0,0.0,0.0,0.0,0.0,0.0,0.0,3.82,4.0923,3.9482,4.1553,4.3251,3.9704,3.7846,3.6077,0.0,0.0,3.2109,3.0855,3.0621,3.0306,2.9303,2.8351,2.7998,2.8761,2.8959,2.9994,3.2789,0.0,0.0,0.0,0.0,0.0,0.0,0.0,0.0,0.0,0.0,0.0,0.0,4.2198,4.1544,4.033,3.9806,3.9445,3.9176,3.8793,3.8574,3.8574,3.8574,3.8574,3.8574,3.8574,3.8574,3.8574,3.8574,0.0,0.0,3.7344,3.6875,3.6191,3.6074,3.6016,3.6016,3.6016,3.5762,3.5351,0.0,0.0,0.0,0.0,0.0,0.0,0.0,2.839,3.0306,3.2249,3.251,3.2684,3.317,3.1948,3.0815,3.0131,0.0,0.0,0.0,0.0,0.0,0.0,0.0,0.0,0.0,0.0,3.0306,3.1361,3.1386,0.0,0.0,0.0,0.0,0.0,0.0,0.0,0.0,0.0,0.0,0.0,0.0,0.0,0.0,0.0,0.0,0.0,0.0,0.0,0.0,0.0,0.0,0.0,0.0,0.0,0.0,0.0,3.6994,3.9498,3.8467,4.0001,4.1129,3.8103,3.7112,3.6054,0.0,3.2594,3.2783,3.1797,3.1581,3.1315,3.0351,2.9349,2.8502,2.8008,2.9083,3.0636,3.2478,0.0,0.0,0.0,0.0,0.0,0.0,0.0,0.0,0.0,0.0,0.0,0.0,4.1814,4.1214,4.033,3.961,3.9176,3.9176,3.8793,3.8574,3.8574,3.8574,3.8574,3.8574,3.8574,3.8574,0.0,0.0,0.0,0.0,3.7461,3.7051,3.6621,3.6191,3.6016,3.6016,3.6016,3.5762,3.5391,0.0,0.0,0.0,0.0,0.0,0.0,0.0,2.8042,2.9523,3.1003,3.1555,3.2069,3.268,3.2241,3.1806,3.1598,0.0,0.0,0.0,0.0,0.0,0.0,0.0,0.0,0.0,0.0,3.1235,3.1964,3.234,3.2641,3.2792,3.2215,0.0,0.0,0.0,0.0,0.0,0.0,0.0,0.0,0.0,0.0,0.0,0.0,0.0,0.0,0.0,0.0,0.0,0.0,0.0,0.0,0.0,0.0,0.0,3.2618,0.0,0.0,3.7207,3.8863,4.0305,3.7731,3.6573,3.5534,3.3598,3.2865,3.2557,3.263,3.2089,3.1315,3.0351,2.9395,2.8826,2.9256,2.9704,0.0,0.0,0.0,0.0,0.0,0.0,0.0,0.0,0.0,0.0,0.0,0.0,0.0,0.0,4.1648,4.1214,4.033,4.0094,3.9682,3.9176,3.9103,3.8865,3.8574,3.8574,3.8574,3.8574,3.8574,0.0,0.0,0.0,0.0,0.0,3.7344,3.6875,3.6211,3.6074,3.6016,3.6016,3.6016,3.5937,3.5781,0.0,0.0,0.0,0.0,0.0,0.0,0.0,2.7665,2.8768,3.0045,3.0568,3.1118,3.2017,3.2008,3.2027,3.2286,0.0,0.0,0.0,0.0,0.0,0.0,0.0,0.0,3.0583,3.1135,3.1763,3.2541,3.3119,3.3395,3.337,3.3018,3.2616,3.219,0.0,0.0,0.0,0.0,0.0,0.0,0.0,0.0,0.0,0.0,0.0,0.0,0.0,0.0,0.0,0.0,0.0,0.0,0.0,0.0,0.0,0.0,3.3621,3.5915,0.0,3.7791,3.8764,3.6901,3.618,3.5478,3.3815,3.3182,3.297,3.3064,3.2568,3.1757,3.0441,2.9669,2.9352,2.9501,2.9504,0.0,0.0,0.0,0.0,0.0,0.0,0.0,0.0,0.0,0.0,0.0,0.0,0.0,0.0,4.14,4.11,4.0525,4.0382,4.0094,3.961,3.9321,3.9103,3.8793,3.8647,3.8574,3.8574,3.8574,0.0,0.0,0.0,0.0,0.0,3.7187,3.6738,3.625,3.6094,3.6016,3.6016,3.6016,3.6016,3.5976,0.0,0.0,0.0,0.0,0.0,0.0,0.0,0.0,0.0,2.9378,2.9552,3.0074,3.1292,3.1382,3.1645,0.0,0.0,0.0,0.0,0.0,0.0,0.0,0.0,0.0,3.0633,3.1135,3.1938,3.3111,3.3621,3.3897,3.3897,3.3947,3.337,3.234,3.224,0.0,0.0,0.0,0.0,0.0,0.0,0.0,0.0,0.0,0.0,0.0,0.0,0.0,0.0,0.0,0.0,0.0,0.0,0.0,0.0,0.0,0.0,0.0,0.0,3.648,0.0,0.0,3.5742,3.5597,3.3494,3.3457,0.0,3.3194,3.3111,3.255,3.0759,3.0375,3.0102,2.9267,0.0,0.0,0.0,0.0,0.0,0.0,0.0,0.0,0.0,0.0,0.0,0.0,0.0,0.0,0.0,4.111,4.0882,4.0882,4.0525,4.031,4.031,3.961,3.9248,3.9176,3.8793,3.8574,3.8574,3.8574,0.0,0.0,0.0,0.0,0.0,3.7012,3.666,3.6582,3.6172,3.6016,3.6016,3.6016,3.6016,3.6016,0.0,0.0,0.0,0.0,0.0,0.0,0.0,0.0,0.0,0.0,2.9319,2.9929,3.0713,3.1659,3.2285,0.0,0.0,0.0,0.0,0.0,0.0,0.0,0.0,0.0,3.1185,3.1336,3.1938,3.3111,3.3621,3.3897,3.3897,3.4324,3.4148,3.347,3.2591,3.1838,0.0,0.0,0.0,0.0,0.0,0.0,0.0,0.0,0.0,0.0,0.0,0.0,0.0,0.0,0.0,0.0,0.0,0.0,0.0,0.0,3.0783,3.121,3.2265,0.0,3.3903,3.3165,3.3446,3.3727,0.0,3.3171,3.3244,3.3136,3.3111,3.3015,3.2613,3.2194,3.2205,0.0,0.0,0.0,0.0,0.0,0.0,0.0,0.0,0.0,0.0,0.0,0.0,0.0,0.0,0.0,0.0,4.0924,4.0882,4.0882,4.0811,4.0596,4.031,3.9806,3.9445,3.9176,3.8793,3.8574,3.8574,3.8574,3.8574,0.0,0.0,0.0,3.7402,3.6894,3.6484,3.6152,3.6055,3.6016,3.6016,3.6016,3.6016,3.6152,0.0,0.0,0.0,0.0,0.0,0.0,0.0,0.0,0.0,0.0,0.0,0.0,0.0,0.0,0.0,0.0,0.0,0.0,0.0,0.0,0.0,0.0,0.0,2.9704,3.1361,3.1386,3.219,3.3822,3.4123,3.4399,3.465,3.47,3.4424,3.3847,3.2466,3.1813,0.0,0.0,0.0,0.0,0.0,0.0,0.0,0.0,0.0,0.0,2.9013,2.9289,0.0,3.0708,3.116,3.1336,0.0,0.0,0.0,0.0,3.0231,3.0306,3.0583,3.1838,3.2993,3.2692,3.3043,3.3445,3.3445,3.3269,3.3111,0.0,0.0,0.0,0.0,0.0,0.0,0.0,0.0,0.0,0.0,0.0,0.0,0.0,0.0,0.0,0.0,0.0,0.0,0.0,0.0,0.0,0.0,4.0882,4.0882,4.0882,4.0882,4.0811,4.0596,4.0166,3.9806,3.9445,3.9011,3.8793,3.8574,3.8574,3.8574,0.0,0.0,0.0,3.7246,3.6621,3.623,3.6016,3.6016,3.6016,3.6084,3.6742,3.6539,3.6287,0.0,0.0,0.0,0.0,0.0,0.0,0.0,0.0,0.0,0.0,0.0,0.0,0.0,0.0,0.0,0.0,0.0,0.0,0.0,0.0,0.0,0.0,2.9377,2.9779,3.1361,3.1386,3.239,3.4474,3.465,3.4906,3.5357,3.5102,3.455,3.3721,3.229,3.1813,0.0,0.0,0.0,0.0,0.0,0.0,0.0,0.0,0.0,0.0,0.0,0.0,0.0,3.0532,3.1185,3.1361,3.121,0.0,0.0,0.0,0.0,0.0,3.0005,3.1537,3.3086,3.2867,3.337,3.3872,3.3796,0.0,0.0,0.0,0.0,0.0,0.0,3.2324,0.0,0.0,0.0,0.0,0.0,0.0,0.0,0.0,0.0,0.0,0.0,0.0,0.0,0.0,0.0,0.0,0.0,4.0882,4.0882,4.0882,4.0882,4.0882,4.0882,4.0525,4.0094,3.9714,3.9373,3.8958,3.8574,3.8574,3.8574,3.8535,0.0,0.0,3.7226,3.6367,3.6016,3.6016,3.6016,3.6152,3.6471,3.7662,3.7461,3.7011,0.0,0.0,0.0,0.0,0.0,0.0,0.0,0.0,0.0,0.0,0.0,0.0,0.0,0.0,0.0,0.0,0.0,0.0,0.0,0.0,0.0,3.0547,2.9955,3.0206,3.1361,3.1386,3.2039,3.3345,3.4274,3.4731,3.4831,3.5705,3.5123,3.3194,3.2943,3.234,3.1537,0.0,0.0,0.0,0.0,0.0,0.0,0.0,0.0,0.0,0.0,0.0,0.0,2.9189,3.0231,3.1235,3.0331,0.0,0.0,0.0,0.0,0.0,3.0909,3.2089,3.2842,3.1888,3.2792,3.3771,3.3319,3.3187,0.0,0.0,0.0,0.0,0.0,0.0,0.0,0.0,0.0,0.0,0.0,0.0,0.0,0.0,0.0,0.0,0.0,0.0,0.0,0.0,0.0,0.0,0.0,4.0882,4.0882,4.0882,4.0882,4.0882,4.0882,4.0525,4.0094,3.9714,3.9373,3.8958,3.8574,3.8574,3.8574,3.8535,0.0,3.7305,3.7226,3.6367,3.6016,3.6016,3.6016,3.6742,3.7775,3.8042,3.8705,3.9605,0.0,0.0,0.0,0.0,0.0,0.0,0.0,0.0,0.0,0.0,0.0,0.0,0.0,0.0,0.0,0.0,0.0,0.0,0.0,0.0,0.0,3.1502,3.0959,3.0884,3.1386,3.1989,3.2842,3.3972,3.4731,3.5328,3.5604,3.5504,3.4449,3.2616,3.2616,3.2164,3.1436,3.1989,0.0,0.0,0.0,0.0,0.0,0.0,0.0,0.0,0.0,0.0,0.0,0.0,2.9905,3.0482,3.0306,0.0,0.0,0.0,0.0,0.0,3.0382,3.1537,3.2491,3.1964,3.3571,3.5177,3.4972,3.4896,0.0,0.0,0.0,0.0,0.0,0.0,0.0,0.0,0.0,0.0,0.0,0.0,0.0,0.0,0.0,0.0,0.0,0.0,0.0,0.0,0.0,0.0,0.0,0.0,4.0882,4.0882,4.0882,4.0882,4.0882,4.0525,4.0094,3.9714,3.9498,3.9156,3.8574,3.8574,3.8437,3.8184,0.0,3.7168,3.6914,3.6269,3.6016,3.6016,3.6016,3.6876,3.8175,3.897,4.0581,4.2333,0.0,0.0,0.0,0.0,0.0,0.0,0.0,0.0,0.0,0.0,0.0,0.0,0.0,0.0,0.0,0.0,0.0,0.0,0.0,0.0,3.2579,3.232,3.1861,3.1637,3.1788,3.2641,3.3621,3.468,3.5232,3.583,3.638,3.5378,3.4098,3.2616,3.2616,3.2215,3.1612,3.219,3.2667,0.0,0.0,0.0,0.0,0.0,0.0,0.0,0.0,0.0,0.0,0.0,0.0,0.0,0.0,0.0,0.0,2.9955,2.9704,2.9679,3.0055,3.106,3.2114,3.2516,3.4223,3.5906,3.6329,3.6304,3.6157,0.0,0.0,0.0,0.0,0.0,0.0,0.0,0.0,0.0,0.0,0.0,0.0,0.0,0.0,0.0,0.0,0.0,0.0,0.0,0.0,0.0,0.0,0.0,4.0882,4.0882,4.0882,4.0882,4.0882,4.0596,4.0238,3.9858,3.9642,3.9301,3.872,3.8549,3.8242,3.7891,3.7383,3.6973,3.6641,3.6191,3.6219,3.6471,3.6471,3.7528,3.9212,4.0257,4.2206,4.4161,0.0,0.0,0.0,0.0,0.0,0.0,0.0,0.0,0.0,0.0,0.0,0.0,0.0,0.0,0.0,0.0,0.0,0.0,0.0,0.0,3.2764,3.2553,3.2301,3.2416,3.2986,3.3086,3.3621,3.468,3.5232,3.583,3.6405,3.5755,3.4831,3.3771,3.3771,3.3169,3.219,3.2767,3.3043,3.3011,0.0,0.0,0.0,0.0,0.0,0.0,0.0,0.0,0.0,0.0,0.0,0.0,0.0,0.0,3.0507,2.9955,2.9402,2.9289,3.0859,3.1361,3.1813,3.3395,3.3922,3.4474,3.6053,3.5981,3.5984,3.7513,0.0,0.0,0.0,0.0,0.0,0.0,0.0,0.0,0.0,0.0,0.0,0.0,0.0,0.0,0.0,0.0,0.0,0.0,0.0,0.0,0.0,0.0,0.0,4.0882,4.0882,4.0882,4.0882,4.0882,4.0668,4.0238,3.9538,3.9176,3.9156,3.8308,3.7949,3.7871,3.707,3.6699,3.6641,3.6191,3.6742,3.7975,3.7975,3.9605,4.2016,4.2102,4.3051,4.4285,0.0,0.0,0.0,0.0,0.0,0.0,0.0,0.0,0.0,0.0,0.0,0.0,0.0,0.0,0.0,0.0,0.0,0.0,0.0,3.2146,3.2186,3.1862,3.1751,3.1964,3.2516,3.3571,3.4474,3.5182,3.578,3.5981,3.5855,3.5257,3.4449,3.3395,3.3395,3.2943,3.224,3.2842,3.3111,3.3011,3.1838,0.0,0.0,0.0,0.0,0.0,0.0,0.0,0.0,0.0,2.8097,2.875,2.875,2.9377,3.0005,2.9428,2.9063,2.9113,3.0131,3.1135,3.2139,3.3144,3.4424,3.5827,0.0,3.804,3.8868,3.9821,3.9396,0.0,0.0,0.0,0.0,0.0,0.0,0.0,0.0,0.0,0.0,0.0,0.0,0.0,0.0,0.0,0.0,0.0,0.0,0.0,0.0,0.0,0.0,4.0882,4.0882,4.0882,4.0882,4.0668,4.0473,4.0206,3.9973,3.947,3.8759,3.8438,3.785,3.7129,3.6816,3.6523,3.625,3.6094,3.6809,3.8242,3.9997,4.1377,4.242,4.3263,4.3826,4.4347,0.0,0.0,0.0,0.0,0.0,0.0,0.0,0.0,0.0,0.0,0.0,0.0,0.0,0.0,0.0,0.0,0.0,0.0,3.1163,3.1354,3.1499,3.1576,3.1139,3.1311,3.219,3.352,3.455,3.5232,3.583,3.583,3.5232,3.468,3.4148,3.3571,3.3244,3.2943,3.2742,3.2792,3.2792,3.2717,3.1587,3.116,0.0,0.0,0.0,0.0,0.0,0.0,0.0,0.0,2.7519,2.7921,2.8247,2.89,2.9428,2.9013,2.9139,2.9553,2.9955,3.111,3.2441,3.337,0.0,0.0,3.8165,3.9421,4.0601,4.1802,4.1126,3.9909,3.8643,0.0,0.0,0.0,0.0,0.0,0.0,0.0,0.0,0.0,0.0,0.0,0.0,0.0,0.0,0.0,0.0,0.0,0.0,0.0,0.0,0.0,4.053,4.0448,4.0448,4.0185,3.995,3.9803,3.99,3.9384,3.8445,3.8235,3.7578,3.666,3.6523,3.6289,3.6016,3.6471,3.7709,3.9605,4.1569,4.2546,4.2988,4.3514,4.395,4.4347,0.0,0.0,0.0,0.0,0.0,0.0,0.0,0.0,0.0,0.0,0.0,0.0,0.0,0.0,0.0,0.0,0.0,0.0,3.1495,3.0754,3.0791,3.1911,3.057,3.0532,3.2164,3.2767,3.3621,3.468,3.5232,3.5207,3.4655,3.4148,3.4198,3.465,3.3571,3.337,3.3796,3.2667,3.2215,3.2114,3.1035,3.0608,0.0,0.0,0.0,0.0,0.0,0.0,0.0,0.0,2.7304,2.7469,2.8574,2.8888,2.8888,2.8888,2.969,3.0608,3.0608,3.1386,3.2616,3.4254,0.0,0.0,3.9069,3.9697,4.0475,4.3237,4.2936,4.2213,4.2213,0.0,0.0,0.0,0.0,0.0,0.0,0.0,0.0,0.0,0.0,0.0,0.0,0.0,0.0,0.0,0.0,0.0,0.0,0.0,0.0,0.0,3.9716,3.9468,3.9468,3.9468,3.933,3.8983,3.8983,3.8755,3.8386,3.755,3.7006,3.6641,3.6211,3.6016,3.6084,3.7528,3.9736,4.2293,4.2293,4.3137,4.4161,4.2799,4.3177,4.4347,0.0,0.0,0.0,0.0,0.0,0.0,0.0,0.0,0.0,0.0,0.0,0.0,0.0,0.0,0.0,0.0,0.0,0.0,3.0747,3.0499,3.0467,3.0596,3.0162,3.0113,3.0482,3.1813,3.3219,3.468,3.45,3.4299,3.4148,3.3972,3.3571,3.2968,3.3043,3.2717,3.2114,3.1788,3.1637,3.1587,3.0884,3.0608,0.0,0.0,0.0,0.0,0.0,0.0,0.0,0.0,0.0,0.0,2.767,2.8574,2.9377,2.8574,2.9151,3.003,3.003,3.1411,0.0,3.4399,0.0,0.0,0.0,4.0576,0.0,0.0,4.2583,4.2095,4.2013,0.0,0.0,0.0,0.0,0.0,0.0,0.0,0.0,0.0,0.0,0.0,0.0,0.0,0.0,0.0,0.0,0.0,0.0,0.0,0.0,0.0,3.953,3.9468,3.9468,3.9468,3.9302,3.8856,3.863,3.815,3.7579,3.7321,3.6828,3.6211,3.6074,3.6016,3.6219,3.8573,4.0062,4.0968,4.2925,4.3974,4.4285,4.4137,4.4323,4.4717,0.0,0.0,0.0,0.0,0.0,0.0,0.0,0.0,0.0,0.0,3.0598,3.0598,0.0,0.0,0.0,0.0,0.0,0.0,0.0,3.0249,3.0069,3.0086,2.9817,2.9902,3.0446,3.1386,3.2491,3.3721,3.3621,3.3345,3.2893,3.3119,3.2993,3.2566,3.2918,3.2566,3.1712,3.1486,3.1135,3.0733,3.0407,3.0281,3.0131,0.0,0.0,0.0,0.0,0.0,0.0,0.0,0.0,0.0,2.7218,2.7971,2.875,2.8499,2.9377,3.0532,3.0984,3.2541,0.0,3.5705,3.7713,3.9672,4.0902,0.0,0.0,0.0,0.0,4.2806,0.0,0.0,0.0,0.0,0.0,0.0,0.0,0.0,0.0,0.0,0.0,0.0,0.0,0.0,0.0,0.0,0.0,0.0,0.0,0.0,0.0,0.0,3.9102,3.8999,3.8999,3.8999,3.8786,3.8294,3.7956,3.7549,3.6915,3.6915,3.6572,3.6016,3.6016,3.6355,3.7011,3.9277,4.0516,4.1248,4.3451,4.4285,4.4347,4.4656,4.4779,4.4902,0.0,0.0,0.0,0.0,0.0,0.0,0.0,0.0,0.0,0.0,3.0598,3.0598,0.0,0.0,0.0,0.0,0.0,0.0,0.0,0.0,2.9839,3.0187,2.9601,2.9956,3.1452,3.1411,3.1637,3.2139,3.2616,3.234,3.1411,3.1964,3.2466,3.296,3.3011,3.2616,3.1964,3.1411,3.0583,2.9654,2.9654,2.9654,2.9528,2.8448,0.0,0.0,0.0,0.0,0.0,0.0,0.0,0.0,2.7153,2.7318,2.7544,2.8461,2.998,3.1562,3.2641,3.4173,0.0,3.7638,3.8642,0.0,4.181,4.3011,4.374,0.0,0.0,0.0,0.0,0.0,0.0,0.0,0.0,0.0,0.0,0.0,0.0,0.0,0.0,0.0,0.0,0.0,0.0,0.0,0.0,0.0,0.0,0.0,0.0,3.8703,3.8398,3.8191,3.8191,3.8191,3.7971,3.7616,3.728,3.6944,3.6519,3.6451,3.6336,3.6084,3.6152,3.6924,3.8242,3.9736,4.1184,4.242,4.3764,4.4285,4.4347,4.4656,4.484,4.4963,0.0,0.0,0.0,0.0,0.0,0.0,0.0,0.0,0.0,0.0,0.0,0.0,0.0,0.0,0.0,0.0,0.0,0.0,0.0,0.0,3.0344,3.0187,3.0232,3.0842,3.2014,3.1612,3.1461,3.1562,3.1286,3.1235,3.1411,3.1964,3.2039,3.1763,3.2215,3.1612,3.0281,2.9704,2.9076,2.8473,2.8473,2.8473,2.8398,2.772,2.7469,0.0,0.0,0.0,0.0,0.0,0.0,0.0,2.7153,2.757,2.7896,2.7695,2.9126,3.0934,3.1562,3.3294,0.0,0.0,4.0126,4.1735,4.2585,4.2986,0.0,0.0,0.0,0.0,0.0,0.0,0.0,0.0,0.0,0.0,0.0,0.0,0.0,0.0,0.0,0.0,0.0,0.0,0.0,0.0,0.0,0.0,0.0,0.0,0.0,3.8316,3.8233,3.8191,3.8191,3.8191,3.7971,0.0,3.7549,3.7146,3.6519,3.62,3.62,3.6451,3.726,3.7975,3.8684,4.0904,4.2038,4.242,4.3764,4.4285,4.4347,4.4656,4.4963,4.527,0.0,0.0,0.0,0.0,0.0,0.0,0.0,0.0,0.0,0.0,0.0,0.0,0.0,0.0,0.0,0.0,0.0,0.0,0.0,3.0598,3.05,3.0221,3.0794,3.1105,3.106,3.0783,3.0633,3.0633,3.008,3.0231,3.1035,3.1838,3.2215,3.2215,3.2491,3.1712,3.0156,2.9578,2.8725,2.7745,2.7996,2.8097,2.8047,2.7494,2.7293,2.7253,2.67,0.0,0.0,0.0,0.0,0.0,0.0,0.0,2.7369,2.7595,2.8699,3.0156,3.1763,0.0,0.0,3.922,0.0,0.0,0.0,0.0,0.0,0.0,0.0,0.0,0.0,0.0,0.0,0.0,0.0,0.0,0.0,0.0,0.0,0.0,0.0,0.0,0.0,0.0,0.0,0.0,0.0,0.0,0.0,3.8191,3.8503,3.9144,3.9123,3.9451,4.0149,3.9517,3.9057,3.8838,3.7863,3.7348,3.724,3.6403,3.6539,3.7488,3.7193,3.7595,3.8486,4.0452,4.1697,4.242,4.3764,4.4285,4.4347,4.484,4.5147,4.5392,0.0,0.0,0.0,0.0,0.0,0.0,0.0,0.0,0.0,0.0,0.0,0.0,0.0,0.0,0.0,0.0,0.0,0.0,0.0,3.0506,3.0397,3.0015,3.0919,3.0894,2.9843,2.9704,2.9704,2.9804,2.9126,2.9553,3.106,3.1738,3.2441,3.3111,3.2867,3.1913,3.0432,2.9779,2.8599,2.7193,2.7645,2.7821,2.777,2.7318,2.7178,2.7102,2.665,2.6499,2.6499,2.6499,0.0,0.0,0.0,0.0,2.6675,2.7544,2.8273,2.9289,0.0,0.0,3.6636,0.0,0.0,0.0,0.0,0.0,0.0,0.0,0.0,0.0,0.0,0.0,0.0,0.0,0.0,0.0,0.0,0.0,0.0,0.0,0.0,0.0,0.0,0.0,0.0,0.0,0.0,0.0,3.9012,3.8702,3.9123,4.0516,4.0322,4.0817,4.2201,4.1075,4.0516,4.0452,3.8639,3.8242,3.8948,3.7461,3.7575,3.8927,3.7709,3.7842,3.9014,4.0387,4.1569,4.2736,4.3888,4.4285,4.4347,4.4963,4.527,4.5392,0.0,0.0,0.0,0.0,0.0,0.0,0.0,0.0,0.0,0.0,3.0598,3.0598,3.0598,3.0074,0.0,0.0,0.0,0.0,2.9726,0.0,0.0,2.9285,2.9865,3.0083,2.9818,2.9302,2.9302,2.9804,2.8725,2.9779,3.2742,3.1888,3.2064,3.3086,3.2064,3.0984,2.9829,2.8775,2.7645,2.66,2.6675,2.6725,2.67,2.6625,2.66,2.66,2.6524,2.6499,2.6499,2.6499,2.6499,0.0,0.0,0.0,0.0,2.6675,2.7394,2.8499,0.0,0.0,0.0,0.0,0.0,0.0,0.0,0.0,0.0,0.0,0.0,0.0,0.0,0.0,0.0,0.0,0.0,0.0,0.0,0.0,0.0,0.0,0.0,0.0,0.0,0.0,0.0,0.0,0.0,0.0,4.1779,4.0581,4.0581,4.1884,4.0839,4.0817,4.2201,4.2011,4.1756,4.1478,4.0924,4.1332,4.2563,4.0882,4.017,4.0494,4.1396,4.1906,4.2247,4.3302,4.3826,4.4037,4.4223,4.4285,4.4347,4.4717,4.5025,4.5331,0.0,0.0,0.0,0.0,0.0,0.0,0.0,0.0,0.0,0.0,0.0,3.0598,3.0598,3.0335,0.0,0.0,0.0,0.0,3.0161,3.0327,0.0,0.0,2.9697,2.9382,2.8969,2.8341,2.8122,2.8398,2.7896,2.9503,3.3068,3.224,3.3119,3.5303,3.3571,3.2365,3.1486,2.9101,2.7645,2.6927,2.6625,2.7253,2.8234,2.6977,2.7278,2.8209,2.6952,2.6499,2.6499,2.6499,2.6499,2.6499,2.6499,0.0,0.0,0.0,0.0,0.0,3.0909,0.0,0.0,0.0,0.0,0.0,0.0,0.0,0.0,0.0,0.0,0.0,0.0,0.0,0.0,0.0,0.0,0.0,0.0,0.0,0.0,0.0,0.0,0.0,0.0,0.0,0.0,0.0,0.0,4.3298,4.2264,4.1651,4.197,4.3357,4.2793,4.3107,4.4497,4.3731,4.2832,4.167,4.1373,4.1843,4.2942,4.2161,4.1843,4.1779,4.146,4.1738,4.2546,4.2988,4.3639,4.4285,4.4285,4.4285,4.4347,4.4902,4.5147,4.5392,0.0,0.0,0.0,0.0,0.0,0.0,0.0,0.0,0.0,0.0,0.0,0.0,3.0598,0.0,0.0,0.0,0.0,0.0,3.0097,0.0,0.0,0.0,0.0,2.8707,2.7877,2.7322,2.7178,2.7293,2.7293,2.939,3.3269,3.2842,3.45,3.7713,3.5353,3.3771,3.2667,2.9905,2.8423,2.7896,2.7505,2.8334,2.9679,2.8611,2.9214,3.0331,2.8133,2.7354,2.7253,2.6675,2.6499,0.0,0.0,0.0,0.0,0.0,0.0,0.0,0.0,0.0,0.0,0.0,0.0,0.0,0.0,0.0,0.0,0.0,0.0,0.0,0.0,0.0,0.0,0.0,0.0,0.0,0.0,0.0,0.0,0.0,0.0,0.0,0.0,0.0,0.0,0.0,0.0,4.3433,4.2809,4.2638,4.3168,4.4549,4.4449,4.4951,4.6301,4.5342,4.4127,4.2769,4.2454,4.2667,4.3279,4.3318,4.3279,4.3028,4.1865,4.1952,4.2799,4.2799,4.3389,4.4285,4.4409,4.4347,4.4409,4.5147,4.5392,4.5392,0.0,0.0,0.0,0.0,0.0,0.0,0.0,0.0,0.0,0.0,0.0,0.0,3.0598,2.9522,2.8796,2.8767,0.0,0.0,0.0,0.0,0.0,0.0,0.0,0.0,2.6627,2.6559,2.6801,2.7293,2.7293,2.9528,3.3847,3.3822,3.5881,3.9446,3.6636,3.4229,3.219,3.0984,3.0156,2.9654,2.9628,2.9704,3.0005,3.1989,3.286,3.2659,3.0407,2.9628,2.9302,0.0,0.0,0.0,0.0,2.6499,2.6499,0.0,0.0,0.0,0.0,0.0,0.0,0.0,0.0,0.0,0.0,0.0,0.0,0.0,0.0,0.0,0.0,0.0,0.0,0.0,0.0,0.0,0.0,0.0,0.0,0.0,0.0,0.0,0.0,0.0,0.0,0.0,0.0,4.4494,4.4461,4.3722,4.3953,4.5404,4.4683,4.4951,4.6301,4.624,4.5999,4.5574,4.5574,4.5245,4.4717,4.5025,4.484,4.4223,4.447,4.4409,4.4223,4.4223,4.4223,4.4347,4.4656,4.4594,4.4409,4.5392,4.5574,4.5392,0.0,0.0,0.0,0.0,0.0,0.0,0.0,0.0,0.0,0.0,0.0,0.0,0.0,3.0191,2.9755,2.9319,2.9058,0.0,0.0,0.0,0.0,0.0,0.0,0.0,2.7162,2.6714,2.66,2.6801,2.6801,2.8473,3.1813,3.2139,3.3596,3.5956,3.5303,3.4731,3.4104,3.0869,2.9829,3.0306,3.0306,3.1386,3.2968,3.3043,3.3972,3.4926,3.2692,0.0,0.0,0.0,0.0,0.0,2.7027,2.6524,2.5912,2.5912,2.6197,0.0,0.0,0.0,0.0,0.0,0.0,0.0,0.0,0.0,0.0,0.0,0.0,0.0,0.0,0.0,0.0,0.0,0.0,0.0,0.0,0.0,0.0,0.0,0.0,0.0,0.0,0.0,0.0,0.0,0.0,0.0,4.4593,4.4327,4.46,4.5472,4.5231,4.5445,4.6301,4.6301,4.624,4.612,4.5878,4.5574,4.5147,4.527,4.4963,4.4347,4.4656,4.4594,4.4285,4.4285,4.4285,4.4347,4.4656,4.4717,4.4717,4.5514,4.5696,4.5696,0.0,0.0,0.0,0.0,0.0,0.0,0.0,0.0,3.0657,3.0657,0.0,0.0,0.0,0.0,2.9987,2.9348,2.9319,2.9493,2.9892,2.9709,0.0,0.0,0.0,0.0,2.7162,2.6714,2.6499,2.6499,2.6675,2.8008,3.0357,3.106,3.229,3.3897,3.3696,3.4223,3.5031,3.2072,3.1085,3.1486,3.2039,3.3201,3.4776,3.5353,3.6383,3.7236,0.0,0.0,0.0,0.0,0.0,0.0,2.7946,2.6942,2.5887,2.5887,2.6197,0.0,2.7795,0.0,0.0,0.0,0.0,0.0,0.0,0.0,0.0,0.0,0.0,0.0,0.0,0.0,0.0,0.0,0.0,0.0,0.0,0.0,0.0,0.0,0.0,0.0,0.0,0.0,0.0,0.0,0.0,0.0,4.4041,4.4242,4.4618,4.5171,4.5372,4.5673,4.6024,4.6225,4.6301,4.6301,4.5939,4.5696,4.5453,4.5331,4.5086,4.4656,4.4779,4.4594,4.4285,4.4285,4.4347,4.447,4.484,4.4963,4.5025,4.5696,4.5878,4.5817,0.0,0.0,0.0,0.0,0.0,0.0,0.0,0.0,3.0835,3.0835,0.0,0.0,0.0,0.0,0.0,2.8854,2.8796,2.8742,2.8663,2.9257,0.0,0.0,0.0,0.0,2.6559,2.6499,2.6499,2.6524,2.7027,2.8097,2.9754,3.0809,3.219,3.3696,3.2089,3.2591,3.4625,3.4505,3.3972,3.3244,3.4781,3.5157,3.5253,3.9044,4.0174,0.0,3.7889,3.696,0.0,3.3319,0.0,0.0,2.9214,2.777,2.6524,2.6474,2.6499,2.6524,0.0,0.0,0.0,0.0,0.0,0.0,0.0,0.0,0.0,0.0,0.0,0.0,0.0,0.0,0.0,0.0,0.0,0.0,0.0,0.0,0.0,0.0,0.0,0.0,0.0,0.0,0.0,0.0,0.0,4.2986,4.2986,4.3514,4.4041,4.4593,4.5171,4.5497,4.5497,4.6024,4.6301,4.6301,4.5939,4.5817,4.5757,4.5453,4.5331,4.527,4.4963,4.4656,4.4347,4.4347,4.4532,4.484,4.5147,4.5331,4.5392,4.6059,4.6059,4.5878,0.0,0.0,0.0,0.0,0.0,3.2792,3.2079,3.172,3.1509,0.0,0.0,0.0,3.1322,3.109,3.0916,3.0742,3.0742,3.0506,3.0067,2.9767,2.9177,2.8266,2.7966,2.7546,2.7077,2.67,2.67,2.7077,2.6851,2.7178,2.7996,2.8699,2.9704,3.0934,3.0859,3.1386,3.2215,3.0608,3.1386,3.3646,3.3269,3.4977,0.0,0.0,0.0,0.0,0.0,3.932,3.8015,0.0,3.4625,3.1838,0.0,2.7419,2.6927,2.6063,2.6449,2.7002,2.66,0.0,0.0,0.0,0.0,0.0,0.0,0.0,0.0,0.0,0.0,0.0,0.0,0.0,0.0,0.0,0.0,0.0,0.0,0.0,0.0,0.0,0.0,0.0,0.0,0.0,0.0,0.0,4.2986,4.2986,4.2986,4.3514,4.3865,4.4016,4.497,4.5497,4.5497,4.6024,4.6301,4.6301,4.618,4.5999,4.5817,4.5939,4.5757,4.5331,4.5453,4.5331,4.5025,4.4779,4.4717,4.484,4.5147,4.5453,4.5696,4.5878,4.5999,4.618,0.0,0.0,0.0,0.0,0.0,3.4107,3.3688,3.3112,3.2805,0.0,0.0,0.0,3.2367,3.2571,3.2513,3.1959,3.164,3.1228,3.0606,3.0197,2.9439,2.8136,2.8179,2.796,2.7304,2.7228,2.7228,2.7293,2.7002,2.6876,2.6977,2.7494,2.8122,2.875,2.9076,2.9654,3.0256,2.8499,2.9854,0.0,3.4248,0.0,0.0,3.9774,4.0701,0.0,0.0,0.0,3.9823,3.9245,3.6709,0.0,0.0,2.8699,2.8097,2.6967,2.7268,2.7846,2.7293,2.7394,0.0,0.0,0.0,0.0,0.0,0.0,0.0,0.0,0.0,0.0,0.0,0.0,0.0,0.0,0.0,0.0,0.0,0.0,0.0,0.0,0.0,0.0,0.0,0.0,0.0,4.2986,4.2986,4.2986,4.2986,4.3288,4.3463,4.3463,4.4317,4.4895,4.5121,4.5673,4.6075,4.6301,4.6301,4.618,4.5999,4.6059,4.5939,4.5696,4.5635,4.5574,4.5514,4.5331,4.5208,4.527,4.5453,4.5696,4.5999,4.5999,4.612,4.6301,0.0,0.0,3.6507,3.6567,3.6118,3.5729,3.5729,3.4872,3.4466,0.0,3.4518,3.4114,3.4317,3.4574,3.425,3.3021,3.215,3.1349,3.0507,3.0449,2.9585,2.7571,2.8565,2.8607,2.7304,2.7821,2.7846,2.7293,2.7293,2.7027,2.6499,2.7002,2.7228,2.7228,2.7228,2.7795,2.8737,2.7996,2.9453,3.2616,3.6056,3.7462,0.0,0.0,4.1781,4.158,4.2082,4.1932,4.1376,4.0752,3.809,0.0,0.0,3.1009,3.0005,2.8674,2.8825,2.9214,2.8574,2.8473,2.8875,0.0,0.0,0.0,3.1854,3.116,0.0,0.0,0.0,0.0,0.0,0.0,0.0,0.0,0.0,0.0,0.0,0.0,0.0,0.0,0.0,0.0,0.0,4.2936,4.2986,4.2986,4.2986,4.2986,4.2986,4.2986,4.2986,4.2986,4.3514,4.4066,4.4618,4.5196,4.5773,4.6301,4.6301,4.6301,4.6301,4.5999,4.5999,4.624,4.5696,4.5574,4.5878,4.5878,4.5817,4.5817,4.5817,4.5999,4.6301,4.624,4.624,4.6301,0.0,3.6118,3.6656,3.7135,3.7135,3.7045,3.7045,3.6309,3.6137,3.7116,3.7259,3.7883,3.945,3.7883,3.6353,3.541,3.3811,3.2122,3.0371,2.9816,2.8942,2.7564,2.8121,2.8092,2.7329,2.7821,2.7846,2.7293,2.7293,2.7027,2.6499,2.66,2.665,2.665,2.665,2.7243,2.8348,2.9478,0.0,3.2968,3.3746,0.0,3.932,4.0425,4.1605,4.266,4.2785,4.276,4.2434,4.1003,3.912,3.691,0.0,0.0,3.2616,3.0181,3.0783,3.1938,3.0507,3.0758,3.1185,3.0206,0.0,0.0,2.9402,2.9804,0.0,0.0,0.0,0.0,0.0,0.0,0.0,0.0,0.0,0.0,0.0,0.0,0.0,0.0,0.0,0.0,0.0,4.2766,4.2986,4.2986,4.2986,4.2986,4.2986,4.2986,4.2986,4.2986,4.3514,4.4066,4.4618,4.5196,4.5773,4.6301,4.6301,4.6301,4.6301,4.624,4.624,4.6301,4.618,4.612,4.618,4.618,4.6059,4.5817,4.5817,4.5999,4.624,4.5999,4.6059,4.6301,3.5998,3.6776,3.7644,3.8302,3.8422,3.8631,3.929,3.8698,3.8513,3.9593,3.9816,3.9755,3.947,3.819,3.6761,3.5416,3.389,3.2453,3.1189,3.0234,2.9208,2.7975,2.8142,2.8109,2.7731,2.8222,2.8247,2.7695,2.7695,2.7304,2.6499,2.6499,2.6927,2.767,2.7153,2.7795,2.9377,2.9654,3.0733,3.2441,3.4997,0.0,4.0249,4.163,4.2836,4.3765,4.3489,4.3212,4.2685,4.0752,3.9546,0.0,0.0,3.4901,3.465,0.0,3.2416,3.3194,3.1788,3.1813,3.2164,3.1913,0.0,0.0,0.0,0.0,0.0,0.0,0.0,0.0,0.0,0.0,0.0,0.0,0.0,0.0,0.0,0.0,0.0,0.0,0.0,0.0,0.0,4.2007,4.2283,4.2615,4.2615,4.274,4.2961,4.2986,4.2986,4.2986,4.3237,4.379,4.4618,4.492,4.5472,4.6301,4.6301,4.6301,4.6301,4.6301,4.6301,4.6301,4.6301,4.6301,4.6301,4.6301,4.618,4.6059,4.6059,4.612,4.624,4.612,4.612,4.6301,3.6596,3.7404,3.8422,3.911,3.9439,4.0008,4.1205,4.0793,4.0707,4.1653,4.1824,4.1163,3.9131,3.8452,3.7612,3.6148,3.4433,3.3162,3.2555,3.1235,2.9945,2.8792,2.8664,2.8573,2.8423,2.8875,2.8775,2.8097,2.8097,2.7595,2.665,2.665,2.7344,2.8574,2.8021,2.8875,3.0708,0.0,0.0,3.3018,0.0,3.9145,3.9823,4.2359,4.3614,4.3966,4.384,4.3514,4.2836,4.0827,4.0099,3.9572,3.6937,3.6558,0.0,0.0,0.0,0.0,0.0,0.0,0.0,0.0,0.0,3.1687,0.0,0.0,0.0,3.127,0.0,0.0,0.0,0.0,0.0,0.0,0.0,0.0,0.0,0.0,0.0,0.0,0.0,0.0,0.0,4.0874,4.1178,4.1986,4.176,4.1961,4.2816,4.2866,4.2861,4.2986,4.2986,4.3514,4.4618,4.4618,4.5196,4.6301,4.6301,4.6301,4.6301,4.6301,4.6301,4.6301,4.6301,4.6301,4.6301,4.6301,4.6301,4.6301,4.6301,4.6301,4.6301,4.6301,4.6301,4.6301,3.6507,3.7045,3.7734,3.8392,3.9499,4.0546,4.1265,4.1324,4.1459,4.1979,4.2802,4.3268,4.2985,4.1883,4.1239,4.1261,3.7808,3.5288,3.4458,3.2529,3.1113,3.0388,3.0005,2.9722,2.9617,2.9654,2.9176,2.8097,2.8097,2.7795,2.7228,2.7228,2.7329,2.7519,2.89,3.0181,3.1336,0.0,3.3922,0.0,3.8442,3.7764,0.0,4.0172,4.1601,4.1852,4.3288,4.3765,4.3514,0.0,4.1555,4.0799,0.0,3.8868,3.8868,0.0,0.0,0.0,0.0,0.0,0.0,0.0,3.4801,0.0,0.0,0.0,3.1361,2.9615,0.0,0.0,0.0,0.0,0.0,0.0,0.0,0.0,0.0,0.0,0.0,0.0,0.0,0.0,0.0,0.0,3.9798,4.1304,4.0074,4.0176,4.2187,4.2313,4.2539,4.2961,4.2986,4.3514,4.4618,4.4618,4.5196,4.6301,4.6301,4.6301,4.6301,4.6301,4.6301,4.6301,4.6301,4.6301,4.6301,4.6301,4.6301,4.6301,4.6301,4.6301,4.6301,4.6301,4.6301,4.6301,3.5908,3.7015,3.7943,3.7853,3.926,4.0457,4.0586,4.1823,4.2753,4.2564,4.3081,4.3413,4.3167,4.1585,4.0693,4.1156,3.8681,3.6603,0.0,3.3756,3.2507,3.1562,3.0759,3.0316,3.0256,2.9955,2.9402,2.8537,2.8273,2.7821,2.7293,2.7293,2.7971,2.9252,3.0281,3.1863,3.3727,0.0,3.4123,0.0,0.0,0.0,0.0,4.1656,4.374,4.379,4.4141,4.4066,4.3539,0.0,4.1254,0.0,0.0,0.0,0.0,0.0,0.0,0.0,0.0,0.0,0.0,0.0,0.0,0.0,3.1537,0.0,3.0733,0.0,0.0,0.0,0.0,0.0,0.0,0.0,0.0,0.0,0.0,0.0,0.0,0.0,0.0,0.0,0.0,0.0,0.0,0.0,0.0,3.9195,4.1103,4.1861,4.2313,4.2539,4.2811,4.3363,4.4141,4.4468,4.5045,4.5824,4.615,4.6301,4.6301,4.6301,4.6301,4.6301,4.6301,4.6301,4.6301,4.6301,4.6301,4.6301,4.6301,4.6301,4.6301,4.6301,4.6527,4.6753,3.5403,3.676,3.7694,3.7189,3.8758,4.0218,4.0488,4.2005,4.3046,4.2673,4.2949,4.3153,4.3093,4.1707,4.1229,4.2233,4.0526,3.8868,0.0,0.0,3.45,3.3822,3.219,3.1436,3.1738,3.0758,2.9955,2.9364,2.8674,2.8122,2.7745,2.7745,2.8599,3.0167,3.1512,3.337,3.5483,0.0,3.5554,3.6483,3.7563,3.8191,3.8918,4.3187,4.5171,4.5648,4.507,4.4593,4.394,4.1882,4.1455,0.0,4.0501,0.0,0.0,0.0,0.0,0.0,3.8065,0.0,0.0,0.0,0.0,0.0,0.0,0.0,0.0,0.0,0.0,0.0,0.0,0.0,0.0,0.0,0.0,0.0,0.0,0.0,0.0,0.0,0.0,0.0,0.0,0.0,0.0,0.0,0.0,0.0,4.0174,4.1178,4.1911,4.2213,4.274,4.3237,4.379,4.4342,4.492,4.5497,4.605,4.6301,4.6301,4.6301,4.6301,4.6301,4.6301,4.6301,4.6301,4.6301,4.6301,4.6326,4.6476,4.6527,4.6527,4.6376,4.6652,4.7018,3.5223,3.5942,3.648,3.6277,3.8014,3.9973,4.1581,4.1711,4.1633,4.1817,4.2369,4.2971,4.3714,4.3689,4.4543,4.6667,0.0,4.2785,4.2735,0.0,3.7312,3.7789,3.4726,3.3495,0.0,3.2466,3.1085,3.0557,2.9414,2.8863,2.8838,2.8838,2.8888,2.9088,3.2365,3.4449,3.5608,3.7211,3.9747,4.2635,4.2213,4.3564,4.5748,0.0,4.4392,4.62,4.5648,0.0,0.0,4.3463,4.2911,0.0,0.0,0.0,0.0,0.0,0.0,0.0,0.0,0.0,0.0,3.573,0.0,0.0,0.0,0.0,3.1989,0.0,0.0,0.0,0.0,0.0,0.0,0.0,0.0,0.0,0.0,0.0,0.0,0.0,0.0,0.0,0.0,0.0,0.0,0.0,0.0,0.0,3.9521,4.0249,4.1053,4.2187,4.274,4.3237,4.379,4.4342,4.492,4.5497,4.605,4.6301,4.6301,4.6301,4.6301,4.6301,4.6301,4.6301,4.6301,4.6301,4.6301,4.6351,4.6903,4.7043,4.6993,4.6502,4.6652,4.7068,3.5138,3.5231,3.5396,3.5342,3.7016,3.8961,4.0716,4.1544,4.2457,4.3805,4.433,4.5346,4.7428,4.6979,4.7129,0.0,0.0,4.5422,4.4694,4.1681,0.0,4.0727,3.7563,3.6132,0.0,3.4861,3.3341,3.224,3.1432,3.0736,3.0225,2.9846,2.9871,3.0326,3.2784,3.4901,0.0,0.0,0.0,0.0,0.0,4.3815,4.6225,0.0,0.0,4.6225,4.5673,4.5497,0.0,4.4392,4.3589,4.2961,4.2961,4.2153,4.1326,4.1555,4.148,0.0,0.0,0.0,4.0852,3.7688,0.0,0.0,0.0,0.0,0.0,0.0,0.0,0.0,0.0,0.0,0.0,0.0,0.0,0.0,0.0,0.0,0.0,0.0,0.0,0.0,0.0,0.0,0.0,0.0,0.0,0.0,0.0,4.0149,4.1229,4.1605,4.2509,4.3062,4.3263,4.4166,4.4719,4.492,4.5874,4.6301,4.6301,4.6301,4.6301,4.6301,4.6301,4.6301,4.6301,4.6301,4.6301,4.6376,4.6928,4.7068,4.7093,4.7305,4.7732,4.8209,3.527,3.5107,3.5051,3.4868,3.6521,3.8471,4.0327,4.1923,4.3439,4.5033,4.5819,4.7094,4.9353,0.0,4.8962,0.0,4.9038,4.7682,4.6175,4.4217,0.0,4.276,4.0352,0.0,0.0,0.0,3.536,3.3802,3.2962,3.2143,3.1298,3.0738,3.0648,3.1001,0.0,3.5093,3.7109,0.0,4.1103,0.0,0.0,4.4719,0.0,0.0,4.6301,4.625,0.0,4.5773,4.5698,4.5121,4.4468,4.3865,4.3815,4.3062,4.2208,4.2213,4.2032,4.1831,4.1401,4.1731,0.0,3.8969,3.7789,0.0,3.3746,0.0,0.0,0.0,0.0,0.0,0.0,0.0,0.0,0.0,0.0,0.0,0.0,0.0,0.0,0.0,0.0,0.0,0.0,0.0,3.2817,3.4324,0.0,0.0,0.0,0.0,4.0727,4.1275,4.2208,4.2841,4.2986,4.4066,4.4618,4.4644,4.5773,4.6301,4.6301,4.6301,4.6301,4.6301,4.6301,4.6301,4.6326,4.6527,4.6602,4.6677,4.7431,4.7707,4.7732,4.7857,4.8259,4.8786,3.5521,3.5548,3.5481,3.5035,3.6592,3.8569,4.0555,4.2732,4.4506,4.5482,4.6798,4.8193,4.9629,4.9766,5.0193,5.1272,5.0845,4.9615,4.7444,4.6778,0.0,0.0,4.3017,4.2082,4.1501,0.0,0.0,0.0,3.4114,3.3097,3.2217,3.1612,3.1212,0.0,3.3233,0.0,3.6631,4.0478,4.3062,4.4769,4.5874,4.6301,4.6301,4.6301,4.6301,4.6301,4.6301,4.6301,4.6225,4.5698,4.5522,4.5296,4.4217,4.3865,4.3639,4.264,4.269,4.2785,4.1756,4.1831,4.1735,3.9623,0.0,0.0,0.0,0.0,3.6985,0.0,0.0,0.0,0.0,0.0,0.0,0.0,0.0,0.0,0.0,0.0,0.0,0.0,0.0,0.0,0.0,0.0,3.1537,3.3646,3.3388,0.0,0.0,0.0,3.9597,4.12,4.1856,4.2464,4.2961,4.4066,4.4618,4.4644,4.5773,4.6301,4.6301,4.6301,4.6301,4.6301,4.6301,4.6301,4.6351,4.6903,4.7068,4.7193,4.8335,4.8786,4.8736,4.8184,4.8335,4.8887,3.5568,3.6401,3.7535,3.8247,3.809,3.8804,4.1462,4.2814,4.4454,0.0,4.8553,5.0024,5.185,5.2076,5.2176,5.2477,5.2,0.0,0.0,0.0,0.0,4.8109,4.5874,4.4568,4.4443,4.1616,0.0,3.8132,0.0,3.4865,3.4159,3.3219,0.0,0.0,0.0,0.0,3.624,3.9522,4.261,4.5321,4.6024,4.6301,0.0,0.0,4.6301,4.6301,4.6301,4.6301,4.6276,4.615,4.5824,4.5447,4.5146,4.4769,4.4367,4.4066,4.379,4.3539,4.3237,4.2961,4.259,4.1609,4.0453,3.9195,0.0,0.0,0.0,0.0,0.0,0.0,0.0,0.0,0.0,0.0,0.0,0.0,0.0,0.0,0.0,0.0,0.0,0.0,0.0,0.0,3.1776,3.2566,0.0,0.0,0.0,0.0,0.0,4.0676,4.1656,4.2464,4.2961,4.4066,4.4618,4.4644,4.5773,4.6301,4.6301,4.6301,4.6301,4.6301,4.6301,4.6301,4.6351,4.6903,4.7068,4.7193,4.8335,4.9012,4.9364,4.9213,4.9264,4.9414,3.6891,3.8397,4.0043,4.0932,4.1043,4.1618,4.3204,4.4264,0.0,4.8042,4.957,0.0,5.19,5.2546,5.2929,5.2929,5.2628,0.0,5.1423,0.0,0.0,4.9615,4.8109,4.7054,4.6552,4.3652,0.0,3.9728,0.0,0.0,3.5046,0.0,0.0,0.0,0.0,3.5079,0.0,4.0384,4.3299,4.5171,4.5974,0.0,0.0,4.6401,4.6451,4.6652,4.6401,4.6301,4.6301,4.6301,4.61,4.5799,4.5573,4.5271,4.4945,4.4694,4.4392,4.4166,4.4166,4.3765,4.3263,4.2961,4.1982,4.0927,4.0124,4.0199,4.0174,0.0,0.0,0.0,0.0,0.0,0.0,0.0,0.0,0.0,0.0,0.0,0.0,0.0,0.0,0.0,0.0,0.0,0.0,0.0,0.0,0.0,0.0,0.0,0.0,4.0099,4.1229,4.2183,4.2961,4.4066,4.4618,4.4644,4.5773,4.6301,4.6301,4.6301,4.6301,4.6301,4.6301,4.6451,4.6702,4.7255,4.7631,4.7933,4.8786,4.9314,4.959,4.959,4.959,4.959,3.905,4.1036,4.2762,4.318,4.4476,4.5581,0.0,4.6553,0.0,4.8927,0.0,5.114,5.114,5.2186,5.2929,5.2929,0.0,5.2302,5.0845,5.1674,5.1523,4.9992,4.9916,4.9364,4.8159,4.5422,4.2932,0.0,0.0,0.0,0.0,0.0,0.0,0.0,0.0,0.0,0.0,4.1935,4.4238,4.4719,4.5949,4.6702,4.7043,4.6677,4.6828,4.7093,4.6627,4.6376,4.6301,4.6301,4.6301,4.6225,4.5748,4.5598,4.5497,4.4995,4.4794,4.4744,4.4744,4.4342,4.3915,4.3915,4.3489,4.2836,4.1882,4.1551,4.1404,4.0981,4.0453,4.0176,0.0,0.0,0.0,0.0,0.0,0.0,0.0,0.0,0.0,0.0,0.0,0.0,0.0,0.0,0.0,0.0,0.0,0.0,0.0,0.0,0.0,3.9521,4.0727,4.1831,4.2861,0.0,4.4618,4.4644,4.5773,4.6301,4.6301,4.6301,4.6301,4.6301,4.6301,4.6627,4.7118,4.7682,4.8284,4.8937,4.9414,4.959,4.959,4.959,4.959,4.959,4.135,4.3415,4.4905,4.4487,4.6208,4.8049,4.9179,4.8989,4.9114,5.0357,5.1715,5.2546,5.2546,5.2754,5.2929,5.2929,5.2929,0.0,0.0,0.0,0.0,5.1699,5.1674,5.0921,4.9339,4.6602,4.4269,0.0,0.0,0.0,3.594,0.0,0.0,0.0,0.0,0.0,3.8865,4.1893,0.0,4.4769,4.6351,4.6993,4.7179,4.7506,4.7682,4.7707,4.7179,4.6702,4.6301,4.6301,4.6301,4.6301,4.62,4.6175,4.615,4.605,4.5698,4.5321,4.5321,4.492,4.4468,4.4468,4.4066,4.3614,4.3413,4.3011,4.2715,4.2865,4.2301,4.1641,4.1282,0.0,0.0,0.0,0.0,0.0,0.0,0.0,0.0,0.0,0.0,0.0,0.0,0.0,0.0,0.0,0.0,0.0,0.0,0.0,0.0,0.0,4.0526,0.0,0.0,0.0,4.4618,4.4644,4.5773,4.6301,4.6301,4.6301,4.6301,4.6301,4.6301,4.6627,4.7118,4.7682,4.851,4.9464,4.9565,4.959,4.959,4.959,4.959,4.959,4.467,4.5976,4.697,4.6996,0.0,0.0,0.0,5.1408,5.1518,5.1161,5.1585,5.1825,5.1825,5.247,5.2929,5.2929,5.2929,5.2929,5.2929,5.2929,5.2804,5.2553,5.2251,0.0,5.0042,4.7606,4.5355,4.338,0.0,0.0,3.6541,0.0,0.0,0.0,0.0,3.7047,0.0,0.0,0.0,4.5196,4.6577,4.7481,4.7983,4.7933,4.8083,4.8284,4.7732,4.7355,4.7054,4.6502,4.6301,4.6301,4.6301,4.6301,4.6301,4.6301,4.6125,4.5924,4.5924,4.5497,4.507,4.507,4.4644,4.4141,4.3865,4.3702,4.3594,4.3457,4.3203,4.2681,4.1389,3.9889,0.0,0.0,0.0,0.0,0.0,0.0,0.0,0.0,0.0,0.0,0.0,0.0,0.0,0.0,0.0,0.0,0.0,0.0,0.0,0.0,0.0,0.0,0.0,0.0,0.0,4.4644,4.5773,4.6301,4.6301,4.6301,4.6301,4.6326,4.6602,4.7054,4.7606,4.8435,4.9113,4.959,4.959,4.959,4.959,4.959,4.959,4.959,4.7623,4.8355,4.9035,0.0,5.0617,5.1791,5.2194,5.3329,5.3577,5.202,5.1605,5.1433,5.1342,5.2261,5.2929,5.2929,5.2929,5.2929,5.2929,5.2929,5.2929,5.2929,5.2503,5.18,5.0795,4.8736,4.6541,0.0,0.0,0.0,0.0,0.0,0.0,0.0,0.0,0.0,0.0,0.0,4.4591,4.5924,4.7029,4.8008,4.8736,4.8385,4.856,4.8862,4.8284,4.8083,4.7933,4.6979,4.6577,4.6476,4.6351,4.6301,4.6301,4.6301,4.6301,4.6301,4.6301,4.5999,4.5673,4.5792,4.5338,4.4759,4.4288,4.4288,4.4204,4.3674,4.3874,4.3424,4.1311,4.0428,0.0,0.0,0.0,0.0,0.0,0.0,0.0,0.0,0.0,0.0,0.0,0.0,0.0,0.0,0.0,0.0,3.312,3.4259,0.0,0.0,0.0,4.1193,4.1861,0.0,4.4676,4.4644,4.5773,4.6301,4.6301,4.6301,4.6376,4.6502,4.6954,4.7506,4.8184,4.9188,4.959,4.959,4.959,4.959,4.959,4.959,4.959,4.959,0.0,0.0,0.0,0.0,0.0,5.3178,5.323,5.3959,5.419,5.3385,5.3318,5.3113,5.2772,5.2829,5.2929,5.2929,5.2929,5.2929,5.2929,5.2929,5.2929,5.2929,5.2879,5.2578,5.195,5.0243,4.8133,0.0,0.0,4.0567,0.0,0.0,0.0,0.0,0.0,0.0,0.0,4.4432,4.5924,4.7079,4.8184,4.8686,4.8812,4.9264,4.9464,4.9439,4.8887,4.8686,4.8611,4.7983,4.7456,4.6979,4.6476,4.6301,4.6301,4.6301,4.6301,4.6301,4.6301,4.6276,4.6285,4.661,4.6214,4.5715,4.5502,4.5022,4.4596,4.4252,4.4422,4.3882,4.1362,4.1878,4.1744,0.0,0.0,0.0,0.0,0.0,0.0,0.0,0.0,0.0,0.0,0.0,0.0,0.0,0.0,0.0,3.4005,3.4223,3.5522,3.8333,0.0,4.0814,4.0676,4.3594,4.4908,4.4644,4.5773,4.6301,4.6301,4.6301,4.6577,4.7054,4.7043,4.7732,4.8736,4.9339,4.959,4.959,4.959,4.959,4.959,4.959,4.959,4.959,0.0,0.0,0.0,0.0,0.0,0.0,0.0,5.5147,5.5164,5.4714,5.3955,5.341,5.3273,5.3273,5.3136,5.2929,5.3136,5.3136,5.2929,5.2929,5.2929,5.2929,5.2929,5.2678,5.2126,5.1122,4.9543,0.0,0.0,4.2826,4.0329,3.9262,0.0,0.0,0.0,4.2721,4.4586,4.5565,4.6803,4.8159,4.8586,4.8962,4.9289,4.9515,4.959,4.9565,4.9339,4.9264,4.9188,4.8611,4.8058,4.7556,4.733,4.7054,4.6803,4.6803,4.6577,4.6301,4.6301,4.6446,4.6626,4.6746,4.6722,4.6568,4.6206,4.5788,4.5391,4.4934,4.4765,4.4302,4.2944,4.2605,4.2134,0.0,0.0,0.0,0.0,0.0,0.0,0.0,0.0,0.0,0.0,0.0,0.0,0.0,0.0,0.0,0.0,0.0,0.0,3.7343,0.0,4.123,4.1003,4.3695,4.5085,4.5146,4.5924,4.6301,4.6301,4.6301,4.6778,4.7606,4.7958,4.856,4.9289,4.9515,4.959,4.959,4.959,4.959,4.959,4.959,4.959,4.959,5.3609,0.0,5.2851,0.0,5.4027,5.4105,5.5909,5.617,5.6102,5.5855,5.4817,5.3929,5.3682,5.3682,5.3546,5.3273,5.3478,5.3478,5.3136,5.3067,5.2998,5.2929,5.2929,0.0,5.2352,5.1934,5.0791,4.9002,4.7469,0.0,4.2877,0.0,0.0,0.0,4.3406,4.4706,4.6465,4.6864,4.7807,4.9012,4.9012,4.9238,4.959,4.959,4.959,4.959,4.959,4.959,4.954,4.9138,4.8736,4.8335,4.8008,4.7657,4.7355,4.7355,4.704,4.6673,4.6673,4.6787,4.6959,4.7019,4.7231,4.7254,4.6772,4.6435,4.5957,4.523,4.4846,4.4565,4.3964,4.3075,4.2317,4.1977,0.0,0.0,0.0,0.0,0.0,0.0,0.0,3.4972,0.0,0.0,0.0,0.0,0.0,0.0,0.0,0.0,0.0,0.0,0.0,0.0,0.0,4.4066,4.5385,4.559,4.6109,4.6301,4.6326,4.6627,4.7179,4.7958,4.8686,4.9238,4.959,4.959,4.959,4.959,4.959,4.959,4.959,4.959,4.959,4.959,5.4079,5.4184,5.4524,5.5674,5.5883,5.6092,5.6693,5.6798,5.6798,5.6798,5.5959,5.5022,5.4116,5.3997,5.3997,5.3997,5.3997,5.3861,5.3546,5.3478,5.3341,0.0,0.0,5.2929,5.2929,5.2691,5.1832,5.0393,0.0,0.0,4.5725,0.0,4.5005,4.5893,4.6391,4.7096,4.7908,4.851,4.9063,4.959,4.959,4.959,4.959,4.959,4.959,4.959,4.959,4.959,4.959,4.959,4.959,4.9364,4.8259,4.7908,4.7908,4.7908,4.7752,4.7567,4.7567,4.7401,4.7265,4.7645,4.7703,4.7607,4.7351,4.6891,4.6159,4.4929,4.4668,4.4565,4.3964,4.3389,4.2631,4.1507,0.0,0.0,0.0,0.0,0.0,0.0,3.6698,3.5286,3.5286,0.0,0.0,0.0,0.0,0.0,0.0,0.0,0.0,4.0715,4.1465,0.0,4.3082,4.4694,4.5649,4.5885,4.6144,4.6301,4.6351,4.7405,4.7908,4.7958,4.9088,4.959,4.959,4.959,4.959,4.959,4.959,4.959,4.959,4.959,4.959,4.959,5.5334,5.57,5.6092,5.6458,5.651,5.6719,5.7294,5.7373,5.7373,5.7373,5.7146,5.6513,5.5413,5.4744,5.4241,0.0,5.4174,5.4174,0.0,5.3861,5.3657,5.3341,5.3341,5.3204,5.2929,5.2822,5.2438,5.1574,0.0,0.0,0.0,4.7503,4.7998,4.8785,4.962,5.0346,5.0881,5.1059,5.1133,5.1114,5.1114,5.0691,5.0167,5.0167,4.9916,4.959,4.959,4.9719,4.9937,4.9654,4.9912,5.0155,4.9609,4.9128,4.8888,4.8888,4.8731,4.8544,4.8544,4.8634,4.8618,4.8402,4.8477,4.8525,4.8041,4.7179,4.6264,4.5506,4.5009,4.467,4.4487,4.399,4.3363,4.2605,4.216,0.0,0.0,0.0,0.0,0.0,0.0,3.6907,0.0,3.6123,0.0,0.0,0.0,0.0,0.0,0.0,0.0,0.0,4.1956,0.0,4.3647,4.551,4.6495,4.6527,4.6585,4.6683,4.6903,4.7581,4.8134,4.8535,4.9264,4.959,4.959,4.959,4.959,4.959,4.959,4.959,4.959,4.959,4.959,4.959,5.6249,5.6536,5.6876,5.7085,5.7137,5.732,5.7895,5.7974,5.7974,5.7974,5.7791,5.7373,5.6641,5.5653,0.0,5.4428,5.4604,5.4578,5.4174,5.4174,5.4064,5.3682,5.3682,5.3589,5.3316,5.3452,0.0,5.281,5.2098,5.1238,5.0194,5.0154,5.041,5.0971,5.1548,5.1972,5.228,5.2148,5.1951,5.1778,5.1778,5.1443,5.0917,5.1049,5.0887,5.0583,5.0583,5.0713,5.0881,5.042,5.0601,5.0896,5.0436,5.013,4.9975,4.9849,4.9629,4.9528,4.9528,4.9532,4.949,4.9153,4.9098,4.8878,4.8041,4.731,4.6578,4.5794,4.5268,4.4955,4.472,4.4251,4.3676,4.3127,4.2552,4.1977,4.1402,0.0,0.0,0.0,0.0,0.0,0.0,3.7743,0.0,0.0,0.0,0.0,0.0,0.0,0.0,4.0741,4.3049,0.0,4.5189,4.6357,4.7011,4.7138,4.7103,4.7202,4.7521,4.8007,4.8498,4.9002,4.9428,4.959,4.959,4.959,4.959,4.959,4.959,4.959,4.959,4.959,4.959,4.9654,5.6876,5.6902,5.7085,0.0,5.7782,0.0,5.8418,5.8523,5.8523,5.8523,5.8052,5.7782,5.773,5.6693,5.5804,5.5203,0.0,0.0,0.0,5.4578,5.4376,5.4064,5.4064,5.3997,5.3997,5.4309,5.4309,5.3997,5.3458,5.3269,5.3269,5.2704,5.2448,5.2448,5.2448,5.2513,5.2448,5.2144,5.2012,5.2012,5.2012,5.1946,5.1961,5.2265,5.2371,5.228,5.228,5.2345,5.2268,5.169,5.1601,5.1498,5.096,5.097,5.116,5.0741,5.0544,5.038,5.038,5.0175,5.0002,4.9949,4.9505,4.8799,4.7702,4.733,4.6965,4.5921,4.5689,4.5454,4.4905,4.4278,4.3676,4.3127,4.2552,4.1977,4.1402,0.0,0.0,0.0,0.0,0.0,0.0,3.9128,3.9756,0.0,0.0,0.0,0.0,0.0,4.054,4.3834,4.4487,4.5637,4.7252,4.71,4.7212,4.7755,4.77,4.7825,4.823,4.866,4.904,4.9368,4.9556,4.959,4.959,4.959,4.959,4.959,4.959,4.9654,4.9719,4.9719,4.9783,5.0014,0.0,0.0,5.8157,5.8287,5.8314,5.8366,5.8497,5.8523,5.8523,5.8523,5.8392,5.8157,5.7712,5.7494,5.6824,5.5804,5.5334,5.5032,5.4939,5.4939,5.4805,5.4376,5.4376,5.4241,5.3997,5.4064,5.4064,5.3997,5.3843,5.3792,5.3792,5.3907,5.3963,5.3963,5.4322,5.4415,5.4415,5.4348,5.4122,5.3829,5.3829,5.3438,5.2879,5.2946,5.273,5.228,5.228,5.2476,5.2646,5.2257,5.2491,5.288,5.2401,5.2569,5.2606,5.1379,5.1142,5.1262,5.1262,5.1246,5.11,5.0681,4.9819,4.9008,4.8747,4.7989,4.72,4.6939,4.6182,4.5584,4.5373,4.4565,4.3676,4.3127,4.2552,4.1977,4.1402,4.0801,0.0,0.0,4.0514,4.0461,3.9886,4.088,4.1193,0.0,0.0,0.0,0.0,4.216,4.3023,4.3833,4.4879,4.6029,4.7278,4.7722,4.8042,4.8376,4.8146,4.8477,4.9384,4.9515,4.9684,4.9926,4.9925,4.9847,4.959,4.959,4.959,4.959,4.959,5.0181,5.1016,5.1016,5.1705,5.2631,5.8052,5.8314,5.8523,5.8523,5.8523,5.8523,5.8523,5.8523,5.8523,5.8523,5.8523,5.8392,5.8078,5.7817,5.7468,5.6771,5.5961,5.536,5.5125,5.5099,5.5032,5.4805,5.4805,5.4671,5.4537,5.4469,5.4469,5.4469,5.4469,5.4469,5.4537,5.4671,5.4805,5.4805,5.5032,5.5099,5.5099,5.4872,5.4712,5.4511,5.4511,5.4195,5.3804,5.4004,5.389,5.3605,5.3605,5.3671,5.3777,5.336,5.3413,5.3648,5.3257,5.3244,5.3269,5.236,5.2305,5.2354,5.2093,5.2014,5.1805,5.0995,5.0315,4.9793,4.9505,4.8773,4.8041,4.778,4.7022,4.6182,4.5715,4.4879,4.4016,4.3154,4.2552,4.1977,4.1402,4.1036,0.0,4.1193,4.1507,4.169,4.1611,4.2422,4.2579,4.1664,4.2396,0.0,4.25,4.3885,4.467,4.467,4.5794,4.6839,4.7702,4.8041,4.8427,4.8823,4.8722,4.9229,5.0292,5.0212,5.0306,5.055,5.0232,5.0001,4.9783,4.9654,4.959,4.9654,5.0245,5.1071,5.2009,5.228,5.3037,5.3957,5.8523,5.8523,5.8523,5.8523,5.8523,5.8523,5.8523,5.8523,5.8523,5.8523,5.8523,5.8523,5.8523,5.8078,5.7835,5.773,5.6745,5.5935,5.5386,5.5282,5.5229,5.5229,5.5151,5.5099,5.5099,5.5099,5.5099,5.5099,5.5099,5.5099,5.5099,5.5099,5.5099,5.5099,5.5099,5.5099,5.5099,5.4738,5.4578,5.4578,5.4578,5.4578,5.4645,5.4965,5.5099,5.5099,5.5099,5.5099,5.502,5.4497,5.4341,5.4262,5.3792,5.3661,5.3661,5.3661,5.3661,5.3504,5.2825,5.2563,5.2276,5.1282,5.0917,5.0655,5.0132,4.961,4.9035,4.8433,4.7858,4.7069,4.6025,4.5271,4.4408,4.3337,4.2605,4.1977,4.1402,0.0,4.1664,4.2239,4.2448,4.2788,4.3363,4.3859,4.3964,4.3572,4.4356,4.4696,4.4278,4.5297,4.5842,4.5842,4.6782,4.7649,4.8303,4.8329,4.8669,4.9348,4.9516,5.0036,5.0917,5.0824,5.0867,5.1057,5.0677,5.0487,5.0487,5.0397,5.0308,5.0436,5.1518,5.2368,5.3076,5.3782,5.4408,5.5012,5.8523,5.8523,5.8523,5.8523,5.8523,5.8523,5.8523,5.8523,5.8523,5.8523,5.8523,5.8523,5.8523,5.8444,5.8183,5.7782,5.7573,5.7137,5.6588,5.6066,5.5778,5.5778,5.5334,5.5099,5.5099,5.5099,5.5099,5.5099,5.5099,5.5099,5.5099,5.5099,5.5099,5.5099,5.5099,5.5099,5.5099,5.5032,5.5032,5.5032,5.5032,5.5032,5.5032,5.5099,5.5099,5.5099,5.5099,5.5099,5.5099,5.4994,5.4968,5.4942,5.4863,5.4837,5.4837,5.4837,5.4837,5.4602,5.3556,5.2877,5.2459,5.2276,5.1518,5.076,5.0681,5.0185,4.961,4.9061,4.846,4.7858,4.7122,4.5738,4.4513,4.3833,4.2918,4.1977,4.1402,0.0,4.2239,4.2814,4.3729,4.4565,4.5166,4.5297,4.5506,4.5924,4.5663,4.5663,4.6055,4.6708,4.7017,4.7017,4.7174,4.7858,4.893,4.893,4.9479,5.0524,5.0542,5.0881,5.1465,5.1419,5.1283,5.1183,5.213,5.2412,5.2201,5.3214,5.367,5.367,5.385,5.4529,5.5463,5.6089,5.6677,5.7424,5.8523,5.8523,5.8523,5.8523,5.8523,5.8523,5.8523,5.8523,5.8523,5.8523,5.8523,5.8523,5.8523,5.8523,5.8418,5.8157,5.8131,5.8,5.7739,5.6876,5.6379,5.6379,5.6144,5.5857,5.5543,5.5255,5.5099,5.5099,5.5099,5.5099,5.5099,5.5099,5.5099,5.5099,5.5099,5.5099,5.5099,5.5099,5.5099,5.5099,5.5099,5.5099,5.5099,5.5099,5.5099,5.5099,5.5099,5.5099,5.5099,5.5099,5.5099,5.5099,5.5099,5.5099,5.5099,5.5099,5.4863,5.4497,5.3975,5.3426,5.2903,5.2589,5.2093,5.1622,5.1309,5.0786,5.0315,5.0054,4.9531,4.8826,4.7963,4.6891,4.595,4.5375,4.4096,0.0,0.0,4.3127,4.3363,4.3885,4.4696,4.5454,4.6029,4.6081,4.6186,4.6447,4.6238,4.6473,4.7362,4.7649,4.8068,4.8695,4.8433,4.8669,4.9505,4.9505,4.9949,5.0786,5.0786,5.1073,5.1596,5.1596,5.1882,5.2439,5.2842,5.3302,5.3817,5.4208,5.458,5.4975,5.5656,5.6668,5.7764,5.8407,5.9043,5.9675,5.8523,5.8523,5.8523,5.8523,5.8523,5.8523,5.8523,5.8523,5.8523,5.8523,5.8523,5.8523,5.8523,5.8523,5.8523,5.8523,5.8523,5.8523,5.8523,5.7686,5.7137,5.7007,5.6876,5.6588,5.6118,5.5569,5.5282,5.5282,5.5177,5.5099,5.5099,5.5099,5.5099,5.5099,5.5099,5.5099,5.5099,5.5099,5.5099,5.5099,5.5099,5.5099,5.5099,5.5099,5.5099,5.5099,5.5099,5.5099,5.5099,5.5099,5.5099,5.5099,5.5099,5.5099,5.5099,5.5099,5.4785,5.4419,5.4419,5.4001,5.3478,5.3008,5.2798,5.2537,5.1936,5.1492,5.1126,5.0838,5.042,4.9793,4.8773,4.812,4.7519,4.6787,0.0,0.0,0.0,4.446,4.4513,4.5088,4.5663,4.6238,4.6813,4.6865,4.6865,4.6865,4.7022,4.7466,4.8355,4.8512,4.9035,5.008,4.9557,4.9531,5.0106,5.0106,5.0394,5.0969,5.0969,5.1442,5.2279,5.2279,5.3075,5.4375,5.4435,5.4892,5.5697,5.5896,5.6122,5.6522,5.7743,5.8696,5.9593,6.0265,6.0727,6.1023,5.8523,5.8523,5.8523,5.8523,5.8523,5.8523,5.8523,5.8523,5.8523,5.8523,5.8523,5.8523,5.8523,5.8523,5.8523,5.8523,5.8523,5.8523,5.8523,5.8444,5.8157,5.7704,5.7085,5.6798,5.6745,5.6144,5.5857,5.5857,5.5334,5.5099,5.5099,5.5099,5.5099,5.5099,5.5099,5.5099,5.5099,5.5099,5.5099,5.5099,5.5099,5.5099,5.5099,5.5099,5.5099,5.5099,5.5099,5.5099,5.5099,5.5099,5.5099,5.5099,5.5099,5.5099,5.5099,5.5099,5.5072,5.5046,5.5046,5.4602,5.4131,5.4079,5.3687,5.3164,5.2563,5.2406,5.2067,5.1021,5.076,5.0524,4.9871,4.9322,4.859,4.7466,0.0,0.0,4.4879,4.5166,4.5715,4.629,4.6865,4.744,4.8015,4.8068,4.8068,4.8068,4.859,4.893,4.9008,4.9505,5.0054,5.0707,5.0132,5.0106,5.0707,5.0734,5.0995,5.1544,5.1544,5.2492,5.4324,5.4324,5.527,5.7101,5.8199,5.8437,5.8117,5.9871,6.0261,5.984,6.0552,6.0681,6.0573,6.125,6.1132,6.0748,5.8523,5.8523,5.8523,5.8523,5.8523,5.8523,5.8523,5.8523,5.8523,5.8523,5.8523,5.8523,5.8523,5.8523,5.8523,5.8523,5.8523,5.8523,5.8523,5.8523,5.8418,5.8209,5.7634,5.7346,5.7346,5.6771,5.6275,5.5909,5.57,5.5438,5.5099,5.5099,5.5099,5.5099,5.5099,5.5099,5.5099,5.5099,5.5099,5.5099,5.5099,5.5099,5.5099,5.5099,5.5099,5.5099,5.5099,5.5099,5.5099,5.5099,5.5099,5.5099,5.5099,5.5099,5.5099,5.5099,5.5099,5.5099,5.5099,5.4942,5.468,5.4288,5.4053,5.3739,5.3191,5.306,5.2825,5.2014,5.1858,5.157,5.0629,5.0289,5.0002,4.9557,0.0,4.8068,4.7937,4.7832,4.7858,4.8068,4.859,4.9008,4.9218,4.9244,4.9244,4.9244,4.9453,4.974,5.0132,5.0655,5.1047,5.1282,5.1073,5.1047,5.1282,5.1282,5.157,5.2145,5.297,5.3947,5.4983,5.5878,5.7045,5.8519,5.8958,5.9507,6.0043,6.076,6.1194,6.1373,6.1613,6.1915,6.2159,6.2428,6.2368,6.2219,5.8523,5.8523,5.8523,5.8523,5.8523,5.8523,5.8523,5.8523,5.8523,5.8523,5.8523,5.8523,5.8523,5.8523,5.8523,5.8523,5.8523,5.8523,5.8523,5.8523,5.8523,5.8523,5.8131,5.7921,5.7921,5.7373,5.6876,5.6458,5.6092,5.5726,5.536,5.5177,5.5099,5.5099,5.5099,5.5099,5.5099,5.5099,5.5099,5.5099,5.5099,5.5099,5.5099,5.5099,5.5099,5.5099,5.5099,5.5099,5.5099,5.5099,5.5099,5.5099,5.5099,5.5099,5.5099,5.5099,5.5099,5.5099,5.5099,5.5099,5.4994,5.4602,5.4471,5.4341,5.3766,5.3635,5.3478,5.2903,5.2772,5.2537,5.1753,5.1465,5.1256,5.1073,5.0237,4.9688,4.9871,4.9557,4.9348,4.9348,4.9662,4.9897,4.9897,4.9897,4.9897,4.9897,5.008,5.042,5.1021,5.1387,5.1596,5.1596,5.1596,5.1675,5.1884,5.1884,5.2093,5.2485,5.3877,5.5012,5.5991,5.7302,5.8808,6.0412,6.0412,6.0814,6.1433,6.1642,6.1882,6.2121,6.2331,6.269,6.3079,6.3079,6.3079,6.3079,5.8523,5.8523,5.8523,5.8523,5.8523,5.8523,5.8523,5.8523,5.8523,5.8523,5.8523,5.8523,5.8523,5.8523,5.8523,5.8523,5.8523,5.8523,5.8523,5.8523,5.8523,5.8523,5.8523,5.8523,5.8523,5.7948,5.773,5.773,5.6484,5.5909,5.5909,5.536,5.5099,5.5099,5.5099,5.5099,5.5099,5.5099,5.5099,5.5099,5.5099,5.5099,5.5099,5.5099,5.5099,5.5099,5.5099,5.5099,5.5099,5.5099,5.5099,5.5099,5.5099,5.5099,5.5099,5.5099,5.5099,5.5099,5.5099,5.5099,5.5099,5.5099,5.5099,5.4942,5.4341,5.421,5.4053,5.3504,5.34,5.34,5.34,5.2903,5.2302,5.1701,5.1152,5.0603,5.0002,4.9897,4.9897,4.9897,4.9897,4.9897,4.9897,4.9897,4.9897,4.9897,5.0446,5.1021,5.157,5.1596,5.1596,5.1596,5.1596,5.191,5.2511,5.2485,5.2511,5.2575,5.3842,5.5441,5.739,5.8665,6.0645,6.3079,6.3079,6.272,6.2151,6.281,6.269,6.2181,6.281,6.3079,6.3079,6.3079,6.3079,6.3079,5.8523,5.8523,5.8523,5.8523,5.8523,5.8523,5.8523,5.8523,5.8523,5.8523,5.8523,5.8523,5.8523,5.8523,5.8523,5.8523,5.8523,5.8523,5.8523,5.8523,5.8523,5.8523,5.8523,5.8523,5.8523,5.834,5.8052,5.773,5.732,5.6719,5.5909,5.5752,5.5465,5.5099,5.5099,5.5099,5.5099,5.5099,5.5099,5.5099,5.5099,5.5099,5.5099,5.5099,5.5099,5.5099,5.5099,5.5099,5.5099,5.5099,5.5099,5.5099,5.5099,5.5099,5.5099,5.5099,5.5099,5.5099,5.5099,5.5099,5.5099,5.5099,5.5099,5.5046,5.4863,5.4837,5.468,5.4079,5.3949,5.3844,5.3478,5.3243,5.306,5.2877,5.238,5.1936,5.1753,5.1361,5.1073,5.1073,5.1073,5.1073,5.1073,5.1073,5.1073,5.1073,5.1256,5.1413,5.1596,5.1988,5.2223,5.2223,5.2642,5.3138,5.3687,5.384,5.4342,5.5149,5.7421,5.9028,6.0019,6.1292,6.2372,6.3079,6.3079,6.2959,6.281,6.2989,6.2959,6.281,6.2989,6.3079,6.3079,6.3079,6.3079,6.3079,5.8523,5.8523,5.8523,5.8523,5.8523,5.8523,5.8523,5.8523,5.8523,5.8523,5.8523,5.8523,5.8523,5.8523,5.8523,5.8523,5.8523,5.8523,5.8523,5.8523,5.8523,5.8523,5.8523,5.8523,5.8523,5.8523,5.834,5.8,5.7765,5.7294,5.6588,5.6379,5.5961,5.5412,5.5412,5.5308,5.5099,5.5099,5.5099,5.5099,5.5099,5.5099,5.5099,5.5099,5.5229,5.5412,5.5412,5.5569,5.5778,5.5778,5.5778,5.5778,5.5778,5.5621,5.5412,5.5412,5.5282,5.5099,5.5099,5.5099,5.5099,5.5099,5.5099,5.5099,5.5099,5.5099,5.4994,5.4628,5.455,5.4445,5.4131,5.387,5.3713,5.3713,5.3243,5.2851,5.2851,5.2537,5.2302,5.2302,5.2302,5.2302,5.2302,5.2302,5.2302,5.2302,5.2093,5.2067,5.2302,5.2668,5.2851,5.2851,5.3217,5.3894,5.4979,5.5652,5.606,5.6206,5.8867,6.0382,6.0759,6.2141,6.2839,6.3079,6.3079,6.3079,6.3079,6.3079,6.3079,6.3079,6.3079,6.3079,6.3079,6.3079,6.3079,6.3079,5.8523,5.8523,5.8523,5.8523,5.8523,5.8523,5.8523,5.8523,5.8523,5.8523,5.8523,5.8523,5.8523,5.8523,5.8523,5.8523,5.8523,5.8523,5.8523,5.8523,5.8523,5.8523,5.8523,5.8523,5.8523,5.8523,5.8523,5.8523,5.8,5.7782,5.773,5.7137,5.6562,5.5987,5.5987,5.5726,5.5255,5.5255,5.5255,5.5255,5.5255,5.5255,5.5255,5.5255,5.5569,5.5987,5.5987,5.6327,5.6798,5.6798,5.6798,5.6798,5.6798,5.6432,5.5987,5.5987,5.5595,5.5177,5.5177,5.5151,5.5099,5.5099,5.5099,5.5099,5.5099,5.5099,5.5099,5.5099,5.5099,5.5099,5.5099,5.4654,5.4288,5.4288,5.3818,5.3478,5.3478,5.3426,5.34,5.34,5.34,5.34,5.34,5.34,5.34,5.34,5.2877,5.2862,5.3541,5.362,5.371,5.3839,5.3892,5.4746,5.6414,5.779,5.7852,5.6667,5.9194,6.0413,6.0501,6.1664,6.251,6.3079,6.3079,6.3079,6.3079,6.3079,6.3079,6.3079,6.3079,6.3079,6.3079,6.3079,6.3079,6.3079,5.8523,5.8523,5.8523,5.8523,5.8523,5.8523,5.8523,5.8523,5.8523,5.8523,5.8523,5.8523,5.8523,5.8523,5.8523,5.8523,5.8523,5.8523,5.8523,5.8523,5.8523,5.8523,5.8523,5.8523,5.8523,5.8523,5.8523,5.8523,5.8392,5.8104,5.773,5.7529,5.7163,5.6615,5.6615,5.6536,5.6432,5.6432,5.6432,5.6432,5.6432,5.6432,5.6432,5.6432,5.651,5.6615,5.6615,5.6693,5.6798,5.6798,5.6798,5.6798,5.6798,5.6719,5.6615,5.6615,5.6196,5.5726,5.5726,5.5412,5.5099,5.5099,5.5099,5.5099,5.5099,5.5099,5.5099,5.5099,5.5099,5.5099,5.5099,5.4994,5.4916,5.4916,5.4419,5.4027,5.4027,5.3661,5.34,5.34,5.34,5.34,5.34,5.34,5.34,5.34,5.3269,5.3666,5.4862,5.5356,5.6043,5.7107,5.7612,5.8043,5.8494,5.9818,6.0304,6.0062,6.1674,6.2493,6.2493,6.2724,6.2929,6.3079,6.3079,6.3079,6.3079,6.3079,6.3079,6.3079,6.3079,6.3079,6.3079,6.3079,6.3079,6.3079,5.8523,5.8523,5.8523,5.8523,5.8523,5.8523,5.8523,5.8523,5.8523,5.8523,5.8523,5.8523,5.8523,5.8523,5.8523,5.8523,5.8523,5.8523,5.8523,5.8523,5.8523,5.8523,5.8523,5.8523,5.8523,5.8523,5.8523,5.8523,5.8523,5.8366,5.8078,5.8078,5.7765,5.7216,5.7216,5.7059,5.6798,5.6798,5.6798,5.6798,5.6798,5.6798,5.6798,5.6798,5.6981,5.7216,5.7216,5.7399,5.7634,5.7634,5.7634,5.7634,5.7634,5.7451,5.7216,5.7216,5.6798,5.6327,5.6327,5.6381,5.6438,5.6438,5.6724,5.6639,5.5405,5.5099,5.5099,5.5099,5.5099,5.5099,5.5099,5.5099,5.5099,5.5099,5.4837,5.4628,5.4628,5.4393,5.421,5.421,5.421,5.421,5.421,5.3949,5.3896,5.4184,5.4546,5.5173,5.6115,5.7048,5.7876,5.8587,5.8958,5.9375,6.0079,6.0776,6.1405,6.2087,6.2759,6.3079,6.3079,6.3079,6.3079,6.3079,6.3079,6.3079,6.3079,6.3079,6.3079,6.3079,6.3079,6.3079,6.3079,6.3079,6.3079,6.3079,5.8523,5.8523,5.8523,5.8523,5.8523,5.8523,5.8523,5.8523,5.8523,5.8523,5.8523,5.8523,5.8523,5.8523,5.8523,5.8523,5.8523,5.8523,5.8523,5.8523,5.8523,5.8523,5.8523,5.8523,5.8523,5.8523,5.8523,5.8523,5.8523,5.8523,5.8523,5.8523,5.8261,5.7817,5.7817,5.7529,5.7085,5.7085,5.7085,5.7085,5.7085,5.7085,5.7085,5.7085,5.7399,5.7817,5.7817,5.8315,5.885,5.885,5.9061,5.9245,5.9245,5.8928,5.8599,5.8599,5.8107,5.7656,5.7656,5.8053,5.8423,5.8423,5.8942,5.8808,5.6635,5.5935,5.5736,5.5472,5.5604,5.567,5.5165,5.5299,5.5339,5.5165,5.5099,5.5099,5.5099,5.5099,5.5099,5.5099,5.5299,5.5405,5.5405,5.5024,5.4919,5.5379,5.5988,5.6777,5.7742,5.8815,5.956,5.9745,5.9745,6.0323,6.1405,6.1465,6.2028,6.3079,6.3079,6.3079,6.3079,6.3079,6.3079,6.3079,6.3079,6.3079,6.3079,6.3079,6.3079,6.3079,6.3079,6.3079,6.3079,6.3079,6.3079,6.3079,5.8523,5.8523,5.8523,5.8523,5.8523,5.8523,5.8523,5.8523,5.8523,5.8523,5.8523,5.8523,5.8523,5.8523,5.8523,5.8523,5.8523,5.8523,5.8523,5.8523,5.8523,5.8523,5.8523,5.8523,5.8523,5.8523,5.8523,5.8523,5.8523,5.8523,5.8523,5.8523,5.847,5.8392,5.8392,5.8366,5.8287,5.8287,5.8287,5.8287,5.8287,5.8287,5.8287,5.8287,5.834,5.8392,5.8392,5.9236,6.0303,6.0303,6.1165,6.2242,6.2242,6.2186,6.2131,6.2131,6.1657,6.1221,6.1221,6.0905,6.0586,6.0586,6.0658,6.0638,6.0253,5.9317,5.825,5.7092,5.777,5.7834,5.5538,5.6039,5.6471,5.5299,5.5099,5.5099,5.5099,5.5099,5.5099,5.5099,5.6105,5.6834,5.6834,5.6753,5.6753,5.6834,5.6946,5.8005,6.0413,6.0716,6.1346,6.2497,6.2555,6.2643,6.2817,6.2817,6.2905,6.3079,6.3079,6.3079,6.3079,6.3079,6.3079,6.3079,6.3079,6.3079,6.3079,6.3079,6.3079,6.3079,6.3079,6.3079,6.3079,6.3079,6.3079,6.3079,5.8523,5.8523,5.8523,5.8523,5.8523,5.8523,5.8523,5.8523,5.8523,5.8523,5.8523,5.8523,5.8523,5.8523,5.8523,5.8523,5.8523,5.8523,5.8523,5.8523,5.8523,5.8523,5.8523,5.8523,5.8523,5.8523,5.8523,5.8523,5.8523,5.8523,5.8523,5.8523,5.8523,5.8523,5.8523,5.8523,5.8523,5.8523,5.8523,5.8594,5.9385,5.9707,5.9777,6.0578,6.092,6.092,6.092,6.1301,6.184,6.184,6.2242,6.2773,6.2773,6.2773,6.2773,6.2773,6.2643,6.2418,6.2418,6.2486,6.2606,6.2606,6.2914,6.3211,6.3211,6.2774,6.1729,5.9304,5.8941,5.8502,5.6601,5.7322,5.777,5.6471,5.6834,5.7322,5.7322,5.7322,5.7322,5.7322,5.7221,5.7386,5.8123,5.8214,5.8214,5.8214,5.8905,5.9834,6.1017,6.1821,6.2526,6.3079,6.3079,6.3079,6.3079,6.3079,6.3079,6.3079,6.3079,6.3079,6.3079,6.3079,6.3079,6.3079,6.3079,6.3079,6.3079,6.3079,6.3079,6.3079,6.3079,6.3079,6.3079,6.3079,6.3079,6.3079]}]]